<?xml version="1.0" encoding="UTF-8" standalone="no" ?>
<gpx xmlns="http://www.topografix.com/GPX/1/1" xmlns:xsi="http://www.w3.org/2001/XMLSchema-instance" xsi:schemaLocation="http://www.topografix.com/GPX/1/1 http://www.topografix.com/GPX/1/1/gpx.xsd" version="1.1" creator="VisuGPX - https://www.visugpx.com">
  <metadata>
    <name>Ailhon &gt; La Chapelle</name>
    <desc><![CDATA[Labeaume VTT]]></desc>
  </metadata>
  <trk>
    <name><![CDATA[20120205]]></name>
    <trkseg>
      <trkpt lat="44.56694" lon="4.36698">
        <ele>197.235001</ele>
        <time>2012-02-05T09:16:39Z</time>
      </trkpt>
      <trkpt lat="44.56694" lon="4.36699">
        <ele>197.242493</ele>
        <time>2012-02-05T09:16:40Z</time>
      </trkpt>
      <trkpt lat="44.56692" lon="4.36698">
        <ele>197.202499</ele>
        <time>2012-02-05T09:17:01Z</time>
      </trkpt>
      <trkpt lat="44.56693" lon="4.36699">
        <ele>197.220001</ele>
        <time>2012-02-05T09:17:15Z</time>
      </trkpt>
      <trkpt lat="44.56693" lon="4.36698">
        <ele>197.212494</ele>
        <time>2012-02-05T09:17:28Z</time>
      </trkpt>
      <trkpt lat="44.56692" lon="4.36697">
        <ele>197.197495</ele>
        <time>2012-02-05T09:17:36Z</time>
      </trkpt>
      <trkpt lat="44.56687" lon="4.36689">
        <ele>197.072495</ele>
        <time>2012-02-05T09:17:41Z</time>
      </trkpt>
      <trkpt lat="44.5668" lon="4.3669">
        <ele>196.967743</ele>
        <time>2012-02-05T09:17:45Z</time>
      </trkpt>
      <trkpt lat="44.56678" lon="4.36691">
        <ele>196.948151</ele>
        <time>2012-02-05T09:17:49Z</time>
      </trkpt>
      <trkpt lat="44.56678" lon="4.3669">
        <ele>196.944702</ele>
        <time>2012-02-05T09:18:00Z</time>
      </trkpt>
      <trkpt lat="44.56678" lon="4.3669">
        <ele>196.942856</ele>
        <time>2012-02-05T09:18:14Z</time>
      </trkpt>
      <trkpt lat="44.56677" lon="4.36693">
        <ele>196.930313</ele>
        <time>2012-02-05T09:19:15Z</time>
      </trkpt>
      <trkpt lat="44.56677" lon="4.36691">
        <ele>196.934937</ele>
        <time>2012-02-05T09:19:43Z</time>
      </trkpt>
      <trkpt lat="44.56678" lon="4.36692">
        <ele>196.942505</ele>
        <time>2012-02-05T09:20:14Z</time>
      </trkpt>
      <trkpt lat="44.56677" lon="4.36689">
        <ele>196.94313</ele>
        <time>2012-02-05T09:20:40Z</time>
      </trkpt>
      <trkpt lat="44.56677" lon="4.3669">
        <ele>196.94104</ele>
        <time>2012-02-05T09:21:11Z</time>
      </trkpt>
      <trkpt lat="44.56679" lon="4.36692">
        <ele>196.951431</ele>
        <time>2012-02-05T09:21:15Z</time>
      </trkpt>
      <trkpt lat="44.56679" lon="4.36691">
        <ele>196.958252</ele>
        <time>2012-02-05T09:21:20Z</time>
      </trkpt>
      <trkpt lat="44.56689" lon="4.3668">
        <ele>197.125</ele>
        <time>2012-02-05T09:21:28Z</time>
      </trkpt>
      <trkpt lat="44.5669" lon="4.36678">
        <ele>197.147507</ele>
        <time>2012-02-05T09:21:29Z</time>
      </trkpt>
      <trkpt lat="44.567" lon="4.36681">
        <ele>197.362503</ele>
        <time>2012-02-05T09:21:35Z</time>
      </trkpt>
      <trkpt lat="44.56717" lon="4.36696">
        <ele>197.744995</ele>
        <time>2012-02-05T09:21:43Z</time>
      </trkpt>
      <trkpt lat="44.56734" lon="4.36707">
        <ele>198.176392</ele>
        <time>2012-02-05T09:21:51Z</time>
      </trkpt>
      <trkpt lat="44.56755" lon="4.36716">
        <ele>198.716232</ele>
        <time>2012-02-05T09:21:59Z</time>
      </trkpt>
      <trkpt lat="44.56782" lon="4.36721">
        <ele>199.191696</ele>
        <time>2012-02-05T09:22:08Z</time>
      </trkpt>
      <trkpt lat="44.56802" lon="4.36729">
        <ele>199.034348</ele>
        <time>2012-02-05T09:22:15Z</time>
      </trkpt>
      <trkpt lat="44.56828" lon="4.36742">
        <ele>198.475006</ele>
        <time>2012-02-05T09:22:25Z</time>
      </trkpt>
      <trkpt lat="44.56847" lon="4.36752">
        <ele>198.066254</ele>
        <time>2012-02-05T09:22:32Z</time>
      </trkpt>
      <trkpt lat="44.56865" lon="4.3676">
        <ele>197.65303</ele>
        <time>2012-02-05T09:22:39Z</time>
      </trkpt>
      <trkpt lat="44.56877" lon="4.36746">
        <ele>198.325668</ele>
        <time>2012-02-05T09:22:45Z</time>
      </trkpt>
      <trkpt lat="44.56883" lon="4.36731">
        <ele>199.104996</ele>
        <time>2012-02-05T09:22:49Z</time>
      </trkpt>
      <trkpt lat="44.56896" lon="4.36728">
        <ele>199.292496</ele>
        <time>2012-02-05T09:22:54Z</time>
      </trkpt>
      <trkpt lat="44.56926" lon="4.36738">
        <ele>198.797913</ele>
        <time>2012-02-05T09:23:04Z</time>
      </trkpt>
      <trkpt lat="44.56949" lon="4.36743">
        <ele>198.629807</ele>
        <time>2012-02-05T09:23:12Z</time>
      </trkpt>
      <trkpt lat="44.56962" lon="4.36732">
        <ele>199.191254</ele>
        <time>2012-02-05T09:23:17Z</time>
      </trkpt>
      <trkpt lat="44.5697" lon="4.36711">
        <ele>200.226257</ele>
        <time>2012-02-05T09:23:23Z</time>
      </trkpt>
      <trkpt lat="44.56975" lon="4.36675">
        <ele>201.940002</ele>
        <time>2012-02-05T09:23:32Z</time>
      </trkpt>
      <trkpt lat="44.5698" lon="4.36651">
        <ele>203.644302</ele>
        <time>2012-02-05T09:23:39Z</time>
      </trkpt>
      <trkpt lat="44.56986" lon="4.36622">
        <ele>205.861328</ele>
        <time>2012-02-05T09:23:49Z</time>
      </trkpt>
      <trkpt lat="44.56986" lon="4.36603">
        <ele>207.322495</ele>
        <time>2012-02-05T09:23:57Z</time>
      </trkpt>
      <trkpt lat="44.56983" lon="4.36582">
        <ele>208.9375</ele>
        <time>2012-02-05T09:24:06Z</time>
      </trkpt>
      <trkpt lat="44.56978" lon="4.36564">
        <ele>210.261246</ele>
        <time>2012-02-05T09:24:14Z</time>
      </trkpt>
      <trkpt lat="44.56974" lon="4.36546">
        <ele>211.492508</ele>
        <time>2012-02-05T09:24:22Z</time>
      </trkpt>
      <trkpt lat="44.56969" lon="4.36524">
        <ele>212.787506</ele>
        <time>2012-02-05T09:24:32Z</time>
      </trkpt>
      <trkpt lat="44.56962" lon="4.36501">
        <ele>214.05751</ele>
        <time>2012-02-05T09:24:41Z</time>
      </trkpt>
      <trkpt lat="44.56955" lon="4.36474">
        <ele>215.341248</ele>
        <time>2012-02-05T09:24:51Z</time>
      </trkpt>
      <trkpt lat="44.56949" lon="4.36456">
        <ele>215.776245</ele>
        <time>2012-02-05T09:24:58Z</time>
      </trkpt>
      <trkpt lat="44.56934" lon="4.3644">
        <ele>215.461258</ele>
        <time>2012-02-05T09:25:07Z</time>
      </trkpt>
      <trkpt lat="44.56918" lon="4.36421">
        <ele>215.243744</ele>
        <time>2012-02-05T09:25:17Z</time>
      </trkpt>
      <trkpt lat="44.56914" lon="4.36407">
        <ele>215.874878</ele>
        <time>2012-02-05T09:25:23Z</time>
      </trkpt>
      <trkpt lat="44.5692" lon="4.36397">
        <ele>216.848206</ele>
        <time>2012-02-05T09:25:28Z</time>
      </trkpt>
      <trkpt lat="44.56933" lon="4.36375">
        <ele>218.83638</ele>
        <time>2012-02-05T09:25:38Z</time>
      </trkpt>
      <trkpt lat="44.56946" lon="4.36354">
        <ele>220.568756</ele>
        <time>2012-02-05T09:25:46Z</time>
      </trkpt>
      <trkpt lat="44.56961" lon="4.36331">
        <ele>222.293747</ele>
        <time>2012-02-05T09:25:55Z</time>
      </trkpt>
      <trkpt lat="44.56967" lon="4.36325">
        <ele>222.601257</ele>
        <time>2012-02-05T09:25:58Z</time>
      </trkpt>
      <trkpt lat="44.56981" lon="4.36332">
        <ele>222.304993</ele>
        <time>2012-02-05T09:26:04Z</time>
      </trkpt>
      <trkpt lat="44.56991" lon="4.36339">
        <ele>221.997498</ele>
        <time>2012-02-05T09:26:08Z</time>
      </trkpt>
      <trkpt lat="44.57001" lon="4.36329">
        <ele>222.455002</ele>
        <time>2012-02-05T09:26:13Z</time>
      </trkpt>
      <trkpt lat="44.57006" lon="4.36317">
        <ele>223.068588</ele>
        <time>2012-02-05T09:26:19Z</time>
      </trkpt>
      <trkpt lat="44.57011" lon="4.36298">
        <ele>223.974777</ele>
        <time>2012-02-05T09:26:26Z</time>
      </trkpt>
      <trkpt lat="44.57018" lon="4.36281">
        <ele>225.293747</ele>
        <time>2012-02-05T09:26:32Z</time>
      </trkpt>
      <trkpt lat="44.57025" lon="4.36259">
        <ele>227.112503</ele>
        <time>2012-02-05T09:26:40Z</time>
      </trkpt>
      <trkpt lat="44.57032" lon="4.36236">
        <ele>228.956253</ele>
        <time>2012-02-05T09:26:48Z</time>
      </trkpt>
      <trkpt lat="44.57041" lon="4.36212">
        <ele>231.476212</ele>
        <time>2012-02-05T09:26:57Z</time>
      </trkpt>
      <trkpt lat="44.57048" lon="4.36191">
        <ele>233.882584</ele>
        <time>2012-02-05T09:27:06Z</time>
      </trkpt>
      <trkpt lat="44.57047" lon="4.3619">
        <ele>233.892548</ele>
        <time>2012-02-05T09:27:14Z</time>
      </trkpt>
      <trkpt lat="44.57047" lon="4.36189">
        <ele>234.082199</ele>
        <time>2012-02-05T09:27:26Z</time>
      </trkpt>
      <trkpt lat="44.57047" lon="4.36188">
        <ele>234.111343</ele>
        <time>2012-02-05T09:27:34Z</time>
      </trkpt>
      <trkpt lat="44.57048" lon="4.36188">
        <ele>234.187912</ele>
        <time>2012-02-05T09:27:43Z</time>
      </trkpt>
      <trkpt lat="44.5705" lon="4.36188">
        <ele>234.241211</ele>
        <time>2012-02-05T09:27:52Z</time>
      </trkpt>
      <trkpt lat="44.5706" lon="4.36179">
        <ele>235.39119</ele>
        <time>2012-02-05T09:27:59Z</time>
      </trkpt>
      <trkpt lat="44.57072" lon="4.3617">
        <ele>236.399231</ele>
        <time>2012-02-05T09:28:07Z</time>
      </trkpt>
      <trkpt lat="44.5708" lon="4.36165">
        <ele>237.11113</ele>
        <time>2012-02-05T09:28:14Z</time>
      </trkpt>
      <trkpt lat="44.57088" lon="4.36159">
        <ele>237.883621</ele>
        <time>2012-02-05T09:28:21Z</time>
      </trkpt>
      <trkpt lat="44.57093" lon="4.36155">
        <ele>238.445892</ele>
        <time>2012-02-05T09:28:27Z</time>
      </trkpt>
      <trkpt lat="44.57094" lon="4.36154">
        <ele>238.579819</ele>
        <time>2012-02-05T09:28:36Z</time>
      </trkpt>
      <trkpt lat="44.57096" lon="4.36153">
        <ele>238.78688</ele>
        <time>2012-02-05T09:28:44Z</time>
      </trkpt>
      <trkpt lat="44.57097" lon="4.36153">
        <ele>238.780411</ele>
        <time>2012-02-05T09:28:52Z</time>
      </trkpt>
      <trkpt lat="44.57097" lon="4.36153">
        <ele>238.781281</ele>
        <time>2012-02-05T09:29:03Z</time>
      </trkpt>
      <trkpt lat="44.57099" lon="4.36151">
        <ele>238.973785</ele>
        <time>2012-02-05T09:29:29Z</time>
      </trkpt>
      <trkpt lat="44.57118" lon="4.36143">
        <ele>237.706604</ele>
        <time>2012-02-05T09:29:37Z</time>
      </trkpt>
      <trkpt lat="44.57131" lon="4.36138">
        <ele>237.039627</ele>
        <time>2012-02-05T09:29:42Z</time>
      </trkpt>
      <trkpt lat="44.57144" lon="4.36126">
        <ele>237.331696</ele>
        <time>2012-02-05T09:29:48Z</time>
      </trkpt>
      <trkpt lat="44.57152" lon="4.36116">
        <ele>239.091675</ele>
        <time>2012-02-05T09:29:54Z</time>
      </trkpt>
      <trkpt lat="44.57161" lon="4.361">
        <ele>240.712585</ele>
        <time>2012-02-05T09:30:01Z</time>
      </trkpt>
      <trkpt lat="44.57164" lon="4.36096">
        <ele>241.13446</ele>
        <time>2012-02-05T09:30:03Z</time>
      </trkpt>
      <trkpt lat="44.57174" lon="4.36099">
        <ele>241.524811</ele>
        <time>2012-02-05T09:30:08Z</time>
      </trkpt>
      <trkpt lat="44.57179" lon="4.36104">
        <ele>241.358948</ele>
        <time>2012-02-05T09:30:11Z</time>
      </trkpt>
      <trkpt lat="44.57185" lon="4.3612">
        <ele>240.669495</ele>
        <time>2012-02-05T09:30:18Z</time>
      </trkpt>
      <trkpt lat="44.57186" lon="4.36124">
        <ele>240.666</ele>
        <time>2012-02-05T09:30:23Z</time>
      </trkpt>
      <trkpt lat="44.57185" lon="4.36123">
        <ele>240.643204</ele>
        <time>2012-02-05T09:30:28Z</time>
      </trkpt>
      <trkpt lat="44.57185" lon="4.36124">
        <ele>240.590607</ele>
        <time>2012-02-05T09:30:33Z</time>
      </trkpt>
      <trkpt lat="44.57186" lon="4.36127">
        <ele>240.59375</ele>
        <time>2012-02-05T09:30:35Z</time>
      </trkpt>
      <trkpt lat="44.57194" lon="4.36131">
        <ele>240.531616</ele>
        <time>2012-02-05T09:30:40Z</time>
      </trkpt>
      <trkpt lat="44.57205" lon="4.36126">
        <ele>240.503967</ele>
        <time>2012-02-05T09:30:46Z</time>
      </trkpt>
      <trkpt lat="44.57217" lon="4.36114">
        <ele>241.933609</ele>
        <time>2012-02-05T09:30:54Z</time>
      </trkpt>
      <trkpt lat="44.57223" lon="4.36104">
        <ele>244.049026</ele>
        <time>2012-02-05T09:31:00Z</time>
      </trkpt>
      <trkpt lat="44.57225" lon="4.36094">
        <ele>246.10878</ele>
        <time>2012-02-05T09:31:05Z</time>
      </trkpt>
      <trkpt lat="44.57227" lon="4.36089">
        <ele>247.212952</ele>
        <time>2012-02-05T09:31:12Z</time>
      </trkpt>
      <trkpt lat="44.57232" lon="4.36078">
        <ele>250.252594</ele>
        <time>2012-02-05T09:31:25Z</time>
      </trkpt>
      <trkpt lat="44.57233" lon="4.36072">
        <ele>251.729645</ele>
        <time>2012-02-05T09:31:32Z</time>
      </trkpt>
      <trkpt lat="44.57235" lon="4.36064">
        <ele>253.633774</ele>
        <time>2012-02-05T09:31:41Z</time>
      </trkpt>
      <trkpt lat="44.57237" lon="4.36058">
        <ele>255.081802</ele>
        <time>2012-02-05T09:31:49Z</time>
      </trkpt>
      <trkpt lat="44.5724" lon="4.36047">
        <ele>256.740845</ele>
        <time>2012-02-05T09:32:00Z</time>
      </trkpt>
      <trkpt lat="44.57244" lon="4.36036">
        <ele>258.174103</ele>
        <time>2012-02-05T09:32:12Z</time>
      </trkpt>
      <trkpt lat="44.57247" lon="4.36029">
        <ele>259.179474</ele>
        <time>2012-02-05T09:32:21Z</time>
      </trkpt>
      <trkpt lat="44.5725" lon="4.36023">
        <ele>260</ele>
        <time>2012-02-05T09:32:28Z</time>
      </trkpt>
      <trkpt lat="44.57252" lon="4.36014">
        <ele>261.286194</ele>
        <time>2012-02-05T09:32:38Z</time>
      </trkpt>
      <trkpt lat="44.57249" lon="4.36004">
        <ele>262.5755</ele>
        <time>2012-02-05T09:32:48Z</time>
      </trkpt>
      <trkpt lat="44.57248" lon="4.35997">
        <ele>263.535492</ele>
        <time>2012-02-05T09:32:55Z</time>
      </trkpt>
      <trkpt lat="44.57253" lon="4.3599">
        <ele>264.265625</ele>
        <time>2012-02-05T09:33:03Z</time>
      </trkpt>
      <trkpt lat="44.57259" lon="4.35987">
        <ele>264.256256</ele>
        <time>2012-02-05T09:33:11Z</time>
      </trkpt>
      <trkpt lat="44.5726" lon="4.35986">
        <ele>264.231659</ele>
        <time>2012-02-05T09:33:16Z</time>
      </trkpt>
      <trkpt lat="44.57259" lon="4.35986">
        <ele>264.243317</ele>
        <time>2012-02-05T09:33:37Z</time>
      </trkpt>
      <trkpt lat="44.57262" lon="4.35985">
        <ele>264.287659</ele>
        <time>2012-02-05T09:33:45Z</time>
      </trkpt>
      <trkpt lat="44.57265" lon="4.35985">
        <ele>264.344788</ele>
        <time>2012-02-05T09:33:52Z</time>
      </trkpt>
      <trkpt lat="44.57265" lon="4.35984">
        <ele>264.328186</ele>
        <time>2012-02-05T09:34:00Z</time>
      </trkpt>
      <trkpt lat="44.57268" lon="4.35984">
        <ele>264.411957</ele>
        <time>2012-02-05T09:34:07Z</time>
      </trkpt>
      <trkpt lat="44.57269" lon="4.35983">
        <ele>264.424469</ele>
        <time>2012-02-05T09:34:08Z</time>
      </trkpt>
      <trkpt lat="44.57276" lon="4.3598">
        <ele>264.617218</ele>
        <time>2012-02-05T09:34:15Z</time>
      </trkpt>
      <trkpt lat="44.57276" lon="4.3598">
        <ele>264.607391</ele>
        <time>2012-02-05T09:34:28Z</time>
      </trkpt>
      <trkpt lat="44.57276" lon="4.35979">
        <ele>264.551636</ele>
        <time>2012-02-05T09:34:46Z</time>
      </trkpt>
      <trkpt lat="44.57276" lon="4.35979">
        <ele>264.556244</ele>
        <time>2012-02-05T09:34:57Z</time>
      </trkpt>
      <trkpt lat="44.57276" lon="4.35981">
        <ele>264.621796</ele>
        <time>2012-02-05T09:35:09Z</time>
      </trkpt>
      <trkpt lat="44.57276" lon="4.3598">
        <ele>264.615448</ele>
        <time>2012-02-05T09:35:18Z</time>
      </trkpt>
      <trkpt lat="44.5728" lon="4.35978">
        <ele>264.695129</ele>
        <time>2012-02-05T09:35:23Z</time>
      </trkpt>
      <trkpt lat="44.57287" lon="4.35971">
        <ele>264.396332</ele>
        <time>2012-02-05T09:35:28Z</time>
      </trkpt>
      <trkpt lat="44.57296" lon="4.35957">
        <ele>264.08252</ele>
        <time>2012-02-05T09:35:34Z</time>
      </trkpt>
      <trkpt lat="44.57305" lon="4.35947">
        <ele>264.096405</ele>
        <time>2012-02-05T09:35:40Z</time>
      </trkpt>
      <trkpt lat="44.57315" lon="4.35937">
        <ele>264.463745</ele>
        <time>2012-02-05T09:35:45Z</time>
      </trkpt>
      <trkpt lat="44.5733" lon="4.35923">
        <ele>264.546204</ele>
        <time>2012-02-05T09:35:51Z</time>
      </trkpt>
      <trkpt lat="44.57332" lon="4.35918">
        <ele>264.29776</ele>
        <time>2012-02-05T09:35:53Z</time>
      </trkpt>
      <trkpt lat="44.57344" lon="4.35909">
        <ele>264.110565</ele>
        <time>2012-02-05T09:35:59Z</time>
      </trkpt>
      <trkpt lat="44.5735" lon="4.35905">
        <ele>264.216095</ele>
        <time>2012-02-05T09:36:04Z</time>
      </trkpt>
      <trkpt lat="44.57357" lon="4.35903">
        <ele>264.425842</ele>
        <time>2012-02-05T09:36:11Z</time>
      </trkpt>
      <trkpt lat="44.57365" lon="4.35905">
        <ele>264.55365</ele>
        <time>2012-02-05T09:36:15Z</time>
      </trkpt>
      <trkpt lat="44.57376" lon="4.35897">
        <ele>265.112701</ele>
        <time>2012-02-05T09:36:20Z</time>
      </trkpt>
      <trkpt lat="44.57391" lon="4.35888">
        <ele>265.190155</ele>
        <time>2012-02-05T09:36:26Z</time>
      </trkpt>
      <trkpt lat="44.57397" lon="4.3588">
        <ele>265.673279</ele>
        <time>2012-02-05T09:36:30Z</time>
      </trkpt>
      <trkpt lat="44.57404" lon="4.35872">
        <ele>266.198517</ele>
        <time>2012-02-05T09:36:36Z</time>
      </trkpt>
      <trkpt lat="44.57405" lon="4.35872">
        <ele>266.259338</ele>
        <time>2012-02-05T09:36:46Z</time>
      </trkpt>
      <trkpt lat="44.57404" lon="4.35872">
        <ele>266.206116</ele>
        <time>2012-02-05T09:37:00Z</time>
      </trkpt>
      <trkpt lat="44.57408" lon="4.3587">
        <ele>266.378387</ele>
        <time>2012-02-05T09:37:07Z</time>
      </trkpt>
      <trkpt lat="44.57421" lon="4.35862">
        <ele>267.301392</ele>
        <time>2012-02-05T09:37:13Z</time>
      </trkpt>
      <trkpt lat="44.57431" lon="4.35851">
        <ele>268.486328</ele>
        <time>2012-02-05T09:37:19Z</time>
      </trkpt>
      <trkpt lat="44.57437" lon="4.35847">
        <ele>268.833527</ele>
        <time>2012-02-05T09:37:23Z</time>
      </trkpt>
      <trkpt lat="44.57447" lon="4.35851">
        <ele>267.820099</ele>
        <time>2012-02-05T09:37:28Z</time>
      </trkpt>
      <trkpt lat="44.5746" lon="4.35855">
        <ele>266.580872</ele>
        <time>2012-02-05T09:37:32Z</time>
      </trkpt>
      <trkpt lat="44.57479" lon="4.35856">
        <ele>263.573029</ele>
        <time>2012-02-05T09:37:38Z</time>
      </trkpt>
      <trkpt lat="44.5749" lon="4.35862">
        <ele>260.68866</ele>
        <time>2012-02-05T09:37:43Z</time>
      </trkpt>
      <trkpt lat="44.575" lon="4.35871">
        <ele>257.683014</ele>
        <time>2012-02-05T09:37:49Z</time>
      </trkpt>
      <trkpt lat="44.57513" lon="4.35878">
        <ele>254.093506</ele>
        <time>2012-02-05T09:37:54Z</time>
      </trkpt>
      <trkpt lat="44.57522" lon="4.35883">
        <ele>250.730804</ele>
        <time>2012-02-05T09:37:59Z</time>
      </trkpt>
      <trkpt lat="44.57525" lon="4.35887">
        <ele>249.5289</ele>
        <time>2012-02-05T09:38:01Z</time>
      </trkpt>
      <trkpt lat="44.57537" lon="4.35897">
        <ele>245.315048</ele>
        <time>2012-02-05T09:38:08Z</time>
      </trkpt>
      <trkpt lat="44.57543" lon="4.35899">
        <ele>243.800751</ele>
        <time>2012-02-05T09:38:11Z</time>
      </trkpt>
      <trkpt lat="44.57551" lon="4.359">
        <ele>241.850006</ele>
        <time>2012-02-05T09:38:16Z</time>
      </trkpt>
      <trkpt lat="44.57557" lon="4.3589">
        <ele>243.407028</ele>
        <time>2012-02-05T09:38:20Z</time>
      </trkpt>
      <trkpt lat="44.57557" lon="4.35887">
        <ele>243.629379</ele>
        <time>2012-02-05T09:38:21Z</time>
      </trkpt>
      <trkpt lat="44.57558" lon="4.3588">
        <ele>244.392685</ele>
        <time>2012-02-05T09:38:24Z</time>
      </trkpt>
      <trkpt lat="44.57565" lon="4.3588">
        <ele>246.347229</ele>
        <time>2012-02-05T09:38:29Z</time>
      </trkpt>
      <trkpt lat="44.57569" lon="4.35886">
        <ele>247.323624</ele>
        <time>2012-02-05T09:38:33Z</time>
      </trkpt>
      <trkpt lat="44.57578" lon="4.35907">
        <ele>247.823944</ele>
        <time>2012-02-05T09:38:42Z</time>
      </trkpt>
      <trkpt lat="44.57586" lon="4.35917">
        <ele>248.613251</ele>
        <time>2012-02-05T09:38:48Z</time>
      </trkpt>
      <trkpt lat="44.57597" lon="4.35925">
        <ele>250.235611</ele>
        <time>2012-02-05T09:38:56Z</time>
      </trkpt>
      <trkpt lat="44.57609" lon="4.35931">
        <ele>252.168808</ele>
        <time>2012-02-05T09:39:05Z</time>
      </trkpt>
      <trkpt lat="44.5762" lon="4.35933">
        <ele>254.161957</ele>
        <time>2012-02-05T09:39:13Z</time>
      </trkpt>
      <trkpt lat="44.57629" lon="4.35934">
        <ele>256.030273</ele>
        <time>2012-02-05T09:39:19Z</time>
      </trkpt>
      <trkpt lat="44.57644" lon="4.35936">
        <ele>258.416046</ele>
        <time>2012-02-05T09:39:29Z</time>
      </trkpt>
      <trkpt lat="44.57656" lon="4.35937">
        <ele>258.866882</ele>
        <time>2012-02-05T09:39:38Z</time>
      </trkpt>
      <trkpt lat="44.57667" lon="4.35936">
        <ele>259.664612</ele>
        <time>2012-02-05T09:39:46Z</time>
      </trkpt>
      <trkpt lat="44.57676" lon="4.35935">
        <ele>260.385284</ele>
        <time>2012-02-05T09:39:53Z</time>
      </trkpt>
      <trkpt lat="44.57684" lon="4.35928">
        <ele>262.319458</ele>
        <time>2012-02-05T09:39:59Z</time>
      </trkpt>
      <trkpt lat="44.57682" lon="4.35924">
        <ele>263.190063</ele>
        <time>2012-02-05T09:40:03Z</time>
      </trkpt>
      <trkpt lat="44.57672" lon="4.3592">
        <ele>263.533051</ele>
        <time>2012-02-05T09:40:11Z</time>
      </trkpt>
      <trkpt lat="44.5766" lon="4.35912">
        <ele>264.416534</ele>
        <time>2012-02-05T09:40:21Z</time>
      </trkpt>
      <trkpt lat="44.57648" lon="4.35903">
        <ele>265.584381</ele>
        <time>2012-02-05T09:40:31Z</time>
      </trkpt>
      <trkpt lat="44.5764" lon="4.35893">
        <ele>266.450592</ele>
        <time>2012-02-05T09:40:40Z</time>
      </trkpt>
      <trkpt lat="44.5763" lon="4.35881">
        <ele>266.122406</ele>
        <time>2012-02-05T09:40:50Z</time>
      </trkpt>
      <trkpt lat="44.57626" lon="4.3587">
        <ele>266.761169</ele>
        <time>2012-02-05T09:40:58Z</time>
      </trkpt>
      <trkpt lat="44.5762" lon="4.35859">
        <ele>266.630768</ele>
        <time>2012-02-05T09:41:05Z</time>
      </trkpt>
      <trkpt lat="44.57613" lon="4.35844">
        <ele>266.708557</ele>
        <time>2012-02-05T09:41:14Z</time>
      </trkpt>
      <trkpt lat="44.57611" lon="4.35831">
        <ele>267.73822</ele>
        <time>2012-02-05T09:41:21Z</time>
      </trkpt>
      <trkpt lat="44.57611" lon="4.35813">
        <ele>269.934357</ele>
        <time>2012-02-05T09:41:29Z</time>
      </trkpt>
      <trkpt lat="44.57612" lon="4.35798">
        <ele>270.976746</ele>
        <time>2012-02-05T09:41:36Z</time>
      </trkpt>
      <trkpt lat="44.57617" lon="4.35782">
        <ele>273.667023</ele>
        <time>2012-02-05T09:41:44Z</time>
      </trkpt>
      <trkpt lat="44.57621" lon="4.35769">
        <ele>276.592712</ele>
        <time>2012-02-05T09:41:51Z</time>
      </trkpt>
      <trkpt lat="44.57628" lon="4.35755">
        <ele>280.714874</ele>
        <time>2012-02-05T09:41:59Z</time>
      </trkpt>
      <trkpt lat="44.57635" lon="4.35744">
        <ele>282.778809</ele>
        <time>2012-02-05T09:42:06Z</time>
      </trkpt>
      <trkpt lat="44.57641" lon="4.35732">
        <ele>284.167145</ele>
        <time>2012-02-05T09:42:13Z</time>
      </trkpt>
      <trkpt lat="44.57648" lon="4.35722">
        <ele>286.157227</ele>
        <time>2012-02-05T09:42:20Z</time>
      </trkpt>
      <trkpt lat="44.57657" lon="4.35708">
        <ele>287.225555</ele>
        <time>2012-02-05T09:42:29Z</time>
      </trkpt>
      <trkpt lat="44.57667" lon="4.35694">
        <ele>289.260254</ele>
        <time>2012-02-05T09:42:38Z</time>
      </trkpt>
      <trkpt lat="44.57668" lon="4.3569">
        <ele>289.310883</ele>
        <time>2012-02-05T09:42:44Z</time>
      </trkpt>
      <trkpt lat="44.57667" lon="4.3569">
        <ele>288.979523</ele>
        <time>2012-02-05T09:42:49Z</time>
      </trkpt>
      <trkpt lat="44.57667" lon="4.35692">
        <ele>289.379456</ele>
        <time>2012-02-05T09:42:55Z</time>
      </trkpt>
      <trkpt lat="44.57668" lon="4.35692">
        <ele>289.656342</ele>
        <time>2012-02-05T09:43:03Z</time>
      </trkpt>
      <trkpt lat="44.57668" lon="4.35691">
        <ele>289.562805</ele>
        <time>2012-02-05T09:43:10Z</time>
      </trkpt>
      <trkpt lat="44.57667" lon="4.35693">
        <ele>289.53891</ele>
        <time>2012-02-05T09:43:15Z</time>
      </trkpt>
      <trkpt lat="44.5767" lon="4.35693">
        <ele>290.343506</ele>
        <time>2012-02-05T09:43:22Z</time>
      </trkpt>
      <trkpt lat="44.5767" lon="4.35694">
        <ele>290.477112</ele>
        <time>2012-02-05T09:43:30Z</time>
      </trkpt>
      <trkpt lat="44.5767" lon="4.35694">
        <ele>290.513794</ele>
        <time>2012-02-05T09:43:40Z</time>
      </trkpt>
      <trkpt lat="44.57668" lon="4.35692">
        <ele>289.678253</ele>
        <time>2012-02-05T09:43:47Z</time>
      </trkpt>
      <trkpt lat="44.57667" lon="4.35693">
        <ele>289.509735</ele>
        <time>2012-02-05T09:43:51Z</time>
      </trkpt>
      <trkpt lat="44.57668" lon="4.35691">
        <ele>289.372864</ele>
        <time>2012-02-05T09:43:56Z</time>
      </trkpt>
      <trkpt lat="44.57668" lon="4.3569">
        <ele>289.079193</ele>
        <time>2012-02-05T09:44:02Z</time>
      </trkpt>
      <trkpt lat="44.57667" lon="4.35692">
        <ele>289.340546</ele>
        <time>2012-02-05T09:44:07Z</time>
      </trkpt>
      <trkpt lat="44.57667" lon="4.35693">
        <ele>289.270691</ele>
        <time>2012-02-05T09:44:12Z</time>
      </trkpt>
      <trkpt lat="44.57666" lon="4.35693">
        <ele>288.957794</ele>
        <time>2012-02-05T09:44:16Z</time>
      </trkpt>
      <trkpt lat="44.57667" lon="4.35694">
        <ele>289.228668</ele>
        <time>2012-02-05T09:44:24Z</time>
      </trkpt>
      <trkpt lat="44.57665" lon="4.35693">
        <ele>288.665283</ele>
        <time>2012-02-05T09:44:35Z</time>
      </trkpt>
      <trkpt lat="44.57662" lon="4.35692">
        <ele>287.163513</ele>
        <time>2012-02-05T09:48:29Z</time>
      </trkpt>
      <trkpt lat="44.57664" lon="4.35691">
        <ele>287.785583</ele>
        <time>2012-02-05T09:48:34Z</time>
      </trkpt>
      <trkpt lat="44.57665" lon="4.3569">
        <ele>287.841187</ele>
        <time>2012-02-05T09:48:40Z</time>
      </trkpt>
      <trkpt lat="44.57668" lon="4.35685">
        <ele>287.951813</ele>
        <time>2012-02-05T09:48:51Z</time>
      </trkpt>
      <trkpt lat="44.57673" lon="4.35675">
        <ele>287.721802</ele>
        <time>2012-02-05T09:48:58Z</time>
      </trkpt>
      <trkpt lat="44.57678" lon="4.35666">
        <ele>287.341492</ele>
        <time>2012-02-05T09:49:05Z</time>
      </trkpt>
      <trkpt lat="44.57687" lon="4.35651">
        <ele>287.251465</ele>
        <time>2012-02-05T09:49:16Z</time>
      </trkpt>
      <trkpt lat="44.57691" lon="4.35646">
        <ele>287.228485</ele>
        <time>2012-02-05T09:49:20Z</time>
      </trkpt>
      <trkpt lat="44.57695" lon="4.35638">
        <ele>286.571411</ele>
        <time>2012-02-05T09:49:28Z</time>
      </trkpt>
      <trkpt lat="44.57695" lon="4.35638">
        <ele>286.643127</ele>
        <time>2012-02-05T09:49:38Z</time>
      </trkpt>
      <trkpt lat="44.57695" lon="4.35636">
        <ele>286.176941</ele>
        <time>2012-02-05T09:49:57Z</time>
      </trkpt>
      <trkpt lat="44.57695" lon="4.35637">
        <ele>286.207428</ele>
        <time>2012-02-05T09:50:04Z</time>
      </trkpt>
      <trkpt lat="44.57695" lon="4.35637">
        <ele>286.437805</ele>
        <time>2012-02-05T09:50:27Z</time>
      </trkpt>
      <trkpt lat="44.57696" lon="4.35636">
        <ele>286.597992</ele>
        <time>2012-02-05T09:50:41Z</time>
      </trkpt>
      <trkpt lat="44.57704" lon="4.35625">
        <ele>286.126251</ele>
        <time>2012-02-05T09:50:46Z</time>
      </trkpt>
      <trkpt lat="44.57722" lon="4.35607">
        <ele>286.601532</ele>
        <time>2012-02-05T09:50:53Z</time>
      </trkpt>
      <trkpt lat="44.57743" lon="4.35592">
        <ele>287.998444</ele>
        <time>2012-02-05T09:51:00Z</time>
      </trkpt>
      <trkpt lat="44.5777" lon="4.35578">
        <ele>289.78714</ele>
        <time>2012-02-05T09:51:08Z</time>
      </trkpt>
      <trkpt lat="44.57795" lon="4.35557">
        <ele>290.024139</ele>
        <time>2012-02-05T09:51:16Z</time>
      </trkpt>
      <trkpt lat="44.57818" lon="4.35539">
        <ele>290.210754</ele>
        <time>2012-02-05T09:51:24Z</time>
      </trkpt>
      <trkpt lat="44.5784" lon="4.35531">
        <ele>292.167999</ele>
        <time>2012-02-05T09:51:32Z</time>
      </trkpt>
      <trkpt lat="44.5786" lon="4.35522">
        <ele>294.009399</ele>
        <time>2012-02-05T09:51:40Z</time>
      </trkpt>
      <trkpt lat="44.5787" lon="4.3551">
        <ele>294.236023</ele>
        <time>2012-02-05T09:51:45Z</time>
      </trkpt>
      <trkpt lat="44.57877" lon="4.35491">
        <ele>294.480011</ele>
        <time>2012-02-05T09:51:52Z</time>
      </trkpt>
      <trkpt lat="44.57881" lon="4.3548">
        <ele>294.869995</ele>
        <time>2012-02-05T09:51:57Z</time>
      </trkpt>
      <trkpt lat="44.57883" lon="4.35478">
        <ele>295.20874</ele>
        <time>2012-02-05T09:52:10Z</time>
      </trkpt>
      <trkpt lat="44.57884" lon="4.35477">
        <ele>295.272491</ele>
        <time>2012-02-05T09:52:11Z</time>
      </trkpt>
      <trkpt lat="44.57888" lon="4.35463">
        <ele>295.576263</ele>
        <time>2012-02-05T09:52:16Z</time>
      </trkpt>
      <trkpt lat="44.5789" lon="4.35434">
        <ele>294.951263</ele>
        <time>2012-02-05T09:52:23Z</time>
      </trkpt>
      <trkpt lat="44.57888" lon="4.35404">
        <ele>293.83374</ele>
        <time>2012-02-05T09:52:30Z</time>
      </trkpt>
      <trkpt lat="44.5789" lon="4.35381">
        <ele>293.948822</ele>
        <time>2012-02-05T09:52:36Z</time>
      </trkpt>
      <trkpt lat="44.57893" lon="4.35353">
        <ele>294.809418</ele>
        <time>2012-02-05T09:52:43Z</time>
      </trkpt>
      <trkpt lat="44.57895" lon="4.35315">
        <ele>295.450684</ele>
        <time>2012-02-05T09:52:52Z</time>
      </trkpt>
      <trkpt lat="44.57898" lon="4.35285">
        <ele>296.205078</ele>
        <time>2012-02-05T09:53:00Z</time>
      </trkpt>
      <trkpt lat="44.57905" lon="4.35254">
        <ele>297.077271</ele>
        <time>2012-02-05T09:53:09Z</time>
      </trkpt>
      <trkpt lat="44.57909" lon="4.35244">
        <ele>296.982513</ele>
        <time>2012-02-05T09:53:15Z</time>
      </trkpt>
      <trkpt lat="44.57916" lon="4.35232">
        <ele>296.689514</ele>
        <time>2012-02-05T09:53:22Z</time>
      </trkpt>
      <trkpt lat="44.57926" lon="4.35219">
        <ele>296.11499</ele>
        <time>2012-02-05T09:53:30Z</time>
      </trkpt>
      <trkpt lat="44.57939" lon="4.35204">
        <ele>295.5</ele>
        <time>2012-02-05T09:53:36Z</time>
      </trkpt>
      <trkpt lat="44.57947" lon="4.35191">
        <ele>294.923004</ele>
        <time>2012-02-05T09:53:42Z</time>
      </trkpt>
      <trkpt lat="44.57949" lon="4.35178">
        <ele>294.100769</ele>
        <time>2012-02-05T09:53:46Z</time>
      </trkpt>
      <trkpt lat="44.57957" lon="4.35175">
        <ele>293.977203</ele>
        <time>2012-02-05T09:53:51Z</time>
      </trkpt>
      <trkpt lat="44.57957" lon="4.35174">
        <ele>293.979828</ele>
        <time>2012-02-05T09:53:59Z</time>
      </trkpt>
      <trkpt lat="44.5796" lon="4.35174">
        <ele>293.983368</ele>
        <time>2012-02-05T09:54:02Z</time>
      </trkpt>
      <trkpt lat="44.57975" lon="4.3517">
        <ele>293.470856</ele>
        <time>2012-02-05T09:54:08Z</time>
      </trkpt>
      <trkpt lat="44.57996" lon="4.35168">
        <ele>291.526642</ele>
        <time>2012-02-05T09:54:16Z</time>
      </trkpt>
      <trkpt lat="44.57999" lon="4.35167">
        <ele>291.167603</ele>
        <time>2012-02-05T09:54:20Z</time>
      </trkpt>
      <trkpt lat="44.57997" lon="4.35167">
        <ele>291.319489</ele>
        <time>2012-02-05T09:56:19Z</time>
      </trkpt>
      <trkpt lat="44.58005" lon="4.35167">
        <ele>290.73526</ele>
        <time>2012-02-05T09:56:23Z</time>
      </trkpt>
      <trkpt lat="44.5802" lon="4.35169">
        <ele>289.262054</ele>
        <time>2012-02-05T09:56:27Z</time>
      </trkpt>
      <trkpt lat="44.58022" lon="4.35169">
        <ele>288.918884</ele>
        <time>2012-02-05T09:56:30Z</time>
      </trkpt>
      <trkpt lat="44.58022" lon="4.3517">
        <ele>288.940887</ele>
        <time>2012-02-05T09:56:43Z</time>
      </trkpt>
      <trkpt lat="44.58023" lon="4.35169">
        <ele>288.786499</ele>
        <time>2012-02-05T09:56:56Z</time>
      </trkpt>
      <trkpt lat="44.58035" lon="4.35168">
        <ele>286.52121</ele>
        <time>2012-02-05T09:57:00Z</time>
      </trkpt>
      <trkpt lat="44.58052" lon="4.35164">
        <ele>283.288513</ele>
        <time>2012-02-05T09:57:05Z</time>
      </trkpt>
      <trkpt lat="44.58063" lon="4.3514">
        <ele>280.709625</ele>
        <time>2012-02-05T09:57:10Z</time>
      </trkpt>
      <trkpt lat="44.58067" lon="4.35127">
        <ele>279.809967</ele>
        <time>2012-02-05T09:57:12Z</time>
      </trkpt>
      <trkpt lat="44.58069" lon="4.35096">
        <ele>278.871521</ele>
        <time>2012-02-05T09:57:17Z</time>
      </trkpt>
      <trkpt lat="44.5807" lon="4.35084">
        <ele>278.510315</ele>
        <time>2012-02-05T09:57:19Z</time>
      </trkpt>
      <trkpt lat="44.58077" lon="4.35067">
        <ele>277.748352</ele>
        <time>2012-02-05T09:57:23Z</time>
      </trkpt>
      <trkpt lat="44.58088" lon="4.35052">
        <ele>277.066193</ele>
        <time>2012-02-05T09:57:29Z</time>
      </trkpt>
      <trkpt lat="44.58084" lon="4.35048">
        <ele>277.306732</ele>
        <time>2012-02-05T09:57:35Z</time>
      </trkpt>
      <trkpt lat="44.58082" lon="4.35036">
        <ele>277.515472</ele>
        <time>2012-02-05T09:57:39Z</time>
      </trkpt>
      <trkpt lat="44.58079" lon="4.3502">
        <ele>277.651642</ele>
        <time>2012-02-05T09:57:44Z</time>
      </trkpt>
      <trkpt lat="44.58071" lon="4.35004">
        <ele>278.057922</ele>
        <time>2012-02-05T09:57:51Z</time>
      </trkpt>
      <trkpt lat="44.58066" lon="4.34997">
        <ele>278.23703</ele>
        <time>2012-02-05T09:57:54Z</time>
      </trkpt>
      <trkpt lat="44.58056" lon="4.34998">
        <ele>278.886383</ele>
        <time>2012-02-05T09:57:59Z</time>
      </trkpt>
      <trkpt lat="44.58042" lon="4.35002">
        <ele>279.935852</ele>
        <time>2012-02-05T09:58:06Z</time>
      </trkpt>
      <trkpt lat="44.58031" lon="4.35">
        <ele>280.875427</ele>
        <time>2012-02-05T09:58:13Z</time>
      </trkpt>
      <trkpt lat="44.58016" lon="4.34999">
        <ele>282.082367</ele>
        <time>2012-02-05T09:58:21Z</time>
      </trkpt>
      <trkpt lat="44.58001" lon="4.35">
        <ele>283.459137</ele>
        <time>2012-02-05T09:58:29Z</time>
      </trkpt>
      <trkpt lat="44.57989" lon="4.35002">
        <ele>284.653687</ele>
        <time>2012-02-05T09:58:36Z</time>
      </trkpt>
      <trkpt lat="44.57976" lon="4.35004">
        <ele>285.805359</ele>
        <time>2012-02-05T09:58:43Z</time>
      </trkpt>
      <trkpt lat="44.57964" lon="4.35006">
        <ele>287.321045</ele>
        <time>2012-02-05T09:58:51Z</time>
      </trkpt>
      <trkpt lat="44.57956" lon="4.35005">
        <ele>288.475067</ele>
        <time>2012-02-05T09:58:58Z</time>
      </trkpt>
      <trkpt lat="44.57946" lon="4.35005">
        <ele>289.767273</ele>
        <time>2012-02-05T09:59:06Z</time>
      </trkpt>
      <trkpt lat="44.57934" lon="4.35005">
        <ele>291.378235</ele>
        <time>2012-02-05T09:59:16Z</time>
      </trkpt>
      <trkpt lat="44.57924" lon="4.35005">
        <ele>292.690765</ele>
        <time>2012-02-05T09:59:25Z</time>
      </trkpt>
      <trkpt lat="44.57916" lon="4.35004">
        <ele>293.880676</ele>
        <time>2012-02-05T09:59:34Z</time>
      </trkpt>
      <trkpt lat="44.5791" lon="4.35003">
        <ele>294.643463</ele>
        <time>2012-02-05T09:59:40Z</time>
      </trkpt>
      <trkpt lat="44.5791" lon="4.35007">
        <ele>294.492645</ele>
        <time>2012-02-05T09:59:45Z</time>
      </trkpt>
      <trkpt lat="44.5791" lon="4.35006">
        <ele>294.561707</ele>
        <time>2012-02-05T09:59:54Z</time>
      </trkpt>
      <trkpt lat="44.5791" lon="4.34999">
        <ele>294.688629</ele>
        <time>2012-02-05T10:00:21Z</time>
      </trkpt>
      <trkpt lat="44.57909" lon="4.34999">
        <ele>294.838837</ele>
        <time>2012-02-05T10:00:22Z</time>
      </trkpt>
      <trkpt lat="44.57901" lon="4.35004">
        <ele>295.839355</ele>
        <time>2012-02-05T10:00:28Z</time>
      </trkpt>
      <trkpt lat="44.57896" lon="4.35006">
        <ele>296.416809</ele>
        <time>2012-02-05T10:00:31Z</time>
      </trkpt>
      <trkpt lat="44.57882" lon="4.35007">
        <ele>298.11557</ele>
        <time>2012-02-05T10:00:38Z</time>
      </trkpt>
      <trkpt lat="44.57869" lon="4.35014">
        <ele>298.599487</ele>
        <time>2012-02-05T10:00:45Z</time>
      </trkpt>
      <trkpt lat="44.57857" lon="4.35025">
        <ele>298.735748</ele>
        <time>2012-02-05T10:00:51Z</time>
      </trkpt>
      <trkpt lat="44.5784" lon="4.35037">
        <ele>298.9375</ele>
        <time>2012-02-05T10:01:00Z</time>
      </trkpt>
      <trkpt lat="44.57826" lon="4.35047">
        <ele>298.894989</ele>
        <time>2012-02-05T10:01:08Z</time>
      </trkpt>
      <trkpt lat="44.57815" lon="4.35054">
        <ele>298.880005</ele>
        <time>2012-02-05T10:01:16Z</time>
      </trkpt>
      <trkpt lat="44.57799" lon="4.35062">
        <ele>299.054993</ele>
        <time>2012-02-05T10:01:25Z</time>
      </trkpt>
      <trkpt lat="44.57784" lon="4.35066">
        <ele>299.649994</ele>
        <time>2012-02-05T10:01:33Z</time>
      </trkpt>
      <trkpt lat="44.57769" lon="4.3507">
        <ele>300.394073</ele>
        <time>2012-02-05T10:01:40Z</time>
      </trkpt>
      <trkpt lat="44.57751" lon="4.35082">
        <ele>301.020386</ele>
        <time>2012-02-05T10:01:49Z</time>
      </trkpt>
      <trkpt lat="44.57737" lon="4.35089">
        <ele>301.1315</ele>
        <time>2012-02-05T10:01:58Z</time>
      </trkpt>
      <trkpt lat="44.57726" lon="4.35097">
        <ele>300.930573</ele>
        <time>2012-02-05T10:02:05Z</time>
      </trkpt>
      <trkpt lat="44.57711" lon="4.35108">
        <ele>300.429504</ele>
        <time>2012-02-05T10:02:13Z</time>
      </trkpt>
      <trkpt lat="44.577" lon="4.35114">
        <ele>299.927765</ele>
        <time>2012-02-05T10:02:21Z</time>
      </trkpt>
      <trkpt lat="44.57699" lon="4.35114">
        <ele>299.77301</ele>
        <time>2012-02-05T10:02:27Z</time>
      </trkpt>
      <trkpt lat="44.57697" lon="4.35116">
        <ele>299.544098</ele>
        <time>2012-02-05T10:02:38Z</time>
      </trkpt>
      <trkpt lat="44.57693" lon="4.35116">
        <ele>299.243835</ele>
        <time>2012-02-05T10:02:46Z</time>
      </trkpt>
      <trkpt lat="44.57692" lon="4.35117">
        <ele>299.074402</ele>
        <time>2012-02-05T10:02:53Z</time>
      </trkpt>
      <trkpt lat="44.57688" lon="4.35115">
        <ele>299.039856</ele>
        <time>2012-02-05T10:03:00Z</time>
      </trkpt>
      <trkpt lat="44.57686" lon="4.35112">
        <ele>299.191956</ele>
        <time>2012-02-05T10:03:06Z</time>
      </trkpt>
      <trkpt lat="44.57686" lon="4.3511">
        <ele>299.330322</ele>
        <time>2012-02-05T10:03:21Z</time>
      </trkpt>
      <trkpt lat="44.57685" lon="4.3511">
        <ele>299.340302</ele>
        <time>2012-02-05T10:03:31Z</time>
      </trkpt>
      <trkpt lat="44.57686" lon="4.35111">
        <ele>299.280212</ele>
        <time>2012-02-05T10:03:40Z</time>
      </trkpt>
      <trkpt lat="44.57686" lon="4.35107">
        <ele>299.669403</ele>
        <time>2012-02-05T10:03:51Z</time>
      </trkpt>
      <trkpt lat="44.57683" lon="4.35096">
        <ele>300.507507</ele>
        <time>2012-02-05T10:03:56Z</time>
      </trkpt>
      <trkpt lat="44.5768" lon="4.35084">
        <ele>301.524963</ele>
        <time>2012-02-05T10:04:01Z</time>
      </trkpt>
      <trkpt lat="44.57679" lon="4.35083">
        <ele>301.564606</ele>
        <time>2012-02-05T10:04:02Z</time>
      </trkpt>
      <trkpt lat="44.57665" lon="4.35076">
        <ele>301.734528</ele>
        <time>2012-02-05T10:04:09Z</time>
      </trkpt>
      <trkpt lat="44.57651" lon="4.3507">
        <ele>302.088135</ele>
        <time>2012-02-05T10:04:15Z</time>
      </trkpt>
      <trkpt lat="44.57643" lon="4.35064">
        <ele>302.644562</ele>
        <time>2012-02-05T10:04:21Z</time>
      </trkpt>
      <trkpt lat="44.57633" lon="4.3506">
        <ele>303.106689</ele>
        <time>2012-02-05T10:04:27Z</time>
      </trkpt>
      <trkpt lat="44.57619" lon="4.35061">
        <ele>303</ele>
        <time>2012-02-05T10:04:33Z</time>
      </trkpt>
      <trkpt lat="44.57599" lon="4.35064">
        <ele>302.824585</ele>
        <time>2012-02-05T10:04:41Z</time>
      </trkpt>
      <trkpt lat="44.57591" lon="4.35065">
        <ele>302.82489</ele>
        <time>2012-02-05T10:04:46Z</time>
      </trkpt>
      <trkpt lat="44.57588" lon="4.35067">
        <ele>302.702301</ele>
        <time>2012-02-05T10:04:48Z</time>
      </trkpt>
      <trkpt lat="44.5758" lon="4.35069">
        <ele>302.650421</ele>
        <time>2012-02-05T10:04:54Z</time>
      </trkpt>
      <trkpt lat="44.57577" lon="4.35071">
        <ele>302.513336</ele>
        <time>2012-02-05T10:04:56Z</time>
      </trkpt>
      <trkpt lat="44.57573" lon="4.35077">
        <ele>302.094604</ele>
        <time>2012-02-05T10:05:03Z</time>
      </trkpt>
      <trkpt lat="44.57568" lon="4.35081">
        <ele>301.877075</ele>
        <time>2012-02-05T10:05:10Z</time>
      </trkpt>
      <trkpt lat="44.57567" lon="4.35081">
        <ele>301.932037</ele>
        <time>2012-02-05T10:05:15Z</time>
      </trkpt>
      <trkpt lat="44.57566" lon="4.3508">
        <ele>302.107819</ele>
        <time>2012-02-05T10:05:26Z</time>
      </trkpt>
      <trkpt lat="44.57565" lon="4.35078">
        <ele>302.417206</ele>
        <time>2012-02-05T10:05:28Z</time>
      </trkpt>
      <trkpt lat="44.57556" lon="4.35069">
        <ele>304.122101</ele>
        <time>2012-02-05T10:05:35Z</time>
      </trkpt>
      <trkpt lat="44.57552" lon="4.35059">
        <ele>305.390656</ele>
        <time>2012-02-05T10:05:41Z</time>
      </trkpt>
      <trkpt lat="44.57553" lon="4.35045">
        <ele>306.742493</ele>
        <time>2012-02-05T10:05:49Z</time>
      </trkpt>
      <trkpt lat="44.57555" lon="4.35031">
        <ele>308.055176</ele>
        <time>2012-02-05T10:05:56Z</time>
      </trkpt>
      <trkpt lat="44.57556" lon="4.35009">
        <ele>310.247864</ele>
        <time>2012-02-05T10:06:06Z</time>
      </trkpt>
      <trkpt lat="44.57557" lon="4.34988">
        <ele>312.241913</ele>
        <time>2012-02-05T10:06:15Z</time>
      </trkpt>
      <trkpt lat="44.57559" lon="4.34968">
        <ele>314.025482</ele>
        <time>2012-02-05T10:06:22Z</time>
      </trkpt>
      <trkpt lat="44.57566" lon="4.34952">
        <ele>315.332672</ele>
        <time>2012-02-05T10:06:30Z</time>
      </trkpt>
      <trkpt lat="44.57575" lon="4.34936">
        <ele>316.505096</ele>
        <time>2012-02-05T10:06:38Z</time>
      </trkpt>
      <trkpt lat="44.57587" lon="4.34923">
        <ele>316.979309</ele>
        <time>2012-02-05T10:06:46Z</time>
      </trkpt>
      <trkpt lat="44.57599" lon="4.34911">
        <ele>317.482666</ele>
        <time>2012-02-05T10:06:54Z</time>
      </trkpt>
      <trkpt lat="44.57611" lon="4.34901">
        <ele>317.808105</ele>
        <time>2012-02-05T10:07:01Z</time>
      </trkpt>
      <trkpt lat="44.57622" lon="4.34894">
        <ele>318.151245</ele>
        <time>2012-02-05T10:07:08Z</time>
      </trkpt>
      <trkpt lat="44.57635" lon="4.34885">
        <ele>318.609985</ele>
        <time>2012-02-05T10:07:16Z</time>
      </trkpt>
      <trkpt lat="44.57647" lon="4.34876">
        <ele>319.04126</ele>
        <time>2012-02-05T10:07:24Z</time>
      </trkpt>
      <trkpt lat="44.5766" lon="4.34868">
        <ele>319.295013</ele>
        <time>2012-02-05T10:07:32Z</time>
      </trkpt>
      <trkpt lat="44.57669" lon="4.34861">
        <ele>319.442505</ele>
        <time>2012-02-05T10:07:37Z</time>
      </trkpt>
      <trkpt lat="44.57686" lon="4.34851">
        <ele>319.588745</ele>
        <time>2012-02-05T10:07:46Z</time>
      </trkpt>
      <trkpt lat="44.57707" lon="4.34846">
        <ele>319.402496</ele>
        <time>2012-02-05T10:07:55Z</time>
      </trkpt>
      <trkpt lat="44.57719" lon="4.34836">
        <ele>319.233765</ele>
        <time>2012-02-05T10:08:02Z</time>
      </trkpt>
      <trkpt lat="44.57724" lon="4.34825">
        <ele>319.583069</ele>
        <time>2012-02-05T10:08:09Z</time>
      </trkpt>
      <trkpt lat="44.57725" lon="4.34811">
        <ele>320.234894</ele>
        <time>2012-02-05T10:08:16Z</time>
      </trkpt>
      <trkpt lat="44.57709" lon="4.34794">
        <ele>320.685059</ele>
        <time>2012-02-05T10:08:24Z</time>
      </trkpt>
      <trkpt lat="44.57691" lon="4.34779">
        <ele>320.863739</ele>
        <time>2012-02-05T10:08:32Z</time>
      </trkpt>
      <trkpt lat="44.57672" lon="4.34768">
        <ele>321.122498</ele>
        <time>2012-02-05T10:08:39Z</time>
      </trkpt>
      <trkpt lat="44.57649" lon="4.34759">
        <ele>321.756714</ele>
        <time>2012-02-05T10:08:48Z</time>
      </trkpt>
      <trkpt lat="44.57634" lon="4.34759">
        <ele>322.369568</ele>
        <time>2012-02-05T10:08:54Z</time>
      </trkpt>
      <trkpt lat="44.57618" lon="4.34765">
        <ele>323.035828</ele>
        <time>2012-02-05T10:09:02Z</time>
      </trkpt>
      <trkpt lat="44.57605" lon="4.34762">
        <ele>323.738739</ele>
        <time>2012-02-05T10:09:08Z</time>
      </trkpt>
      <trkpt lat="44.5759" lon="4.34767">
        <ele>324.431244</ele>
        <time>2012-02-05T10:09:15Z</time>
      </trkpt>
      <trkpt lat="44.5758" lon="4.34764">
        <ele>325.014923</ele>
        <time>2012-02-05T10:09:21Z</time>
      </trkpt>
      <trkpt lat="44.57571" lon="4.34756">
        <ele>325.6922</ele>
        <time>2012-02-05T10:09:28Z</time>
      </trkpt>
      <trkpt lat="44.57565" lon="4.34749">
        <ele>326.067261</ele>
        <time>2012-02-05T10:09:34Z</time>
      </trkpt>
      <trkpt lat="44.57564" lon="4.34748">
        <ele>326.098083</ele>
        <time>2012-02-05T10:09:35Z</time>
      </trkpt>
      <trkpt lat="44.57564" lon="4.34748">
        <ele>326.108765</ele>
        <time>2012-02-05T10:09:44Z</time>
      </trkpt>
      <trkpt lat="44.57564" lon="4.34747">
        <ele>326.116028</ele>
        <time>2012-02-05T10:10:05Z</time>
      </trkpt>
      <trkpt lat="44.57564" lon="4.34748">
        <ele>326.119476</ele>
        <time>2012-02-05T10:10:18Z</time>
      </trkpt>
      <trkpt lat="44.57562" lon="4.34745">
        <ele>326.23172</ele>
        <time>2012-02-05T10:10:36Z</time>
      </trkpt>
      <trkpt lat="44.57562" lon="4.34745">
        <ele>326.225586</ele>
        <time>2012-02-05T10:10:45Z</time>
      </trkpt>
      <trkpt lat="44.57562" lon="4.34745">
        <ele>326.225952</ele>
        <time>2012-02-05T10:10:49Z</time>
      </trkpt>
      <trkpt lat="44.57558" lon="4.34742">
        <ele>326.340149</ele>
        <time>2012-02-05T10:10:53Z</time>
      </trkpt>
      <trkpt lat="44.5755" lon="4.34731">
        <ele>326.432007</ele>
        <time>2012-02-05T10:11:01Z</time>
      </trkpt>
      <trkpt lat="44.57546" lon="4.34722">
        <ele>326.413086</ele>
        <time>2012-02-05T10:11:05Z</time>
      </trkpt>
      <trkpt lat="44.57543" lon="4.34721">
        <ele>326.454254</ele>
        <time>2012-02-05T10:11:12Z</time>
      </trkpt>
      <trkpt lat="44.57541" lon="4.34725">
        <ele>326.527802</ele>
        <time>2012-02-05T10:11:22Z</time>
      </trkpt>
      <trkpt lat="44.5754" lon="4.34726">
        <ele>326.559418</ele>
        <time>2012-02-05T10:11:28Z</time>
      </trkpt>
      <trkpt lat="44.57539" lon="4.34729">
        <ele>326.610321</ele>
        <time>2012-02-05T10:11:35Z</time>
      </trkpt>
      <trkpt lat="44.57539" lon="4.34731">
        <ele>326.622894</ele>
        <time>2012-02-05T10:11:43Z</time>
      </trkpt>
      <trkpt lat="44.57541" lon="4.34733">
        <ele>326.623688</ele>
        <time>2012-02-05T10:12:01Z</time>
      </trkpt>
      <trkpt lat="44.57541" lon="4.34736">
        <ele>326.643677</ele>
        <time>2012-02-05T10:12:03Z</time>
      </trkpt>
      <trkpt lat="44.57539" lon="4.34745">
        <ele>326.735687</ele>
        <time>2012-02-05T10:12:10Z</time>
      </trkpt>
      <trkpt lat="44.57539" lon="4.34746">
        <ele>326.72052</ele>
        <time>2012-02-05T10:12:11Z</time>
      </trkpt>
      <trkpt lat="44.57531" lon="4.34753">
        <ele>326.779083</ele>
        <time>2012-02-05T10:12:17Z</time>
      </trkpt>
      <trkpt lat="44.5753" lon="4.34753">
        <ele>326.808777</ele>
        <time>2012-02-05T10:12:20Z</time>
      </trkpt>
      <trkpt lat="44.5753" lon="4.34753">
        <ele>326.792938</ele>
        <time>2012-02-05T10:12:27Z</time>
      </trkpt>
      <trkpt lat="44.5753" lon="4.34753">
        <ele>326.800385</ele>
        <time>2012-02-05T10:12:33Z</time>
      </trkpt>
      <trkpt lat="44.5753" lon="4.34755">
        <ele>326.762787</ele>
        <time>2012-02-05T10:12:40Z</time>
      </trkpt>
      <trkpt lat="44.57529" lon="4.34754">
        <ele>326.814117</ele>
        <time>2012-02-05T10:12:50Z</time>
      </trkpt>
      <trkpt lat="44.57529" lon="4.34755">
        <ele>326.80484</ele>
        <time>2012-02-05T10:12:55Z</time>
      </trkpt>
      <trkpt lat="44.57527" lon="4.34755">
        <ele>326.816406</ele>
        <time>2012-02-05T10:13:00Z</time>
      </trkpt>
      <trkpt lat="44.57527" lon="4.34756">
        <ele>326.792511</ele>
        <time>2012-02-05T10:13:05Z</time>
      </trkpt>
      <trkpt lat="44.57526" lon="4.34751">
        <ele>326.875458</ele>
        <time>2012-02-05T10:13:16Z</time>
      </trkpt>
      <trkpt lat="44.57526" lon="4.3475">
        <ele>326.884918</ele>
        <time>2012-02-05T10:13:24Z</time>
      </trkpt>
      <trkpt lat="44.57525" lon="4.3475">
        <ele>326.897064</ele>
        <time>2012-02-05T10:13:52Z</time>
      </trkpt>
      <trkpt lat="44.57525" lon="4.34752">
        <ele>326.868408</ele>
        <time>2012-02-05T10:13:57Z</time>
      </trkpt>
      <trkpt lat="44.57522" lon="4.34752">
        <ele>326.867462</ele>
        <time>2012-02-05T10:14:01Z</time>
      </trkpt>
      <trkpt lat="44.57521" lon="4.34759">
        <ele>326.782135</ele>
        <time>2012-02-05T10:14:05Z</time>
      </trkpt>
      <trkpt lat="44.57512" lon="4.34759">
        <ele>326.82901</ele>
        <time>2012-02-05T10:14:10Z</time>
      </trkpt>
      <trkpt lat="44.57502" lon="4.34762">
        <ele>326.870209</ele>
        <time>2012-02-05T10:14:16Z</time>
      </trkpt>
      <trkpt lat="44.57492" lon="4.34767">
        <ele>326.92099</ele>
        <time>2012-02-05T10:14:22Z</time>
      </trkpt>
      <trkpt lat="44.5748" lon="4.34774">
        <ele>326.841187</ele>
        <time>2012-02-05T10:14:30Z</time>
      </trkpt>
      <trkpt lat="44.57469" lon="4.3478">
        <ele>326.530334</ele>
        <time>2012-02-05T10:14:36Z</time>
      </trkpt>
      <trkpt lat="44.57459" lon="4.34785">
        <ele>326.365753</ele>
        <time>2012-02-05T10:14:42Z</time>
      </trkpt>
      <trkpt lat="44.57448" lon="4.34793">
        <ele>326.496246</ele>
        <time>2012-02-05T10:14:50Z</time>
      </trkpt>
      <trkpt lat="44.57441" lon="4.34795">
        <ele>326.551208</ele>
        <time>2012-02-05T10:14:56Z</time>
      </trkpt>
      <trkpt lat="44.57441" lon="4.34796">
        <ele>326.622345</ele>
        <time>2012-02-05T10:15:01Z</time>
      </trkpt>
      <trkpt lat="44.5744" lon="4.34797">
        <ele>326.666626</ele>
        <time>2012-02-05T10:15:11Z</time>
      </trkpt>
      <trkpt lat="44.57434" lon="4.34804">
        <ele>326.685028</ele>
        <time>2012-02-05T10:15:15Z</time>
      </trkpt>
      <trkpt lat="44.5742" lon="4.34819">
        <ele>325.470093</ele>
        <time>2012-02-05T10:15:22Z</time>
      </trkpt>
      <trkpt lat="44.57416" lon="4.34831">
        <ele>325.075104</ele>
        <time>2012-02-05T10:15:27Z</time>
      </trkpt>
      <trkpt lat="44.57406" lon="4.34842">
        <ele>324.538269</ele>
        <time>2012-02-05T10:15:32Z</time>
      </trkpt>
      <trkpt lat="44.57394" lon="4.34847">
        <ele>324.076752</ele>
        <time>2012-02-05T10:15:37Z</time>
      </trkpt>
      <trkpt lat="44.57384" lon="4.34851">
        <ele>323.322174</ele>
        <time>2012-02-05T10:15:43Z</time>
      </trkpt>
      <trkpt lat="44.57374" lon="4.34856">
        <ele>322.644562</ele>
        <time>2012-02-05T10:15:48Z</time>
      </trkpt>
      <trkpt lat="44.57361" lon="4.34866">
        <ele>321.737488</ele>
        <time>2012-02-05T10:15:53Z</time>
      </trkpt>
      <trkpt lat="44.57348" lon="4.34878">
        <ele>320.032501</ele>
        <time>2012-02-05T10:15:58Z</time>
      </trkpt>
      <trkpt lat="44.57336" lon="4.34886">
        <ele>317.973389</ele>
        <time>2012-02-05T10:16:02Z</time>
      </trkpt>
      <trkpt lat="44.57326" lon="4.34893">
        <ele>316.267273</ele>
        <time>2012-02-05T10:16:06Z</time>
      </trkpt>
      <trkpt lat="44.57322" lon="4.34896">
        <ele>315.619965</ele>
        <time>2012-02-05T10:16:08Z</time>
      </trkpt>
      <trkpt lat="44.57316" lon="4.34911">
        <ele>314.633514</ele>
        <time>2012-02-05T10:16:14Z</time>
      </trkpt>
      <trkpt lat="44.57313" lon="4.34919">
        <ele>314.162354</ele>
        <time>2012-02-05T10:16:20Z</time>
      </trkpt>
      <trkpt lat="44.57311" lon="4.34924">
        <ele>313.953156</ele>
        <time>2012-02-05T10:16:26Z</time>
      </trkpt>
      <trkpt lat="44.57308" lon="4.3494">
        <ele>312.324982</ele>
        <time>2012-02-05T10:16:32Z</time>
      </trkpt>
      <trkpt lat="44.57306" lon="4.34948">
        <ele>311.53891</ele>
        <time>2012-02-05T10:16:34Z</time>
      </trkpt>
      <trkpt lat="44.57295" lon="4.34961">
        <ele>309.524994</ele>
        <time>2012-02-05T10:16:40Z</time>
      </trkpt>
      <trkpt lat="44.57282" lon="4.34967">
        <ele>307.983582</ele>
        <time>2012-02-05T10:16:45Z</time>
      </trkpt>
      <trkpt lat="44.57279" lon="4.3497">
        <ele>307.456085</ele>
        <time>2012-02-05T10:16:50Z</time>
      </trkpt>
      <trkpt lat="44.57278" lon="4.34971">
        <ele>307.392151</ele>
        <time>2012-02-05T10:16:56Z</time>
      </trkpt>
      <trkpt lat="44.57278" lon="4.34972">
        <ele>307.257813</ele>
        <time>2012-02-05T10:17:03Z</time>
      </trkpt>
      <trkpt lat="44.57277" lon="4.34973">
        <ele>307.142578</ele>
        <time>2012-02-05T10:17:13Z</time>
      </trkpt>
      <trkpt lat="44.57276" lon="4.34975">
        <ele>306.976685</ele>
        <time>2012-02-05T10:17:22Z</time>
      </trkpt>
      <trkpt lat="44.57273" lon="4.34978">
        <ele>306.567993</ele>
        <time>2012-02-05T10:17:28Z</time>
      </trkpt>
      <trkpt lat="44.57272" lon="4.3498">
        <ele>306.387024</ele>
        <time>2012-02-05T10:17:35Z</time>
      </trkpt>
      <trkpt lat="44.5727" lon="4.34983">
        <ele>306.137024</ele>
        <time>2012-02-05T10:17:42Z</time>
      </trkpt>
      <trkpt lat="44.57267" lon="4.34985">
        <ele>305.854614</ele>
        <time>2012-02-05T10:17:48Z</time>
      </trkpt>
      <trkpt lat="44.57266" lon="4.34989">
        <ele>305.512878</ele>
        <time>2012-02-05T10:17:54Z</time>
      </trkpt>
      <trkpt lat="44.57263" lon="4.34993">
        <ele>305.019775</ele>
        <time>2012-02-05T10:18:01Z</time>
      </trkpt>
      <trkpt lat="44.5726" lon="4.34996">
        <ele>304.639191</ele>
        <time>2012-02-05T10:18:08Z</time>
      </trkpt>
      <trkpt lat="44.57258" lon="4.35002">
        <ele>304.081299</ele>
        <time>2012-02-05T10:18:15Z</time>
      </trkpt>
      <trkpt lat="44.57256" lon="4.35008">
        <ele>303.643768</ele>
        <time>2012-02-05T10:18:23Z</time>
      </trkpt>
      <trkpt lat="44.57257" lon="4.35012">
        <ele>303.39328</ele>
        <time>2012-02-05T10:18:29Z</time>
      </trkpt>
      <trkpt lat="44.57257" lon="4.3502">
        <ele>302.932587</ele>
        <time>2012-02-05T10:18:37Z</time>
      </trkpt>
      <trkpt lat="44.57255" lon="4.35023">
        <ele>302.596771</ele>
        <time>2012-02-05T10:18:43Z</time>
      </trkpt>
      <trkpt lat="44.57254" lon="4.35027">
        <ele>302.317505</ele>
        <time>2012-02-05T10:18:51Z</time>
      </trkpt>
      <trkpt lat="44.57251" lon="4.3503">
        <ele>301.94751</ele>
        <time>2012-02-05T10:19:02Z</time>
      </trkpt>
      <trkpt lat="44.5725" lon="4.3503">
        <ele>301.852509</ele>
        <time>2012-02-05T10:19:11Z</time>
      </trkpt>
      <trkpt lat="44.57247" lon="4.35033">
        <ele>301.470001</ele>
        <time>2012-02-05T10:19:25Z</time>
      </trkpt>
      <trkpt lat="44.57247" lon="4.35037">
        <ele>301.232513</ele>
        <time>2012-02-05T10:19:34Z</time>
      </trkpt>
      <trkpt lat="44.57247" lon="4.35036">
        <ele>301.272491</ele>
        <time>2012-02-05T10:19:42Z</time>
      </trkpt>
      <trkpt lat="44.57247" lon="4.35039">
        <ele>301.140015</ele>
        <time>2012-02-05T10:19:52Z</time>
      </trkpt>
      <trkpt lat="44.57246" lon="4.35043">
        <ele>300.732513</ele>
        <time>2012-02-05T10:19:59Z</time>
      </trkpt>
      <trkpt lat="44.57242" lon="4.35046">
        <ele>300.290009</ele>
        <time>2012-02-05T10:20:06Z</time>
      </trkpt>
      <trkpt lat="44.57241" lon="4.35047">
        <ele>300.136108</ele>
        <time>2012-02-05T10:20:13Z</time>
      </trkpt>
      <trkpt lat="44.57237" lon="4.35051">
        <ele>299.530762</ele>
        <time>2012-02-05T10:20:21Z</time>
      </trkpt>
      <trkpt lat="44.57232" lon="4.3505">
        <ele>299.265594</ele>
        <time>2012-02-05T10:20:27Z</time>
      </trkpt>
      <trkpt lat="44.57226" lon="4.3505">
        <ele>298.782288</ele>
        <time>2012-02-05T10:20:34Z</time>
      </trkpt>
      <trkpt lat="44.57221" lon="4.3505">
        <ele>298.484924</ele>
        <time>2012-02-05T10:20:41Z</time>
      </trkpt>
      <trkpt lat="44.57225" lon="4.35052">
        <ele>298.490692</ele>
        <time>2012-02-05T10:20:47Z</time>
      </trkpt>
      <trkpt lat="44.57228" lon="4.35051">
        <ele>298.877747</ele>
        <time>2012-02-05T10:20:52Z</time>
      </trkpt>
      <trkpt lat="44.57232" lon="4.35049">
        <ele>299.325104</ele>
        <time>2012-02-05T10:20:58Z</time>
      </trkpt>
      <trkpt lat="44.57234" lon="4.35049">
        <ele>299.508148</ele>
        <time>2012-02-05T10:21:03Z</time>
      </trkpt>
      <trkpt lat="44.57237" lon="4.35047">
        <ele>299.849731</ele>
        <time>2012-02-05T10:21:09Z</time>
      </trkpt>
      <trkpt lat="44.57237" lon="4.35048">
        <ele>299.887329</ele>
        <time>2012-02-05T10:21:12Z</time>
      </trkpt>
      <trkpt lat="44.57238" lon="4.35049">
        <ele>299.821136</ele>
        <time>2012-02-05T10:21:17Z</time>
      </trkpt>
      <trkpt lat="44.57234" lon="4.35051">
        <ele>299.355164</ele>
        <time>2012-02-05T10:21:23Z</time>
      </trkpt>
      <trkpt lat="44.5723" lon="4.35048">
        <ele>299.238007</ele>
        <time>2012-02-05T10:21:30Z</time>
      </trkpt>
      <trkpt lat="44.57223" lon="4.35046">
        <ele>299.002502</ele>
        <time>2012-02-05T10:21:38Z</time>
      </trkpt>
      <trkpt lat="44.57221" lon="4.35047">
        <ele>298.748474</ele>
        <time>2012-02-05T10:21:46Z</time>
      </trkpt>
      <trkpt lat="44.57219" lon="4.35045">
        <ele>298.769989</ele>
        <time>2012-02-05T10:21:53Z</time>
      </trkpt>
      <trkpt lat="44.57218" lon="4.35043">
        <ele>298.834991</ele>
        <time>2012-02-05T10:22:02Z</time>
      </trkpt>
      <trkpt lat="44.57219" lon="4.35043">
        <ele>298.889984</ele>
        <time>2012-02-05T10:22:12Z</time>
      </trkpt>
      <trkpt lat="44.57221" lon="4.35034">
        <ele>299.617493</ele>
        <time>2012-02-05T10:22:20Z</time>
      </trkpt>
      <trkpt lat="44.57223" lon="4.35027">
        <ele>300.182495</ele>
        <time>2012-02-05T10:22:27Z</time>
      </trkpt>
      <trkpt lat="44.57225" lon="4.35015">
        <ele>301.037506</ele>
        <time>2012-02-05T10:22:36Z</time>
      </trkpt>
      <trkpt lat="44.57224" lon="4.35013">
        <ele>301.13501</ele>
        <time>2012-02-05T10:22:41Z</time>
      </trkpt>
      <trkpt lat="44.57225" lon="4.3501">
        <ele>301.337494</ele>
        <time>2012-02-05T10:22:45Z</time>
      </trkpt>
      <trkpt lat="44.57223" lon="4.35002">
        <ele>301.782501</ele>
        <time>2012-02-05T10:22:51Z</time>
      </trkpt>
      <trkpt lat="44.57222" lon="4.34998">
        <ele>301.967499</ele>
        <time>2012-02-05T10:23:01Z</time>
      </trkpt>
      <trkpt lat="44.57222" lon="4.34996">
        <ele>302.047485</ele>
        <time>2012-02-05T10:23:02Z</time>
      </trkpt>
      <trkpt lat="44.57222" lon="4.34985">
        <ele>302.720001</ele>
        <time>2012-02-05T10:23:12Z</time>
      </trkpt>
      <trkpt lat="44.57221" lon="4.34978">
        <ele>302.744141</ele>
        <time>2012-02-05T10:23:19Z</time>
      </trkpt>
      <trkpt lat="44.57215" lon="4.3496">
        <ele>302.068451</ele>
        <time>2012-02-05T10:23:24Z</time>
      </trkpt>
      <trkpt lat="44.57213" lon="4.34953">
        <ele>301.817688</ele>
        <time>2012-02-05T10:23:26Z</time>
      </trkpt>
      <trkpt lat="44.57218" lon="4.34937">
        <ele>302.097168</ele>
        <time>2012-02-05T10:23:32Z</time>
      </trkpt>
      <trkpt lat="44.57227" lon="4.34927">
        <ele>303.109406</ele>
        <time>2012-02-05T10:23:37Z</time>
      </trkpt>
      <trkpt lat="44.57237" lon="4.34917">
        <ele>303.920532</ele>
        <time>2012-02-05T10:23:44Z</time>
      </trkpt>
      <trkpt lat="44.57245" lon="4.34907">
        <ele>304.18219</ele>
        <time>2012-02-05T10:23:51Z</time>
      </trkpt>
      <trkpt lat="44.57249" lon="4.34901">
        <ele>304.401611</ele>
        <time>2012-02-05T10:23:54Z</time>
      </trkpt>
      <trkpt lat="44.57254" lon="4.34893">
        <ele>304.834015</ele>
        <time>2012-02-05T10:24:01Z</time>
      </trkpt>
      <trkpt lat="44.57259" lon="4.34886">
        <ele>305.199036</ele>
        <time>2012-02-05T10:24:09Z</time>
      </trkpt>
      <trkpt lat="44.57261" lon="4.34885">
        <ele>305.55069</ele>
        <time>2012-02-05T10:24:24Z</time>
      </trkpt>
      <trkpt lat="44.57264" lon="4.34883">
        <ele>305.983368</ele>
        <time>2012-02-05T10:24:26Z</time>
      </trkpt>
      <trkpt lat="44.57273" lon="4.34879">
        <ele>307.506226</ele>
        <time>2012-02-05T10:24:31Z</time>
      </trkpt>
      <trkpt lat="44.57279" lon="4.34872">
        <ele>308.444366</ele>
        <time>2012-02-05T10:24:36Z</time>
      </trkpt>
      <trkpt lat="44.57285" lon="4.34863">
        <ele>309.251495</ele>
        <time>2012-02-05T10:24:42Z</time>
      </trkpt>
      <trkpt lat="44.57285" lon="4.34862">
        <ele>309.414886</ele>
        <time>2012-02-05T10:24:43Z</time>
      </trkpt>
      <trkpt lat="44.57291" lon="4.34856">
        <ele>310.173798</ele>
        <time>2012-02-05T10:24:51Z</time>
      </trkpt>
      <trkpt lat="44.57301" lon="4.34845">
        <ele>310.944366</ele>
        <time>2012-02-05T10:24:59Z</time>
      </trkpt>
      <trkpt lat="44.57302" lon="4.34843">
        <ele>310.872803</ele>
        <time>2012-02-05T10:25:01Z</time>
      </trkpt>
      <trkpt lat="44.57304" lon="4.34839">
        <ele>310.881256</ele>
        <time>2012-02-05T10:25:06Z</time>
      </trkpt>
      <trkpt lat="44.5731" lon="4.3483">
        <ele>311.263214</ele>
        <time>2012-02-05T10:25:16Z</time>
      </trkpt>
      <trkpt lat="44.57314" lon="4.34827">
        <ele>311.752502</ele>
        <time>2012-02-05T10:25:19Z</time>
      </trkpt>
      <trkpt lat="44.57322" lon="4.34823">
        <ele>313.362762</ele>
        <time>2012-02-05T10:25:25Z</time>
      </trkpt>
      <trkpt lat="44.57326" lon="4.3482">
        <ele>313.943542</ele>
        <time>2012-02-05T10:25:27Z</time>
      </trkpt>
      <trkpt lat="44.57336" lon="4.34811">
        <ele>315.751953</ele>
        <time>2012-02-05T10:25:34Z</time>
      </trkpt>
      <trkpt lat="44.57342" lon="4.34798">
        <ele>316.344696</ele>
        <time>2012-02-05T10:25:39Z</time>
      </trkpt>
      <trkpt lat="44.57349" lon="4.34783">
        <ele>315.768005</ele>
        <time>2012-02-05T10:25:45Z</time>
      </trkpt>
      <trkpt lat="44.57354" lon="4.34773">
        <ele>315.053131</ele>
        <time>2012-02-05T10:25:49Z</time>
      </trkpt>
      <trkpt lat="44.57364" lon="4.34768">
        <ele>315.87738</ele>
        <time>2012-02-05T10:25:55Z</time>
      </trkpt>
      <trkpt lat="44.57377" lon="4.34762">
        <ele>317.134674</ele>
        <time>2012-02-05T10:26:02Z</time>
      </trkpt>
      <trkpt lat="44.57386" lon="4.34756">
        <ele>317.741089</ele>
        <time>2012-02-05T10:26:08Z</time>
      </trkpt>
      <trkpt lat="44.57395" lon="4.34748">
        <ele>318.285583</ele>
        <time>2012-02-05T10:26:14Z</time>
      </trkpt>
      <trkpt lat="44.57404" lon="4.34734">
        <ele>317.774231</ele>
        <time>2012-02-05T10:26:21Z</time>
      </trkpt>
      <trkpt lat="44.57414" lon="4.34719">
        <ele>317.16394</ele>
        <time>2012-02-05T10:26:27Z</time>
      </trkpt>
      <trkpt lat="44.57428" lon="4.34701">
        <ele>316.990753</ele>
        <time>2012-02-05T10:26:35Z</time>
      </trkpt>
      <trkpt lat="44.57436" lon="4.34691">
        <ele>316.94751</ele>
        <time>2012-02-05T10:26:42Z</time>
      </trkpt>
      <trkpt lat="44.57444" lon="4.34681">
        <ele>316.913635</ele>
        <time>2012-02-05T10:26:47Z</time>
      </trkpt>
      <trkpt lat="44.57452" lon="4.34674">
        <ele>317.228241</ele>
        <time>2012-02-05T10:26:52Z</time>
      </trkpt>
      <trkpt lat="44.57463" lon="4.34659">
        <ele>316.679993</ele>
        <time>2012-02-05T10:27:01Z</time>
      </trkpt>
      <trkpt lat="44.5748" lon="4.34647">
        <ele>316.915558</ele>
        <time>2012-02-05T10:27:08Z</time>
      </trkpt>
      <trkpt lat="44.5749" lon="4.34639">
        <ele>316.918427</ele>
        <time>2012-02-05T10:27:15Z</time>
      </trkpt>
      <trkpt lat="44.57498" lon="4.3463">
        <ele>316.690033</ele>
        <time>2012-02-05T10:27:20Z</time>
      </trkpt>
      <trkpt lat="44.57508" lon="4.34619">
        <ele>316.762817</ele>
        <time>2012-02-05T10:27:25Z</time>
      </trkpt>
      <trkpt lat="44.57511" lon="4.34617">
        <ele>316.964935</ele>
        <time>2012-02-05T10:27:27Z</time>
      </trkpt>
      <trkpt lat="44.57523" lon="4.34611">
        <ele>318.073853</ele>
        <time>2012-02-05T10:27:32Z</time>
      </trkpt>
      <trkpt lat="44.57533" lon="4.34607">
        <ele>319.112549</ele>
        <time>2012-02-05T10:27:39Z</time>
      </trkpt>
      <trkpt lat="44.57541" lon="4.34604">
        <ele>319.687897</ele>
        <time>2012-02-05T10:27:45Z</time>
      </trkpt>
      <trkpt lat="44.57555" lon="4.34598">
        <ele>320.563934</ele>
        <time>2012-02-05T10:27:52Z</time>
      </trkpt>
      <trkpt lat="44.57579" lon="4.34582">
        <ele>321.046143</ele>
        <time>2012-02-05T10:28:04Z</time>
      </trkpt>
      <trkpt lat="44.57592" lon="4.34573">
        <ele>321.691833</ele>
        <time>2012-02-05T10:28:11Z</time>
      </trkpt>
      <trkpt lat="44.57603" lon="4.3457">
        <ele>323.301727</ele>
        <time>2012-02-05T10:28:18Z</time>
      </trkpt>
      <trkpt lat="44.57604" lon="4.34566">
        <ele>323.428406</ele>
        <time>2012-02-05T10:28:26Z</time>
      </trkpt>
      <trkpt lat="44.57607" lon="4.34566">
        <ele>323.845764</ele>
        <time>2012-02-05T10:28:43Z</time>
      </trkpt>
      <trkpt lat="44.57612" lon="4.34553">
        <ele>324.307861</ele>
        <time>2012-02-05T10:28:49Z</time>
      </trkpt>
      <trkpt lat="44.57618" lon="4.3454">
        <ele>324.077087</ele>
        <time>2012-02-05T10:28:55Z</time>
      </trkpt>
      <trkpt lat="44.57623" lon="4.34527">
        <ele>323.167023</ele>
        <time>2012-02-05T10:29:01Z</time>
      </trkpt>
      <trkpt lat="44.57637" lon="4.34505">
        <ele>323.02298</ele>
        <time>2012-02-05T10:29:11Z</time>
      </trkpt>
      <trkpt lat="44.57644" lon="4.34489">
        <ele>323.774292</ele>
        <time>2012-02-05T10:29:17Z</time>
      </trkpt>
      <trkpt lat="44.57645" lon="4.34472">
        <ele>323.400909</ele>
        <time>2012-02-05T10:29:23Z</time>
      </trkpt>
      <trkpt lat="44.5765" lon="4.34453">
        <ele>323.25174</ele>
        <time>2012-02-05T10:29:30Z</time>
      </trkpt>
      <trkpt lat="44.57654" lon="4.34438">
        <ele>322.917694</ele>
        <time>2012-02-05T10:29:36Z</time>
      </trkpt>
      <trkpt lat="44.57659" lon="4.34425">
        <ele>323.251587</ele>
        <time>2012-02-05T10:29:42Z</time>
      </trkpt>
      <trkpt lat="44.57665" lon="4.34412">
        <ele>323.822083</ele>
        <time>2012-02-05T10:29:48Z</time>
      </trkpt>
      <trkpt lat="44.57669" lon="4.34407">
        <ele>323.969177</ele>
        <time>2012-02-05T10:29:51Z</time>
      </trkpt>
      <trkpt lat="44.5768" lon="4.34396">
        <ele>324.67041</ele>
        <time>2012-02-05T10:30:00Z</time>
      </trkpt>
      <trkpt lat="44.5769" lon="4.34383">
        <ele>325.105042</ele>
        <time>2012-02-05T10:30:06Z</time>
      </trkpt>
      <trkpt lat="44.57701" lon="4.34364">
        <ele>325.762512</ele>
        <time>2012-02-05T10:30:13Z</time>
      </trkpt>
      <trkpt lat="44.57712" lon="4.34346">
        <ele>326.793213</ele>
        <time>2012-02-05T10:30:20Z</time>
      </trkpt>
      <trkpt lat="44.57722" lon="4.34329">
        <ele>328.144318</ele>
        <time>2012-02-05T10:30:27Z</time>
      </trkpt>
      <trkpt lat="44.57729" lon="4.34311">
        <ele>329.328888</ele>
        <time>2012-02-05T10:30:33Z</time>
      </trkpt>
      <trkpt lat="44.57736" lon="4.34291">
        <ele>330.856384</ele>
        <time>2012-02-05T10:30:40Z</time>
      </trkpt>
      <trkpt lat="44.57745" lon="4.34269">
        <ele>331.944794</ele>
        <time>2012-02-05T10:30:48Z</time>
      </trkpt>
      <trkpt lat="44.57752" lon="4.3425">
        <ele>332.225433</ele>
        <time>2012-02-05T10:30:55Z</time>
      </trkpt>
      <trkpt lat="44.57759" lon="4.34231">
        <ele>333.475708</ele>
        <time>2012-02-05T10:31:02Z</time>
      </trkpt>
      <trkpt lat="44.57769" lon="4.3422">
        <ele>334.567169</ele>
        <time>2012-02-05T10:31:09Z</time>
      </trkpt>
      <trkpt lat="44.57783" lon="4.34215">
        <ele>335.647827</ele>
        <time>2012-02-05T10:31:17Z</time>
      </trkpt>
      <trkpt lat="44.57796" lon="4.34209">
        <ele>336.294861</ele>
        <time>2012-02-05T10:31:25Z</time>
      </trkpt>
      <trkpt lat="44.57807" lon="4.342">
        <ele>336.402374</ele>
        <time>2012-02-05T10:31:30Z</time>
      </trkpt>
      <trkpt lat="44.57824" lon="4.34183">
        <ele>339.845764</ele>
        <time>2012-02-05T10:31:38Z</time>
      </trkpt>
      <trkpt lat="44.57836" lon="4.34165">
        <ele>342.669739</ele>
        <time>2012-02-05T10:31:46Z</time>
      </trkpt>
      <trkpt lat="44.57842" lon="4.34149">
        <ele>343.068939</ele>
        <time>2012-02-05T10:31:52Z</time>
      </trkpt>
      <trkpt lat="44.57847" lon="4.34138">
        <ele>342.929565</ele>
        <time>2012-02-05T10:31:57Z</time>
      </trkpt>
      <trkpt lat="44.57853" lon="4.34125">
        <ele>342.112793</ele>
        <time>2012-02-05T10:32:02Z</time>
      </trkpt>
      <trkpt lat="44.57862" lon="4.34113">
        <ele>345.18277</ele>
        <time>2012-02-05T10:32:09Z</time>
      </trkpt>
      <trkpt lat="44.57872" lon="4.341">
        <ele>347.632263</ele>
        <time>2012-02-05T10:32:16Z</time>
      </trkpt>
      <trkpt lat="44.5788" lon="4.34087">
        <ele>348.463806</ele>
        <time>2012-02-05T10:32:22Z</time>
      </trkpt>
      <trkpt lat="44.57889" lon="4.34074">
        <ele>347.83078</ele>
        <time>2012-02-05T10:32:27Z</time>
      </trkpt>
      <trkpt lat="44.57901" lon="4.34058">
        <ele>346.673309</ele>
        <time>2012-02-05T10:32:33Z</time>
      </trkpt>
      <trkpt lat="44.57913" lon="4.34048">
        <ele>350.358704</ele>
        <time>2012-02-05T10:32:39Z</time>
      </trkpt>
      <trkpt lat="44.57928" lon="4.34037">
        <ele>353.341064</ele>
        <time>2012-02-05T10:32:46Z</time>
      </trkpt>
      <trkpt lat="44.57939" lon="4.34026">
        <ele>354.423157</ele>
        <time>2012-02-05T10:32:52Z</time>
      </trkpt>
      <trkpt lat="44.57951" lon="4.34017">
        <ele>354.981049</ele>
        <time>2012-02-05T10:32:59Z</time>
      </trkpt>
      <trkpt lat="44.57957" lon="4.34009">
        <ele>355.080719</ele>
        <time>2012-02-05T10:33:04Z</time>
      </trkpt>
      <trkpt lat="44.57954" lon="4.34004">
        <ele>354.212036</ele>
        <time>2012-02-05T10:33:11Z</time>
      </trkpt>
      <trkpt lat="44.57957" lon="4.34002">
        <ele>354.580017</ele>
        <time>2012-02-05T10:33:48Z</time>
      </trkpt>
      <trkpt lat="44.57959" lon="4.34001">
        <ele>354.970001</ele>
        <time>2012-02-05T10:34:00Z</time>
      </trkpt>
      <trkpt lat="44.57962" lon="4.34">
        <ele>355.382507</ele>
        <time>2012-02-05T10:34:08Z</time>
      </trkpt>
      <trkpt lat="44.57965" lon="4.34001">
        <ele>355.825012</ele>
        <time>2012-02-05T10:34:16Z</time>
      </trkpt>
      <trkpt lat="44.57966" lon="4.34004">
        <ele>356.009705</ele>
        <time>2012-02-05T10:34:23Z</time>
      </trkpt>
      <trkpt lat="44.57967" lon="4.34007">
        <ele>356.392761</ele>
        <time>2012-02-05T10:34:28Z</time>
      </trkpt>
      <trkpt lat="44.57971" lon="4.34009">
        <ele>357.102539</ele>
        <time>2012-02-05T10:34:36Z</time>
      </trkpt>
      <trkpt lat="44.57973" lon="4.34011">
        <ele>357.638458</ele>
        <time>2012-02-05T10:34:44Z</time>
      </trkpt>
      <trkpt lat="44.57976" lon="4.34015">
        <ele>358.522705</ele>
        <time>2012-02-05T10:34:51Z</time>
      </trkpt>
      <trkpt lat="44.57978" lon="4.34018">
        <ele>358.950348</ele>
        <time>2012-02-05T10:34:58Z</time>
      </trkpt>
      <trkpt lat="44.57979" lon="4.3402">
        <ele>359.248505</ele>
        <time>2012-02-05T10:35:06Z</time>
      </trkpt>
      <trkpt lat="44.57984" lon="4.34025">
        <ele>360.442932</ele>
        <time>2012-02-05T10:35:15Z</time>
      </trkpt>
      <trkpt lat="44.57988" lon="4.34027">
        <ele>361.248322</ele>
        <time>2012-02-05T10:35:22Z</time>
      </trkpt>
      <trkpt lat="44.57988" lon="4.34028">
        <ele>361.397156</ele>
        <time>2012-02-05T10:35:29Z</time>
      </trkpt>
      <trkpt lat="44.57989" lon="4.3403">
        <ele>361.702698</ele>
        <time>2012-02-05T10:35:36Z</time>
      </trkpt>
      <trkpt lat="44.57989" lon="4.34029">
        <ele>361.591339</ele>
        <time>2012-02-05T10:35:43Z</time>
      </trkpt>
      <trkpt lat="44.57986" lon="4.34029">
        <ele>361.142975</ele>
        <time>2012-02-05T10:35:57Z</time>
      </trkpt>
      <trkpt lat="44.57988" lon="4.3403">
        <ele>361.46701</ele>
        <time>2012-02-05T10:36:04Z</time>
      </trkpt>
      <trkpt lat="44.5799" lon="4.34028">
        <ele>361.576874</ele>
        <time>2012-02-05T10:36:12Z</time>
      </trkpt>
      <trkpt lat="44.57987" lon="4.3403">
        <ele>361.292145</ele>
        <time>2012-02-05T10:36:30Z</time>
      </trkpt>
      <trkpt lat="44.57986" lon="4.34031">
        <ele>361.335999</ele>
        <time>2012-02-05T10:36:39Z</time>
      </trkpt>
      <trkpt lat="44.57986" lon="4.3403">
        <ele>361.264679</ele>
        <time>2012-02-05T10:36:57Z</time>
      </trkpt>
      <trkpt lat="44.57988" lon="4.3403">
        <ele>361.470795</ele>
        <time>2012-02-05T10:37:07Z</time>
      </trkpt>
      <trkpt lat="44.57988" lon="4.34031">
        <ele>361.692688</ele>
        <time>2012-02-05T10:37:13Z</time>
      </trkpt>
      <trkpt lat="44.57989" lon="4.34032">
        <ele>361.861908</ele>
        <time>2012-02-05T10:37:17Z</time>
      </trkpt>
      <trkpt lat="44.57987" lon="4.3403">
        <ele>361.382599</ele>
        <time>2012-02-05T10:37:24Z</time>
      </trkpt>
      <trkpt lat="44.57987" lon="4.3403">
        <ele>361.389954</ele>
        <time>2012-02-05T10:37:29Z</time>
      </trkpt>
      <trkpt lat="44.57987" lon="4.34031">
        <ele>361.391693</ele>
        <time>2012-02-05T10:37:38Z</time>
      </trkpt>
      <trkpt lat="44.57986" lon="4.34031">
        <ele>361.293091</ele>
        <time>2012-02-05T10:37:59Z</time>
      </trkpt>
      <trkpt lat="44.57988" lon="4.34029">
        <ele>361.4086</ele>
        <time>2012-02-05T10:38:13Z</time>
      </trkpt>
      <trkpt lat="44.57987" lon="4.3403">
        <ele>361.474915</ele>
        <time>2012-02-05T10:38:34Z</time>
      </trkpt>
      <trkpt lat="44.57986" lon="4.34032">
        <ele>361.476807</ele>
        <time>2012-02-05T10:38:40Z</time>
      </trkpt>
      <trkpt lat="44.57987" lon="4.3403">
        <ele>361.360718</ele>
        <time>2012-02-05T10:38:55Z</time>
      </trkpt>
      <trkpt lat="44.57989" lon="4.34029">
        <ele>361.529175</ele>
        <time>2012-02-05T10:39:02Z</time>
      </trkpt>
      <trkpt lat="44.57989" lon="4.34029">
        <ele>361.547089</ele>
        <time>2012-02-05T10:39:06Z</time>
      </trkpt>
      <trkpt lat="44.5799" lon="4.34031">
        <ele>361.899811</ele>
        <time>2012-02-05T10:39:28Z</time>
      </trkpt>
      <trkpt lat="44.57988" lon="4.34033">
        <ele>361.761414</ele>
        <time>2012-02-05T10:39:39Z</time>
      </trkpt>
      <trkpt lat="44.57992" lon="4.34027">
        <ele>361.87381</ele>
        <time>2012-02-05T10:40:02Z</time>
      </trkpt>
      <trkpt lat="44.5799" lon="4.34029">
        <ele>361.625824</ele>
        <time>2012-02-05T10:40:14Z</time>
      </trkpt>
      <trkpt lat="44.5799" lon="4.34032">
        <ele>361.941406</ele>
        <time>2012-02-05T10:40:25Z</time>
      </trkpt>
      <trkpt lat="44.5799" lon="4.34031">
        <ele>361.864471</ele>
        <time>2012-02-05T10:40:36Z</time>
      </trkpt>
      <trkpt lat="44.57991" lon="4.34032">
        <ele>362.056244</ele>
        <time>2012-02-05T10:40:49Z</time>
      </trkpt>
      <trkpt lat="44.57991" lon="4.34028">
        <ele>361.832031</ele>
        <time>2012-02-05T10:41:07Z</time>
      </trkpt>
      <trkpt lat="44.5799" lon="4.34027">
        <ele>361.611664</ele>
        <time>2012-02-05T10:41:14Z</time>
      </trkpt>
      <trkpt lat="44.5799" lon="4.34027">
        <ele>361.580841</ele>
        <time>2012-02-05T10:41:17Z</time>
      </trkpt>
      <trkpt lat="44.5799" lon="4.34026">
        <ele>361.542419</ele>
        <time>2012-02-05T10:41:23Z</time>
      </trkpt>
      <trkpt lat="44.57989" lon="4.34025">
        <ele>361.28775</ele>
        <time>2012-02-05T10:41:34Z</time>
      </trkpt>
      <trkpt lat="44.57989" lon="4.34021">
        <ele>360.918762</ele>
        <time>2012-02-05T10:42:04Z</time>
      </trkpt>
      <trkpt lat="44.57986" lon="4.34017">
        <ele>360.167297</ele>
        <time>2012-02-05T10:42:16Z</time>
      </trkpt>
      <trkpt lat="44.57986" lon="4.34014">
        <ele>359.861664</ele>
        <time>2012-02-05T10:42:25Z</time>
      </trkpt>
      <trkpt lat="44.57987" lon="4.34016">
        <ele>360.245605</ele>
        <time>2012-02-05T10:42:32Z</time>
      </trkpt>
      <trkpt lat="44.57986" lon="4.34016">
        <ele>360.00528</ele>
        <time>2012-02-05T10:42:34Z</time>
      </trkpt>
      <trkpt lat="44.57978" lon="4.34013">
        <ele>358.545746</ele>
        <time>2012-02-05T10:42:38Z</time>
      </trkpt>
      <trkpt lat="44.57965" lon="4.34004">
        <ele>355.744141</ele>
        <time>2012-02-05T10:42:43Z</time>
      </trkpt>
      <trkpt lat="44.57959" lon="4.33997">
        <ele>354.972504</ele>
        <time>2012-02-05T10:42:47Z</time>
      </trkpt>
      <trkpt lat="44.57959" lon="4.33998">
        <ele>354.985016</ele>
        <time>2012-02-05T10:42:51Z</time>
      </trkpt>
      <trkpt lat="44.57958" lon="4.33997">
        <ele>354.872498</ele>
        <time>2012-02-05T10:43:00Z</time>
      </trkpt>
      <trkpt lat="44.57959" lon="4.3398">
        <ele>355.434998</ele>
        <time>2012-02-05T10:43:08Z</time>
      </trkpt>
      <trkpt lat="44.5796" lon="4.33969">
        <ele>355.984985</ele>
        <time>2012-02-05T10:43:14Z</time>
      </trkpt>
      <trkpt lat="44.57961" lon="4.33961">
        <ele>356.424988</ele>
        <time>2012-02-05T10:43:21Z</time>
      </trkpt>
      <trkpt lat="44.57963" lon="4.33953">
        <ele>356.950012</ele>
        <time>2012-02-05T10:43:26Z</time>
      </trkpt>
      <trkpt lat="44.57967" lon="4.33937">
        <ele>358.189667</ele>
        <time>2012-02-05T10:43:32Z</time>
      </trkpt>
      <trkpt lat="44.57968" lon="4.33926">
        <ele>359.08313</ele>
        <time>2012-02-05T10:43:36Z</time>
      </trkpt>
      <trkpt lat="44.57969" lon="4.33905">
        <ele>360.586334</ele>
        <time>2012-02-05T10:43:44Z</time>
      </trkpt>
      <trkpt lat="44.57968" lon="4.33888">
        <ele>361.463623</ele>
        <time>2012-02-05T10:43:50Z</time>
      </trkpt>
      <trkpt lat="44.57964" lon="4.33873">
        <ele>362.152954</ele>
        <time>2012-02-05T10:43:57Z</time>
      </trkpt>
      <trkpt lat="44.57958" lon="4.33859">
        <ele>362.857758</ele>
        <time>2012-02-05T10:44:03Z</time>
      </trkpt>
      <trkpt lat="44.57954" lon="4.3384">
        <ele>364.772644</ele>
        <time>2012-02-05T10:44:11Z</time>
      </trkpt>
      <trkpt lat="44.57953" lon="4.33825">
        <ele>366.797852</ele>
        <time>2012-02-05T10:44:18Z</time>
      </trkpt>
      <trkpt lat="44.57953" lon="4.33811">
        <ele>368.597504</ele>
        <time>2012-02-05T10:44:24Z</time>
      </trkpt>
      <trkpt lat="44.57954" lon="4.33799">
        <ele>370.08609</ele>
        <time>2012-02-05T10:44:30Z</time>
      </trkpt>
      <trkpt lat="44.57957" lon="4.33786">
        <ele>371.830688</ele>
        <time>2012-02-05T10:44:37Z</time>
      </trkpt>
      <trkpt lat="44.57957" lon="4.33767">
        <ele>373.947479</ele>
        <time>2012-02-05T10:44:44Z</time>
      </trkpt>
      <trkpt lat="44.57956" lon="4.3375">
        <ele>375.731262</ele>
        <time>2012-02-05T10:44:52Z</time>
      </trkpt>
      <trkpt lat="44.57956" lon="4.33738">
        <ele>377</ele>
        <time>2012-02-05T10:44:58Z</time>
      </trkpt>
      <trkpt lat="44.57955" lon="4.33731">
        <ele>377.632507</ele>
        <time>2012-02-05T10:45:02Z</time>
      </trkpt>
      <trkpt lat="44.57953" lon="4.33714">
        <ele>379.206238</ele>
        <time>2012-02-05T10:45:10Z</time>
      </trkpt>
      <trkpt lat="44.57953" lon="4.337">
        <ele>380.713745</ele>
        <time>2012-02-05T10:45:17Z</time>
      </trkpt>
      <trkpt lat="44.57952" lon="4.33688">
        <ele>382.469452</ele>
        <time>2012-02-05T10:45:24Z</time>
      </trkpt>
      <trkpt lat="44.57951" lon="4.33672">
        <ele>384.682129</ele>
        <time>2012-02-05T10:45:34Z</time>
      </trkpt>
      <trkpt lat="44.57951" lon="4.33665">
        <ele>385.642456</ele>
        <time>2012-02-05T10:45:41Z</time>
      </trkpt>
      <trkpt lat="44.57951" lon="4.3366">
        <ele>386.290588</ele>
        <time>2012-02-05T10:45:53Z</time>
      </trkpt>
      <trkpt lat="44.57949" lon="4.33646">
        <ele>388.662292</ele>
        <time>2012-02-05T10:45:58Z</time>
      </trkpt>
      <trkpt lat="44.57947" lon="4.33643">
        <ele>389.506409</ele>
        <time>2012-02-05T10:46:02Z</time>
      </trkpt>
      <trkpt lat="44.57944" lon="4.33631">
        <ele>391.789032</ele>
        <time>2012-02-05T10:46:13Z</time>
      </trkpt>
      <trkpt lat="44.57942" lon="4.33627">
        <ele>392.682404</ele>
        <time>2012-02-05T10:46:18Z</time>
      </trkpt>
      <trkpt lat="44.57939" lon="4.3362">
        <ele>394.345673</ele>
        <time>2012-02-05T10:46:25Z</time>
      </trkpt>
      <trkpt lat="44.57934" lon="4.33605">
        <ele>397.210388</ele>
        <time>2012-02-05T10:46:33Z</time>
      </trkpt>
      <trkpt lat="44.57927" lon="4.33593">
        <ele>400.002289</ele>
        <time>2012-02-05T10:46:41Z</time>
      </trkpt>
      <trkpt lat="44.57926" lon="4.33592">
        <ele>400.226715</ele>
        <time>2012-02-05T10:46:42Z</time>
      </trkpt>
      <trkpt lat="44.57926" lon="4.33591">
        <ele>400.463715</ele>
        <time>2012-02-05T10:46:44Z</time>
      </trkpt>
      <trkpt lat="44.57923" lon="4.33585">
        <ele>401.62149</ele>
        <time>2012-02-05T10:46:52Z</time>
      </trkpt>
      <trkpt lat="44.57921" lon="4.33581">
        <ele>402.478119</ele>
        <time>2012-02-05T10:47:00Z</time>
      </trkpt>
      <trkpt lat="44.57918" lon="4.33577">
        <ele>403.242798</ele>
        <time>2012-02-05T10:47:07Z</time>
      </trkpt>
      <trkpt lat="44.57917" lon="4.33573">
        <ele>403.847198</ele>
        <time>2012-02-05T10:47:14Z</time>
      </trkpt>
      <trkpt lat="44.57914" lon="4.33568">
        <ele>404.828186</ele>
        <time>2012-02-05T10:47:22Z</time>
      </trkpt>
      <trkpt lat="44.57911" lon="4.33563">
        <ele>405.753601</ele>
        <time>2012-02-05T10:47:31Z</time>
      </trkpt>
      <trkpt lat="44.57907" lon="4.3356">
        <ele>407.065979</ele>
        <time>2012-02-05T10:47:41Z</time>
      </trkpt>
      <trkpt lat="44.57904" lon="4.33556">
        <ele>408.132385</ele>
        <time>2012-02-05T10:47:48Z</time>
      </trkpt>
      <trkpt lat="44.57901" lon="4.33549">
        <ele>409.708008</ele>
        <time>2012-02-05T10:47:58Z</time>
      </trkpt>
      <trkpt lat="44.57898" lon="4.33546">
        <ele>410.758942</ele>
        <time>2012-02-05T10:48:06Z</time>
      </trkpt>
      <trkpt lat="44.57894" lon="4.33546">
        <ele>411.637207</ele>
        <time>2012-02-05T10:48:13Z</time>
      </trkpt>
      <trkpt lat="44.57892" lon="4.33548">
        <ele>412.187836</ele>
        <time>2012-02-05T10:48:20Z</time>
      </trkpt>
      <trkpt lat="44.57888" lon="4.33549">
        <ele>412.962494</ele>
        <time>2012-02-05T10:48:26Z</time>
      </trkpt>
      <trkpt lat="44.57886" lon="4.33545">
        <ele>413.82901</ele>
        <time>2012-02-05T10:48:31Z</time>
      </trkpt>
      <trkpt lat="44.57886" lon="4.33544">
        <ele>413.830536</ele>
        <time>2012-02-05T10:48:37Z</time>
      </trkpt>
      <trkpt lat="44.57888" lon="4.33547">
        <ele>413.11969</ele>
        <time>2012-02-05T10:48:44Z</time>
      </trkpt>
      <trkpt lat="44.57888" lon="4.33546">
        <ele>413.330231</ele>
        <time>2012-02-05T10:49:01Z</time>
      </trkpt>
      <trkpt lat="44.57889" lon="4.33547">
        <ele>412.956024</ele>
        <time>2012-02-05T10:49:13Z</time>
      </trkpt>
      <trkpt lat="44.57889" lon="4.33547">
        <ele>412.892212</ele>
        <time>2012-02-05T10:49:22Z</time>
      </trkpt>
      <trkpt lat="44.5789" lon="4.33546">
        <ele>412.657257</ele>
        <time>2012-02-05T10:49:38Z</time>
      </trkpt>
      <trkpt lat="44.57891" lon="4.33546">
        <ele>412.614624</ele>
        <time>2012-02-05T10:49:45Z</time>
      </trkpt>
      <trkpt lat="44.57889" lon="4.33546">
        <ele>413.018494</ele>
        <time>2012-02-05T10:49:54Z</time>
      </trkpt>
      <trkpt lat="44.57888" lon="4.33545">
        <ele>413.298676</ele>
        <time>2012-02-05T10:50:07Z</time>
      </trkpt>
      <trkpt lat="44.57889" lon="4.33546">
        <ele>413.082764</ele>
        <time>2012-02-05T10:50:14Z</time>
      </trkpt>
      <trkpt lat="44.5789" lon="4.33544">
        <ele>412.80545</ele>
        <time>2012-02-05T10:50:28Z</time>
      </trkpt>
      <trkpt lat="44.57892" lon="4.33539">
        <ele>413.019043</ele>
        <time>2012-02-05T10:50:35Z</time>
      </trkpt>
      <trkpt lat="44.57892" lon="4.33539">
        <ele>412.954559</ele>
        <time>2012-02-05T10:50:43Z</time>
      </trkpt>
      <trkpt lat="44.57888" lon="4.33539">
        <ele>413.904572</ele>
        <time>2012-02-05T10:50:56Z</time>
      </trkpt>
      <trkpt lat="44.57885" lon="4.33537">
        <ele>414.825378</ele>
        <time>2012-02-05T10:51:08Z</time>
      </trkpt>
      <trkpt lat="44.57886" lon="4.33542">
        <ele>414.147125</ele>
        <time>2012-02-05T10:51:34Z</time>
      </trkpt>
      <trkpt lat="44.57886" lon="4.33542">
        <ele>414.112549</ele>
        <time>2012-02-05T10:51:40Z</time>
      </trkpt>
      <trkpt lat="44.57886" lon="4.3354">
        <ele>414.312897</ele>
        <time>2012-02-05T10:51:51Z</time>
      </trkpt>
      <trkpt lat="44.57885" lon="4.33534">
        <ele>415.109436</ele>
        <time>2012-02-05T10:52:08Z</time>
      </trkpt>
      <trkpt lat="44.57884" lon="4.33538">
        <ele>414.919617</ele>
        <time>2012-02-05T10:52:17Z</time>
      </trkpt>
      <trkpt lat="44.57886" lon="4.33535">
        <ele>414.706909</ele>
        <time>2012-02-05T10:53:31Z</time>
      </trkpt>
      <trkpt lat="44.5789" lon="4.33531">
        <ele>414.258881</ele>
        <time>2012-02-05T10:53:42Z</time>
      </trkpt>
      <trkpt lat="44.57886" lon="4.33537">
        <ele>414.505402</ele>
        <time>2012-02-05T10:53:49Z</time>
      </trkpt>
      <trkpt lat="44.57887" lon="4.33538">
        <ele>414.198547</ele>
        <time>2012-02-05T10:53:56Z</time>
      </trkpt>
      <trkpt lat="44.57887" lon="4.33535">
        <ele>414.415833</ele>
        <time>2012-02-05T10:54:05Z</time>
      </trkpt>
      <trkpt lat="44.57887" lon="4.33529">
        <ele>415.030457</ele>
        <time>2012-02-05T10:54:15Z</time>
      </trkpt>
      <trkpt lat="44.57889" lon="4.33508">
        <ele>416.541229</ele>
        <time>2012-02-05T10:54:25Z</time>
      </trkpt>
      <trkpt lat="44.5789" lon="4.3349">
        <ele>418.699677</ele>
        <time>2012-02-05T10:54:33Z</time>
      </trkpt>
      <trkpt lat="44.57896" lon="4.33472">
        <ele>420.84549</ele>
        <time>2012-02-05T10:54:40Z</time>
      </trkpt>
      <trkpt lat="44.57898" lon="4.3347">
        <ele>420.912537</ele>
        <time>2012-02-05T10:54:41Z</time>
      </trkpt>
      <trkpt lat="44.57914" lon="4.33469">
        <ele>419.0289</ele>
        <time>2012-02-05T10:54:49Z</time>
      </trkpt>
      <trkpt lat="44.57928" lon="4.33473">
        <ele>418.347748</ele>
        <time>2012-02-05T10:54:56Z</time>
      </trkpt>
      <trkpt lat="44.57937" lon="4.33475">
        <ele>417.764801</ele>
        <time>2012-02-05T10:55:01Z</time>
      </trkpt>
      <trkpt lat="44.57951" lon="4.33482">
        <ele>416.110504</ele>
        <time>2012-02-05T10:55:08Z</time>
      </trkpt>
      <trkpt lat="44.57963" lon="4.33485">
        <ele>415.791412</ele>
        <time>2012-02-05T10:55:14Z</time>
      </trkpt>
      <trkpt lat="44.5798" lon="4.33485">
        <ele>416.951538</ele>
        <time>2012-02-05T10:55:21Z</time>
      </trkpt>
      <trkpt lat="44.58" lon="4.33484">
        <ele>418.944427</ele>
        <time>2012-02-05T10:55:29Z</time>
      </trkpt>
      <trkpt lat="44.58027" lon="4.33482">
        <ele>423.581116</ele>
        <time>2012-02-05T10:55:40Z</time>
      </trkpt>
      <trkpt lat="44.5804" lon="4.33484">
        <ele>424.720215</ele>
        <time>2012-02-05T10:55:47Z</time>
      </trkpt>
      <trkpt lat="44.58048" lon="4.33487">
        <ele>425.377289</ele>
        <time>2012-02-05T10:55:54Z</time>
      </trkpt>
      <trkpt lat="44.58057" lon="4.33491">
        <ele>426.773987</ele>
        <time>2012-02-05T10:56:01Z</time>
      </trkpt>
      <trkpt lat="44.58058" lon="4.33495">
        <ele>425.810944</ele>
        <time>2012-02-05T10:56:17Z</time>
      </trkpt>
      <trkpt lat="44.58065" lon="4.33511">
        <ele>425.010406</ele>
        <time>2012-02-05T10:56:24Z</time>
      </trkpt>
      <trkpt lat="44.58075" lon="4.33536">
        <ele>425.007507</ele>
        <time>2012-02-05T10:56:32Z</time>
      </trkpt>
      <trkpt lat="44.5808" lon="4.33557">
        <ele>424.379211</ele>
        <time>2012-02-05T10:56:40Z</time>
      </trkpt>
      <trkpt lat="44.58083" lon="4.33572">
        <ele>424.057678</ele>
        <time>2012-02-05T10:56:45Z</time>
      </trkpt>
      <trkpt lat="44.58084" lon="4.33589">
        <ele>423.032959</ele>
        <time>2012-02-05T10:56:52Z</time>
      </trkpt>
      <trkpt lat="44.58086" lon="4.33604">
        <ele>422.281708</ele>
        <time>2012-02-05T10:57:01Z</time>
      </trkpt>
      <trkpt lat="44.58088" lon="4.33622">
        <ele>421.356567</ele>
        <time>2012-02-05T10:57:07Z</time>
      </trkpt>
      <trkpt lat="44.58092" lon="4.33646">
        <ele>420.899628</ele>
        <time>2012-02-05T10:57:14Z</time>
      </trkpt>
      <trkpt lat="44.58095" lon="4.33667">
        <ele>420.474518</ele>
        <time>2012-02-05T10:57:20Z</time>
      </trkpt>
      <trkpt lat="44.58099" lon="4.33691">
        <ele>419.93808</ele>
        <time>2012-02-05T10:57:25Z</time>
      </trkpt>
      <trkpt lat="44.58109" lon="4.33715">
        <ele>420.566742</ele>
        <time>2012-02-05T10:57:31Z</time>
      </trkpt>
      <trkpt lat="44.58118" lon="4.33741">
        <ele>420.500793</ele>
        <time>2012-02-05T10:57:38Z</time>
      </trkpt>
      <trkpt lat="44.58129" lon="4.33749">
        <ele>422.159882</ele>
        <time>2012-02-05T10:57:43Z</time>
      </trkpt>
      <trkpt lat="44.58142" lon="4.33753">
        <ele>422.964539</ele>
        <time>2012-02-05T10:57:48Z</time>
      </trkpt>
      <trkpt lat="44.58162" lon="4.33762">
        <ele>422.820007</ele>
        <time>2012-02-05T10:57:54Z</time>
      </trkpt>
      <trkpt lat="44.58179" lon="4.33759">
        <ele>424.052002</ele>
        <time>2012-02-05T10:57:59Z</time>
      </trkpt>
      <trkpt lat="44.58197" lon="4.33749">
        <ele>426.423737</ele>
        <time>2012-02-05T10:58:05Z</time>
      </trkpt>
      <trkpt lat="44.58216" lon="4.33734">
        <ele>429.497498</ele>
        <time>2012-02-05T10:58:12Z</time>
      </trkpt>
      <trkpt lat="44.58233" lon="4.33718">
        <ele>432.834381</ele>
        <time>2012-02-05T10:58:18Z</time>
      </trkpt>
      <trkpt lat="44.58241" lon="4.33713">
        <ele>434.004059</ele>
        <time>2012-02-05T10:58:20Z</time>
      </trkpt>
      <trkpt lat="44.58255" lon="4.33724">
        <ele>433.305328</ele>
        <time>2012-02-05T10:58:24Z</time>
      </trkpt>
      <trkpt lat="44.58272" lon="4.33745">
        <ele>431.535736</ele>
        <time>2012-02-05T10:58:30Z</time>
      </trkpt>
      <trkpt lat="44.58286" lon="4.33768">
        <ele>430.290466</ele>
        <time>2012-02-05T10:58:35Z</time>
      </trkpt>
      <trkpt lat="44.58303" lon="4.33798">
        <ele>428.623932</ele>
        <time>2012-02-05T10:58:41Z</time>
      </trkpt>
      <trkpt lat="44.58326" lon="4.33833">
        <ele>428.013641</ele>
        <time>2012-02-05T10:58:49Z</time>
      </trkpt>
      <trkpt lat="44.58339" lon="4.33852">
        <ele>428.237823</ele>
        <time>2012-02-05T10:58:55Z</time>
      </trkpt>
      <trkpt lat="44.58348" lon="4.33874">
        <ele>427.625183</ele>
        <time>2012-02-05T10:59:01Z</time>
      </trkpt>
      <trkpt lat="44.58354" lon="4.33894">
        <ele>426.685608</ele>
        <time>2012-02-05T10:59:06Z</time>
      </trkpt>
      <trkpt lat="44.58356" lon="4.33905">
        <ele>425.867615</ele>
        <time>2012-02-05T10:59:10Z</time>
      </trkpt>
      <trkpt lat="44.58358" lon="4.33907">
        <ele>425.871887</ele>
        <time>2012-02-05T10:59:14Z</time>
      </trkpt>
      <trkpt lat="44.58363" lon="4.339">
        <ele>427.066315</ele>
        <time>2012-02-05T10:59:34Z</time>
      </trkpt>
      <trkpt lat="44.58363" lon="4.33898">
        <ele>427.262329</ele>
        <time>2012-02-05T10:59:35Z</time>
      </trkpt>
      <trkpt lat="44.58364" lon="4.33894">
        <ele>427.800293</ele>
        <time>2012-02-05T10:59:37Z</time>
      </trkpt>
      <trkpt lat="44.5836" lon="4.33888">
        <ele>428.032654</ele>
        <time>2012-02-05T10:59:42Z</time>
      </trkpt>
      <trkpt lat="44.58355" lon="4.33892">
        <ele>426.971954</ele>
        <time>2012-02-05T10:59:46Z</time>
      </trkpt>
      <trkpt lat="44.58356" lon="4.33897">
        <ele>426.564484</ele>
        <time>2012-02-05T10:59:48Z</time>
      </trkpt>
      <trkpt lat="44.58359" lon="4.33915">
        <ele>425.227356</ele>
        <time>2012-02-05T10:59:54Z</time>
      </trkpt>
      <trkpt lat="44.58364" lon="4.3393">
        <ele>424.067719</ele>
        <time>2012-02-05T11:00:00Z</time>
      </trkpt>
      <trkpt lat="44.58374" lon="4.33944">
        <ele>423.152832</ele>
        <time>2012-02-05T11:00:03Z</time>
      </trkpt>
      <trkpt lat="44.58394" lon="4.33967">
        <ele>420.996948</ele>
        <time>2012-02-05T11:00:08Z</time>
      </trkpt>
      <trkpt lat="44.58399" lon="4.33972">
        <ele>420.489563</ele>
        <time>2012-02-05T11:00:09Z</time>
      </trkpt>
      <trkpt lat="44.58416" lon="4.33984">
        <ele>420.127228</ele>
        <time>2012-02-05T11:00:12Z</time>
      </trkpt>
      <trkpt lat="44.58429" lon="4.34009">
        <ele>417.941406</ele>
        <time>2012-02-05T11:00:16Z</time>
      </trkpt>
      <trkpt lat="44.58431" lon="4.34025">
        <ele>416.199158</ele>
        <time>2012-02-05T11:00:18Z</time>
      </trkpt>
      <trkpt lat="44.58432" lon="4.34047">
        <ele>413.932312</ele>
        <time>2012-02-05T11:00:21Z</time>
      </trkpt>
      <trkpt lat="44.58429" lon="4.3408">
        <ele>410.047485</ele>
        <time>2012-02-05T11:00:25Z</time>
      </trkpt>
      <trkpt lat="44.58438" lon="4.34111">
        <ele>409.421265</ele>
        <time>2012-02-05T11:00:29Z</time>
      </trkpt>
      <trkpt lat="44.58471" lon="4.34158">
        <ele>408.273743</ele>
        <time>2012-02-05T11:00:36Z</time>
      </trkpt>
      <trkpt lat="44.58483" lon="4.34172">
        <ele>407.334991</ele>
        <time>2012-02-05T11:00:38Z</time>
      </trkpt>
      <trkpt lat="44.58502" lon="4.34193">
        <ele>405.566376</ele>
        <time>2012-02-05T11:00:41Z</time>
      </trkpt>
      <trkpt lat="44.58548" lon="4.34231">
        <ele>400.837494</ele>
        <time>2012-02-05T11:00:47Z</time>
      </trkpt>
      <trkpt lat="44.58576" lon="4.34255">
        <ele>396.751556</ele>
        <time>2012-02-05T11:00:51Z</time>
      </trkpt>
      <trkpt lat="44.58583" lon="4.3426">
        <ele>395.877289</ele>
        <time>2012-02-05T11:00:52Z</time>
      </trkpt>
      <trkpt lat="44.58611" lon="4.34263">
        <ele>395.021729</ele>
        <time>2012-02-05T11:00:56Z</time>
      </trkpt>
      <trkpt lat="44.58617" lon="4.34261">
        <ele>395.288635</ele>
        <time>2012-02-05T11:00:57Z</time>
      </trkpt>
      <trkpt lat="44.58655" lon="4.34262">
        <ele>395.896881</ele>
        <time>2012-02-05T11:01:03Z</time>
      </trkpt>
      <trkpt lat="44.58673" lon="4.34263">
        <ele>396.890015</ele>
        <time>2012-02-05T11:01:06Z</time>
      </trkpt>
      <trkpt lat="44.58697" lon="4.34274">
        <ele>397.282501</ele>
        <time>2012-02-05T11:01:11Z</time>
      </trkpt>
      <trkpt lat="44.58704" lon="4.34282">
        <ele>396.650391</ele>
        <time>2012-02-05T11:01:13Z</time>
      </trkpt>
      <trkpt lat="44.58714" lon="4.34294">
        <ele>394.77002</ele>
        <time>2012-02-05T11:01:16Z</time>
      </trkpt>
      <trkpt lat="44.58723" lon="4.34303">
        <ele>393.327515</ele>
        <time>2012-02-05T11:01:18Z</time>
      </trkpt>
      <trkpt lat="44.58753" lon="4.34328">
        <ele>390.743347</ele>
        <time>2012-02-05T11:01:24Z</time>
      </trkpt>
      <trkpt lat="44.58793" lon="4.34363">
        <ele>387.509735</ele>
        <time>2012-02-05T11:01:31Z</time>
      </trkpt>
      <trkpt lat="44.58822" lon="4.34391">
        <ele>384.218262</ele>
        <time>2012-02-05T11:01:36Z</time>
      </trkpt>
      <trkpt lat="44.58844" lon="4.34415">
        <ele>381.623322</ele>
        <time>2012-02-05T11:01:41Z</time>
      </trkpt>
      <trkpt lat="44.58885" lon="4.34459">
        <ele>378.277374</ele>
        <time>2012-02-05T11:01:48Z</time>
      </trkpt>
      <trkpt lat="44.58895" lon="4.34473">
        <ele>376.525757</ele>
        <time>2012-02-05T11:01:50Z</time>
      </trkpt>
      <trkpt lat="44.58909" lon="4.34493">
        <ele>374.456238</ele>
        <time>2012-02-05T11:01:53Z</time>
      </trkpt>
      <trkpt lat="44.58925" lon="4.34526">
        <ele>372.515961</ele>
        <time>2012-02-05T11:01:58Z</time>
      </trkpt>
      <trkpt lat="44.58942" lon="4.34553">
        <ele>369.879456</ele>
        <time>2012-02-05T11:02:03Z</time>
      </trkpt>
      <trkpt lat="44.58949" lon="4.34569">
        <ele>368.586212</ele>
        <time>2012-02-05T11:02:06Z</time>
      </trkpt>
      <trkpt lat="44.58956" lon="4.34585">
        <ele>367.587006</ele>
        <time>2012-02-05T11:02:11Z</time>
      </trkpt>
      <trkpt lat="44.58956" lon="4.34587">
        <ele>367.508209</ele>
        <time>2012-02-05T11:02:12Z</time>
      </trkpt>
      <trkpt lat="44.58957" lon="4.34591">
        <ele>367.305145</ele>
        <time>2012-02-05T11:02:18Z</time>
      </trkpt>
      <trkpt lat="44.58956" lon="4.34592">
        <ele>367.326141</ele>
        <time>2012-02-05T11:02:28Z</time>
      </trkpt>
      <trkpt lat="44.58954" lon="4.34595">
        <ele>367.437622</ele>
        <time>2012-02-05T11:02:35Z</time>
      </trkpt>
      <trkpt lat="44.58952" lon="4.34595">
        <ele>367.580261</ele>
        <time>2012-02-05T11:02:43Z</time>
      </trkpt>
      <trkpt lat="44.58949" lon="4.34591">
        <ele>367.895691</ele>
        <time>2012-02-05T11:03:02Z</time>
      </trkpt>
      <trkpt lat="44.5895" lon="4.34595">
        <ele>367.691742</ele>
        <time>2012-02-05T11:03:10Z</time>
      </trkpt>
      <trkpt lat="44.58949" lon="4.34595">
        <ele>367.734009</ele>
        <time>2012-02-05T11:03:17Z</time>
      </trkpt>
      <trkpt lat="44.58951" lon="4.34597">
        <ele>367.547943</ele>
        <time>2012-02-05T11:03:25Z</time>
      </trkpt>
      <trkpt lat="44.58951" lon="4.34598">
        <ele>367.506012</ele>
        <time>2012-02-05T11:03:29Z</time>
      </trkpt>
      <trkpt lat="44.5896" lon="4.34599">
        <ele>366.878906</ele>
        <time>2012-02-05T11:03:34Z</time>
      </trkpt>
      <trkpt lat="44.58963" lon="4.34598">
        <ele>366.722839</ele>
        <time>2012-02-05T11:03:35Z</time>
      </trkpt>
      <trkpt lat="44.58977" lon="4.34595">
        <ele>365.327515</ele>
        <time>2012-02-05T11:03:40Z</time>
      </trkpt>
      <trkpt lat="44.58982" lon="4.34596">
        <ele>364.621368</ele>
        <time>2012-02-05T11:03:46Z</time>
      </trkpt>
      <trkpt lat="44.58987" lon="4.34598">
        <ele>363.893372</ele>
        <time>2012-02-05T11:04:06Z</time>
      </trkpt>
      <trkpt lat="44.58983" lon="4.34598">
        <ele>364.43512</ele>
        <time>2012-02-05T11:04:19Z</time>
      </trkpt>
      <trkpt lat="44.58982" lon="4.34609">
        <ele>364.398743</ele>
        <time>2012-02-05T11:04:39Z</time>
      </trkpt>
      <trkpt lat="44.58981" lon="4.34607">
        <ele>364.543549</ele>
        <time>2012-02-05T11:05:00Z</time>
      </trkpt>
      <trkpt lat="44.5898" lon="4.34607">
        <ele>364.689392</ele>
        <time>2012-02-05T11:05:18Z</time>
      </trkpt>
      <trkpt lat="44.58983" lon="4.34603">
        <ele>364.449341</ele>
        <time>2012-02-05T11:05:34Z</time>
      </trkpt>
      <trkpt lat="44.58984" lon="4.34595">
        <ele>364.347015</ele>
        <time>2012-02-05T11:05:38Z</time>
      </trkpt>
      <trkpt lat="44.58979" lon="4.34576">
        <ele>365.158813</ele>
        <time>2012-02-05T11:05:46Z</time>
      </trkpt>
      <trkpt lat="44.58979" lon="4.34554">
        <ele>365.53595</ele>
        <time>2012-02-05T11:05:53Z</time>
      </trkpt>
      <trkpt lat="44.58984" lon="4.3453">
        <ele>364.727509</ele>
        <time>2012-02-05T11:06:01Z</time>
      </trkpt>
      <trkpt lat="44.58984" lon="4.34507">
        <ele>364.772491</ele>
        <time>2012-02-05T11:06:08Z</time>
      </trkpt>
      <trkpt lat="44.58981" lon="4.34475">
        <ele>365.357513</ele>
        <time>2012-02-05T11:06:18Z</time>
      </trkpt>
      <trkpt lat="44.58979" lon="4.34454">
        <ele>365.829987</ele>
        <time>2012-02-05T11:06:25Z</time>
      </trkpt>
      <trkpt lat="44.58978" lon="4.34433">
        <ele>366.144989</ele>
        <time>2012-02-05T11:06:32Z</time>
      </trkpt>
      <trkpt lat="44.58978" lon="4.34417">
        <ele>366.190002</ele>
        <time>2012-02-05T11:06:37Z</time>
      </trkpt>
      <trkpt lat="44.58977" lon="4.34393">
        <ele>366.601074</ele>
        <time>2012-02-05T11:06:45Z</time>
      </trkpt>
      <trkpt lat="44.58976" lon="4.34369">
        <ele>366.755951</ele>
        <time>2012-02-05T11:06:53Z</time>
      </trkpt>
      <trkpt lat="44.58975" lon="4.34346">
        <ele>367.317322</ele>
        <time>2012-02-05T11:07:00Z</time>
      </trkpt>
      <trkpt lat="44.58976" lon="4.34318">
        <ele>367.550018</ele>
        <time>2012-02-05T11:07:08Z</time>
      </trkpt>
      <trkpt lat="44.58975" lon="4.34289">
        <ele>368.497253</ele>
        <time>2012-02-05T11:07:15Z</time>
      </trkpt>
      <trkpt lat="44.5897" lon="4.3426">
        <ele>370.062714</ele>
        <time>2012-02-05T11:07:22Z</time>
      </trkpt>
      <trkpt lat="44.58955" lon="4.3423">
        <ele>374.979462</ele>
        <time>2012-02-05T11:07:30Z</time>
      </trkpt>
      <trkpt lat="44.58946" lon="4.34198">
        <ele>377.096252</ele>
        <time>2012-02-05T11:07:38Z</time>
      </trkpt>
      <trkpt lat="44.5894" lon="4.34174">
        <ele>378.422516</ele>
        <time>2012-02-05T11:07:44Z</time>
      </trkpt>
      <trkpt lat="44.58929" lon="4.34153">
        <ele>381.608765</ele>
        <time>2012-02-05T11:07:50Z</time>
      </trkpt>
      <trkpt lat="44.58925" lon="4.34126">
        <ele>381.998749</ele>
        <time>2012-02-05T11:07:56Z</time>
      </trkpt>
      <trkpt lat="44.58919" lon="4.34081">
        <ele>382.734772</ele>
        <time>2012-02-05T11:08:03Z</time>
      </trkpt>
      <trkpt lat="44.58898" lon="4.34031">
        <ele>387.588959</ele>
        <time>2012-02-05T11:08:11Z</time>
      </trkpt>
      <trkpt lat="44.58889" lon="4.33994">
        <ele>388.928986</ele>
        <time>2012-02-05T11:08:18Z</time>
      </trkpt>
      <trkpt lat="44.58895" lon="4.33967">
        <ele>386.532318</ele>
        <time>2012-02-05T11:08:24Z</time>
      </trkpt>
      <trkpt lat="44.58895" lon="4.33964">
        <ele>386.411652</ele>
        <time>2012-02-05T11:08:25Z</time>
      </trkpt>
      <trkpt lat="44.58899" lon="4.33957">
        <ele>386.138489</ele>
        <time>2012-02-05T11:08:31Z</time>
      </trkpt>
      <trkpt lat="44.58901" lon="4.33955">
        <ele>386.117798</ele>
        <time>2012-02-05T11:08:52Z</time>
      </trkpt>
      <trkpt lat="44.58906" lon="4.33952">
        <ele>386.211334</ele>
        <time>2012-02-05T11:09:03Z</time>
      </trkpt>
      <trkpt lat="44.58905" lon="4.33955">
        <ele>386.122589</ele>
        <time>2012-02-05T11:09:11Z</time>
      </trkpt>
      <trkpt lat="44.58912" lon="4.33965">
        <ele>385.403687</ele>
        <time>2012-02-05T11:09:16Z</time>
      </trkpt>
      <trkpt lat="44.58918" lon="4.33988">
        <ele>383.502808</ele>
        <time>2012-02-05T11:09:21Z</time>
      </trkpt>
      <trkpt lat="44.58931" lon="4.34015">
        <ele>378.994873</ele>
        <time>2012-02-05T11:09:27Z</time>
      </trkpt>
      <trkpt lat="44.58947" lon="4.34027">
        <ele>377.922394</ele>
        <time>2012-02-05T11:09:33Z</time>
      </trkpt>
      <trkpt lat="44.58967" lon="4.34036">
        <ele>379.655518</ele>
        <time>2012-02-05T11:09:40Z</time>
      </trkpt>
      <trkpt lat="44.58989" lon="4.34048">
        <ele>381.772491</ele>
        <time>2012-02-05T11:09:48Z</time>
      </trkpt>
      <trkpt lat="44.59002" lon="4.34071">
        <ele>381.882507</ele>
        <time>2012-02-05T11:09:55Z</time>
      </trkpt>
      <trkpt lat="44.59008" lon="4.34087">
        <ele>381.070007</ele>
        <time>2012-02-05T11:09:59Z</time>
      </trkpt>
      <trkpt lat="44.5902" lon="4.34107">
        <ele>381.196259</ele>
        <time>2012-02-05T11:10:06Z</time>
      </trkpt>
      <trkpt lat="44.59031" lon="4.34133">
        <ele>379.918365</ele>
        <time>2012-02-05T11:10:14Z</time>
      </trkpt>
      <trkpt lat="44.59036" lon="4.34151">
        <ele>378.569611</ele>
        <time>2012-02-05T11:10:19Z</time>
      </trkpt>
      <trkpt lat="44.59046" lon="4.34172">
        <ele>378.626465</ele>
        <time>2012-02-05T11:10:26Z</time>
      </trkpt>
      <trkpt lat="44.59057" lon="4.34194">
        <ele>378.703369</ele>
        <time>2012-02-05T11:10:34Z</time>
      </trkpt>
      <trkpt lat="44.59069" lon="4.34208">
        <ele>380.145111</ele>
        <time>2012-02-05T11:10:41Z</time>
      </trkpt>
      <trkpt lat="44.59081" lon="4.34218">
        <ele>382.206879</ele>
        <time>2012-02-05T11:10:48Z</time>
      </trkpt>
      <trkpt lat="44.59092" lon="4.34225">
        <ele>384.303192</ele>
        <time>2012-02-05T11:10:54Z</time>
      </trkpt>
      <trkpt lat="44.59106" lon="4.34224">
        <ele>388.865021</ele>
        <time>2012-02-05T11:11:01Z</time>
      </trkpt>
      <trkpt lat="44.59122" lon="4.34226">
        <ele>392.514038</ele>
        <time>2012-02-05T11:11:09Z</time>
      </trkpt>
      <trkpt lat="44.59142" lon="4.34233">
        <ele>395.180084</ele>
        <time>2012-02-05T11:11:18Z</time>
      </trkpt>
      <trkpt lat="44.5916" lon="4.34249">
        <ele>397.926788</ele>
        <time>2012-02-05T11:11:26Z</time>
      </trkpt>
      <trkpt lat="44.59171" lon="4.34263">
        <ele>399.98645</ele>
        <time>2012-02-05T11:11:32Z</time>
      </trkpt>
      <trkpt lat="44.59173" lon="4.34279">
        <ele>400.112152</ele>
        <time>2012-02-05T11:11:37Z</time>
      </trkpt>
      <trkpt lat="44.59169" lon="4.34295">
        <ele>398.565186</ele>
        <time>2012-02-05T11:11:42Z</time>
      </trkpt>
      <trkpt lat="44.59163" lon="4.3432">
        <ele>397.877106</ele>
        <time>2012-02-05T11:11:50Z</time>
      </trkpt>
      <trkpt lat="44.59158" lon="4.34353">
        <ele>398.244232</ele>
        <time>2012-02-05T11:11:58Z</time>
      </trkpt>
      <trkpt lat="44.59157" lon="4.34382">
        <ele>398.256531</ele>
        <time>2012-02-05T11:12:05Z</time>
      </trkpt>
      <trkpt lat="44.59158" lon="4.3442">
        <ele>397.984192</ele>
        <time>2012-02-05T11:12:14Z</time>
      </trkpt>
      <trkpt lat="44.59164" lon="4.34445">
        <ele>397.089691</ele>
        <time>2012-02-05T11:12:21Z</time>
      </trkpt>
      <trkpt lat="44.59174" lon="4.34476">
        <ele>396.687012</ele>
        <time>2012-02-05T11:12:29Z</time>
      </trkpt>
      <trkpt lat="44.59189" lon="4.34496">
        <ele>399.326721</ele>
        <time>2012-02-05T11:12:36Z</time>
      </trkpt>
      <trkpt lat="44.59203" lon="4.34514">
        <ele>399.423492</ele>
        <time>2012-02-05T11:12:42Z</time>
      </trkpt>
      <trkpt lat="44.59221" lon="4.34532">
        <ele>399.089691</ele>
        <time>2012-02-05T11:12:49Z</time>
      </trkpt>
      <trkpt lat="44.59239" lon="4.34547">
        <ele>399.451294</ele>
        <time>2012-02-05T11:12:55Z</time>
      </trkpt>
      <trkpt lat="44.59256" lon="4.34547">
        <ele>399.663757</ele>
        <time>2012-02-05T11:13:00Z</time>
      </trkpt>
      <trkpt lat="44.59273" lon="4.34541">
        <ele>400.461243</ele>
        <time>2012-02-05T11:13:06Z</time>
      </trkpt>
      <trkpt lat="44.5929" lon="4.34534">
        <ele>400.999878</ele>
        <time>2012-02-05T11:13:12Z</time>
      </trkpt>
      <trkpt lat="44.59307" lon="4.34521">
        <ele>400.858124</ele>
        <time>2012-02-05T11:13:18Z</time>
      </trkpt>
      <trkpt lat="44.59322" lon="4.34504">
        <ele>402.061188</ele>
        <time>2012-02-05T11:13:24Z</time>
      </trkpt>
      <trkpt lat="44.5934" lon="4.34482">
        <ele>403.865875</ele>
        <time>2012-02-05T11:13:32Z</time>
      </trkpt>
      <trkpt lat="44.59361" lon="4.34454">
        <ele>406.365631</ele>
        <time>2012-02-05T11:13:41Z</time>
      </trkpt>
      <trkpt lat="44.59373" lon="4.34449">
        <ele>406.396423</ele>
        <time>2012-02-05T11:13:45Z</time>
      </trkpt>
      <trkpt lat="44.59388" lon="4.34459">
        <ele>405.26358</ele>
        <time>2012-02-05T11:13:49Z</time>
      </trkpt>
      <trkpt lat="44.594" lon="4.34489">
        <ele>402.468903</ele>
        <time>2012-02-05T11:13:55Z</time>
      </trkpt>
      <trkpt lat="44.59415" lon="4.3452">
        <ele>400.862793</ele>
        <time>2012-02-05T11:14:02Z</time>
      </trkpt>
      <trkpt lat="44.59429" lon="4.34547">
        <ele>400.224579</ele>
        <time>2012-02-05T11:14:09Z</time>
      </trkpt>
      <trkpt lat="44.5944" lon="4.34561">
        <ele>400.139221</ele>
        <time>2012-02-05T11:14:14Z</time>
      </trkpt>
      <trkpt lat="44.59463" lon="4.34571">
        <ele>401.6698</ele>
        <time>2012-02-05T11:14:21Z</time>
      </trkpt>
      <trkpt lat="44.59487" lon="4.34566">
        <ele>402.617798</ele>
        <time>2012-02-05T11:14:28Z</time>
      </trkpt>
      <trkpt lat="44.5951" lon="4.3455">
        <ele>404.492126</ele>
        <time>2012-02-05T11:14:35Z</time>
      </trkpt>
      <trkpt lat="44.59525" lon="4.34534">
        <ele>405.380249</ele>
        <time>2012-02-05T11:14:41Z</time>
      </trkpt>
      <trkpt lat="44.59554" lon="4.34504">
        <ele>407.744812</ele>
        <time>2012-02-05T11:14:52Z</time>
      </trkpt>
      <trkpt lat="44.59578" lon="4.34476">
        <ele>409.998444</ele>
        <time>2012-02-05T11:15:01Z</time>
      </trkpt>
      <trkpt lat="44.59595" lon="4.34454">
        <ele>412.673889</ele>
        <time>2012-02-05T11:15:08Z</time>
      </trkpt>
      <trkpt lat="44.59614" lon="4.34443">
        <ele>414.865631</ele>
        <time>2012-02-05T11:15:14Z</time>
      </trkpt>
      <trkpt lat="44.59637" lon="4.34444">
        <ele>415.612122</ele>
        <time>2012-02-05T11:15:21Z</time>
      </trkpt>
      <trkpt lat="44.59656" lon="4.34452">
        <ele>415.161102</ele>
        <time>2012-02-05T11:15:28Z</time>
      </trkpt>
      <trkpt lat="44.59684" lon="4.34465">
        <ele>415.798004</ele>
        <time>2012-02-05T11:15:38Z</time>
      </trkpt>
      <trkpt lat="44.59703" lon="4.34472">
        <ele>416.387543</ele>
        <time>2012-02-05T11:15:45Z</time>
      </trkpt>
      <trkpt lat="44.59722" lon="4.3448">
        <ele>417.01239</ele>
        <time>2012-02-05T11:15:52Z</time>
      </trkpt>
      <trkpt lat="44.59742" lon="4.34481">
        <ele>418.8862</ele>
        <time>2012-02-05T11:15:59Z</time>
      </trkpt>
      <trkpt lat="44.59759" lon="4.34474">
        <ele>420.737427</ele>
        <time>2012-02-05T11:16:05Z</time>
      </trkpt>
      <trkpt lat="44.59766" lon="4.34468">
        <ele>421.858673</ele>
        <time>2012-02-05T11:16:09Z</time>
      </trkpt>
      <trkpt lat="44.59767" lon="4.34451">
        <ele>423.926666</ele>
        <time>2012-02-05T11:16:15Z</time>
      </trkpt>
      <trkpt lat="44.59761" lon="4.34432">
        <ele>425.765564</ele>
        <time>2012-02-05T11:16:22Z</time>
      </trkpt>
      <trkpt lat="44.59758" lon="4.3441">
        <ele>427.900055</ele>
        <time>2012-02-05T11:16:30Z</time>
      </trkpt>
      <trkpt lat="44.59757" lon="4.34406">
        <ele>428.332367</ele>
        <time>2012-02-05T11:16:32Z</time>
      </trkpt>
      <trkpt lat="44.59759" lon="4.34403">
        <ele>428.573517</ele>
        <time>2012-02-05T11:16:37Z</time>
      </trkpt>
      <trkpt lat="44.5976" lon="4.34403">
        <ele>428.614532</ele>
        <time>2012-02-05T11:16:42Z</time>
      </trkpt>
      <trkpt lat="44.59761" lon="4.34403">
        <ele>428.57724</ele>
        <time>2012-02-05T11:16:53Z</time>
      </trkpt>
      <trkpt lat="44.5976" lon="4.34404">
        <ele>428.471344</ele>
        <time>2012-02-05T11:17:16Z</time>
      </trkpt>
      <trkpt lat="44.59761" lon="4.34404">
        <ele>428.417114</ele>
        <time>2012-02-05T11:17:36Z</time>
      </trkpt>
      <trkpt lat="44.59761" lon="4.34405">
        <ele>428.329254</ele>
        <time>2012-02-05T11:17:47Z</time>
      </trkpt>
      <trkpt lat="44.59761" lon="4.34407">
        <ele>428.173584</ele>
        <time>2012-02-05T11:18:06Z</time>
      </trkpt>
      <trkpt lat="44.5976" lon="4.34408">
        <ele>428.030548</ele>
        <time>2012-02-05T11:18:07Z</time>
      </trkpt>
      <trkpt lat="44.59757" lon="4.34406">
        <ele>428.388245</ele>
        <time>2012-02-05T11:18:12Z</time>
      </trkpt>
      <trkpt lat="44.59762" lon="4.34396">
        <ele>429.206787</ele>
        <time>2012-02-05T11:18:20Z</time>
      </trkpt>
      <trkpt lat="44.59763" lon="4.34391">
        <ele>429.62207</ele>
        <time>2012-02-05T11:18:23Z</time>
      </trkpt>
      <trkpt lat="44.59762" lon="4.34371">
        <ele>431.638794</ele>
        <time>2012-02-05T11:18:32Z</time>
      </trkpt>
      <trkpt lat="44.59761" lon="4.3436">
        <ele>432.734436</ele>
        <time>2012-02-05T11:18:37Z</time>
      </trkpt>
      <trkpt lat="44.59757" lon="4.34349">
        <ele>434.159393</ele>
        <time>2012-02-05T11:18:42Z</time>
      </trkpt>
      <trkpt lat="44.59757" lon="4.34333">
        <ele>435.773438</ele>
        <time>2012-02-05T11:18:50Z</time>
      </trkpt>
      <trkpt lat="44.59758" lon="4.3432">
        <ele>436.995575</ele>
        <time>2012-02-05T11:18:58Z</time>
      </trkpt>
      <trkpt lat="44.59759" lon="4.34299">
        <ele>438.107422</ele>
        <time>2012-02-05T11:19:08Z</time>
      </trkpt>
      <trkpt lat="44.59762" lon="4.34284">
        <ele>438.632507</ele>
        <time>2012-02-05T11:19:15Z</time>
      </trkpt>
      <trkpt lat="44.59767" lon="4.34262">
        <ele>439.347595</ele>
        <time>2012-02-05T11:19:24Z</time>
      </trkpt>
      <trkpt lat="44.59769" lon="4.34241">
        <ele>439.529602</ele>
        <time>2012-02-05T11:19:32Z</time>
      </trkpt>
      <trkpt lat="44.59771" lon="4.34223">
        <ele>439.509674</ele>
        <time>2012-02-05T11:19:40Z</time>
      </trkpt>
      <trkpt lat="44.59777" lon="4.34205">
        <ele>439.044006</ele>
        <time>2012-02-05T11:19:49Z</time>
      </trkpt>
      <trkpt lat="44.5978" lon="4.34191">
        <ele>438.809174</ele>
        <time>2012-02-05T11:19:57Z</time>
      </trkpt>
      <trkpt lat="44.59781" lon="4.34184">
        <ele>438.597198</ele>
        <time>2012-02-05T11:20:01Z</time>
      </trkpt>
      <trkpt lat="44.59789" lon="4.34177">
        <ele>437.726624</ele>
        <time>2012-02-05T11:20:07Z</time>
      </trkpt>
      <trkpt lat="44.59794" lon="4.34177">
        <ele>437.690582</ele>
        <time>2012-02-05T11:20:09Z</time>
      </trkpt>
      <trkpt lat="44.59803" lon="4.34176">
        <ele>437.614624</ele>
        <time>2012-02-05T11:20:16Z</time>
      </trkpt>
      <trkpt lat="44.59814" lon="4.34177">
        <ele>437.549866</ele>
        <time>2012-02-05T11:20:24Z</time>
      </trkpt>
      <trkpt lat="44.59822" lon="4.34182">
        <ele>437.625366</ele>
        <time>2012-02-05T11:20:30Z</time>
      </trkpt>
      <trkpt lat="44.59834" lon="4.34183">
        <ele>437.6362</ele>
        <time>2012-02-05T11:20:36Z</time>
      </trkpt>
      <trkpt lat="44.59851" lon="4.34184">
        <ele>438.483551</ele>
        <time>2012-02-05T11:20:43Z</time>
      </trkpt>
      <trkpt lat="44.59854" lon="4.34184">
        <ele>438.604309</ele>
        <time>2012-02-05T11:20:45Z</time>
      </trkpt>
      <trkpt lat="44.59867" lon="4.34184">
        <ele>439.224182</ele>
        <time>2012-02-05T11:20:52Z</time>
      </trkpt>
      <trkpt lat="44.5988" lon="4.3418">
        <ele>439.282501</ele>
        <time>2012-02-05T11:21:00Z</time>
      </trkpt>
      <trkpt lat="44.59892" lon="4.34175">
        <ele>438.494995</ele>
        <time>2012-02-05T11:21:06Z</time>
      </trkpt>
      <trkpt lat="44.59905" lon="4.34176">
        <ele>438.320007</ele>
        <time>2012-02-05T11:21:11Z</time>
      </trkpt>
      <trkpt lat="44.59919" lon="4.34186">
        <ele>438.855011</ele>
        <time>2012-02-05T11:21:17Z</time>
      </trkpt>
      <trkpt lat="44.59932" lon="4.34193">
        <ele>437.905243</ele>
        <time>2012-02-05T11:21:21Z</time>
      </trkpt>
      <trkpt lat="44.59949" lon="4.34212">
        <ele>435.890656</ele>
        <time>2012-02-05T11:21:26Z</time>
      </trkpt>
      <trkpt lat="44.59958" lon="4.34224">
        <ele>434.818237</ele>
        <time>2012-02-05T11:21:30Z</time>
      </trkpt>
      <trkpt lat="44.59966" lon="4.34231">
        <ele>434.070313</ele>
        <time>2012-02-05T11:21:33Z</time>
      </trkpt>
      <trkpt lat="44.59984" lon="4.34244">
        <ele>431.927612</ele>
        <time>2012-02-05T11:21:38Z</time>
      </trkpt>
      <trkpt lat="44.60002" lon="4.34259">
        <ele>430.619415</ele>
        <time>2012-02-05T11:21:42Z</time>
      </trkpt>
      <trkpt lat="44.60023" lon="4.3427">
        <ele>428.204895</ele>
        <time>2012-02-05T11:21:46Z</time>
      </trkpt>
      <trkpt lat="44.60039" lon="4.34279">
        <ele>426.290985</ele>
        <time>2012-02-05T11:21:49Z</time>
      </trkpt>
      <trkpt lat="44.60053" lon="4.34293">
        <ele>425.425385</ele>
        <time>2012-02-05T11:21:54Z</time>
      </trkpt>
      <trkpt lat="44.60062" lon="4.34301">
        <ele>424.669952</ele>
        <time>2012-02-05T11:21:58Z</time>
      </trkpt>
      <trkpt lat="44.60076" lon="4.34312">
        <ele>423.187531</ele>
        <time>2012-02-05T11:22:05Z</time>
      </trkpt>
      <trkpt lat="44.60088" lon="4.34327">
        <ele>423.233429</ele>
        <time>2012-02-05T11:22:12Z</time>
      </trkpt>
      <trkpt lat="44.60098" lon="4.34346">
        <ele>422.467041</ele>
        <time>2012-02-05T11:22:18Z</time>
      </trkpt>
      <trkpt lat="44.60102" lon="4.3436">
        <ele>421.91925</ele>
        <time>2012-02-05T11:22:21Z</time>
      </trkpt>
      <trkpt lat="44.60103" lon="4.34375">
        <ele>421.90863</ele>
        <time>2012-02-05T11:22:25Z</time>
      </trkpt>
      <trkpt lat="44.60108" lon="4.34377">
        <ele>421.152802</ele>
        <time>2012-02-05T11:22:27Z</time>
      </trkpt>
      <trkpt lat="44.60113" lon="4.34379">
        <ele>420.032684</ele>
        <time>2012-02-05T11:22:29Z</time>
      </trkpt>
      <trkpt lat="44.60124" lon="4.34369">
        <ele>417.503571</ele>
        <time>2012-02-05T11:22:34Z</time>
      </trkpt>
      <trkpt lat="44.60127" lon="4.34355">
        <ele>416.513641</ele>
        <time>2012-02-05T11:22:37Z</time>
      </trkpt>
      <trkpt lat="44.60121" lon="4.34328">
        <ele>416.165558</ele>
        <time>2012-02-05T11:22:42Z</time>
      </trkpt>
      <trkpt lat="44.60112" lon="4.34302">
        <ele>413.761475</ele>
        <time>2012-02-05T11:22:47Z</time>
      </trkpt>
      <trkpt lat="44.60105" lon="4.34285">
        <ele>413.23584</ele>
        <time>2012-02-05T11:22:53Z</time>
      </trkpt>
      <trkpt lat="44.60109" lon="4.34279">
        <ele>410.9133</ele>
        <time>2012-02-05T11:22:58Z</time>
      </trkpt>
      <trkpt lat="44.60111" lon="4.34281">
        <ele>410.535248</ele>
        <time>2012-02-05T11:22:59Z</time>
      </trkpt>
      <trkpt lat="44.6013" lon="4.34301">
        <ele>407.882385</ele>
        <time>2012-02-05T11:23:04Z</time>
      </trkpt>
      <trkpt lat="44.60139" lon="4.3431">
        <ele>407.237793</ele>
        <time>2012-02-05T11:23:06Z</time>
      </trkpt>
      <trkpt lat="44.60148" lon="4.34321">
        <ele>407.09021</ele>
        <time>2012-02-05T11:23:08Z</time>
      </trkpt>
      <trkpt lat="44.60157" lon="4.34337">
        <ele>406.323914</ele>
        <time>2012-02-05T11:23:12Z</time>
      </trkpt>
      <trkpt lat="44.60161" lon="4.34345">
        <ele>405.344025</ele>
        <time>2012-02-05T11:23:14Z</time>
      </trkpt>
      <trkpt lat="44.60174" lon="4.3436">
        <ele>400.652466</ele>
        <time>2012-02-05T11:23:21Z</time>
      </trkpt>
      <trkpt lat="44.60185" lon="4.34365">
        <ele>395.816833</ele>
        <time>2012-02-05T11:23:26Z</time>
      </trkpt>
      <trkpt lat="44.60197" lon="4.34371">
        <ele>390.545013</ele>
        <time>2012-02-05T11:23:31Z</time>
      </trkpt>
      <trkpt lat="44.602" lon="4.34389">
        <ele>389.359985</ele>
        <time>2012-02-05T11:23:35Z</time>
      </trkpt>
      <trkpt lat="44.60196" lon="4.34403">
        <ele>391.30191</ele>
        <time>2012-02-05T11:23:39Z</time>
      </trkpt>
      <trkpt lat="44.60192" lon="4.34421">
        <ele>392.847656</ele>
        <time>2012-02-05T11:23:46Z</time>
      </trkpt>
      <trkpt lat="44.60191" lon="4.34424">
        <ele>392.828064</ele>
        <time>2012-02-05T11:23:47Z</time>
      </trkpt>
      <trkpt lat="44.60196" lon="4.3443">
        <ele>390.186371</ele>
        <time>2012-02-05T11:23:52Z</time>
      </trkpt>
      <trkpt lat="44.60205" lon="4.34415">
        <ele>386.310272</ele>
        <time>2012-02-05T11:23:57Z</time>
      </trkpt>
      <trkpt lat="44.60221" lon="4.34384">
        <ele>378.38501</ele>
        <time>2012-02-05T11:24:02Z</time>
      </trkpt>
      <trkpt lat="44.60223" lon="4.34378">
        <ele>377.105011</ele>
        <time>2012-02-05T11:24:03Z</time>
      </trkpt>
      <trkpt lat="44.60225" lon="4.34352">
        <ele>375.747498</ele>
        <time>2012-02-05T11:24:07Z</time>
      </trkpt>
      <trkpt lat="44.60219" lon="4.34335">
        <ele>378.350403</ele>
        <time>2012-02-05T11:24:10Z</time>
      </trkpt>
      <trkpt lat="44.60222" lon="4.34328">
        <ele>375.826416</ele>
        <time>2012-02-05T11:24:15Z</time>
      </trkpt>
      <trkpt lat="44.60232" lon="4.34335">
        <ele>371.601685</ele>
        <time>2012-02-05T11:24:18Z</time>
      </trkpt>
      <trkpt lat="44.60237" lon="4.34343">
        <ele>369.802734</ele>
        <time>2012-02-05T11:24:21Z</time>
      </trkpt>
      <trkpt lat="44.6024" lon="4.34348">
        <ele>369.226868</ele>
        <time>2012-02-05T11:24:24Z</time>
      </trkpt>
      <trkpt lat="44.60242" lon="4.3435">
        <ele>368.702606</ele>
        <time>2012-02-05T11:24:30Z</time>
      </trkpt>
      <trkpt lat="44.60241" lon="4.3435">
        <ele>368.918457</ele>
        <time>2012-02-05T11:24:46Z</time>
      </trkpt>
      <trkpt lat="44.6024" lon="4.34347">
        <ele>369.245453</ele>
        <time>2012-02-05T11:24:48Z</time>
      </trkpt>
      <trkpt lat="44.60234" lon="4.34337">
        <ele>370.547485</ele>
        <time>2012-02-05T11:24:55Z</time>
      </trkpt>
      <trkpt lat="44.60236" lon="4.34335">
        <ele>369.721283</ele>
        <time>2012-02-05T11:25:09Z</time>
      </trkpt>
      <trkpt lat="44.60237" lon="4.34333">
        <ele>369.40976</ele>
        <time>2012-02-05T11:25:14Z</time>
      </trkpt>
      <trkpt lat="44.60238" lon="4.34333">
        <ele>369.201691</ele>
        <time>2012-02-05T11:25:28Z</time>
      </trkpt>
      <trkpt lat="44.60238" lon="4.34332">
        <ele>369.233582</ele>
        <time>2012-02-05T11:25:39Z</time>
      </trkpt>
      <trkpt lat="44.60237" lon="4.34333">
        <ele>369.360748</ele>
        <time>2012-02-05T11:25:53Z</time>
      </trkpt>
      <trkpt lat="44.60236" lon="4.34325">
        <ele>368.866913</ele>
        <time>2012-02-05T11:25:59Z</time>
      </trkpt>
      <trkpt lat="44.60236" lon="4.34325">
        <ele>368.929565</ele>
        <time>2012-02-05T11:26:12Z</time>
      </trkpt>
      <trkpt lat="44.60238" lon="4.34327">
        <ele>368.754608</ele>
        <time>2012-02-05T11:26:18Z</time>
      </trkpt>
      <trkpt lat="44.60239" lon="4.34331">
        <ele>368.967987</ele>
        <time>2012-02-05T11:26:27Z</time>
      </trkpt>
      <trkpt lat="44.60238" lon="4.3433">
        <ele>369.131989</ele>
        <time>2012-02-05T11:26:50Z</time>
      </trkpt>
      <trkpt lat="44.60238" lon="4.3433">
        <ele>369.034882</ele>
        <time>2012-02-05T11:27:04Z</time>
      </trkpt>
      <trkpt lat="44.60237" lon="4.34329">
        <ele>369.076996</ele>
        <time>2012-02-05T11:27:15Z</time>
      </trkpt>
      <trkpt lat="44.60235" lon="4.34325">
        <ele>369.142303</ele>
        <time>2012-02-05T11:27:21Z</time>
      </trkpt>
      <trkpt lat="44.60234" lon="4.34324">
        <ele>369.480988</ele>
        <time>2012-02-05T11:27:26Z</time>
      </trkpt>
      <trkpt lat="44.60234" lon="4.34325">
        <ele>369.474487</ele>
        <time>2012-02-05T11:27:31Z</time>
      </trkpt>
      <trkpt lat="44.60235" lon="4.34326">
        <ele>369.458466</ele>
        <time>2012-02-05T11:27:37Z</time>
      </trkpt>
      <trkpt lat="44.60232" lon="4.34325">
        <ele>370.375305</ele>
        <time>2012-02-05T11:27:45Z</time>
      </trkpt>
      <trkpt lat="44.60233" lon="4.34326">
        <ele>370.373138</ele>
        <time>2012-02-05T11:27:54Z</time>
      </trkpt>
      <trkpt lat="44.60232" lon="4.34326">
        <ele>370.869507</ele>
        <time>2012-02-05T11:28:04Z</time>
      </trkpt>
      <trkpt lat="44.60234" lon="4.34328">
        <ele>369.972839</ele>
        <time>2012-02-05T11:28:12Z</time>
      </trkpt>
      <trkpt lat="44.60237" lon="4.34332">
        <ele>369.38385</ele>
        <time>2012-02-05T11:28:17Z</time>
      </trkpt>
      <trkpt lat="44.60238" lon="4.34336">
        <ele>369.544708</ele>
        <time>2012-02-05T11:28:22Z</time>
      </trkpt>
      <trkpt lat="44.60239" lon="4.34343">
        <ele>369.301483</ele>
        <time>2012-02-05T11:28:29Z</time>
      </trkpt>
      <trkpt lat="44.60241" lon="4.34347">
        <ele>369.013092</ele>
        <time>2012-02-05T11:28:38Z</time>
      </trkpt>
      <trkpt lat="44.60242" lon="4.34344">
        <ele>368.806427</ele>
        <time>2012-02-05T11:28:45Z</time>
      </trkpt>
      <trkpt lat="44.60242" lon="4.34345">
        <ele>368.684814</ele>
        <time>2012-02-05T11:28:49Z</time>
      </trkpt>
      <trkpt lat="44.60242" lon="4.34344">
        <ele>368.758148</ele>
        <time>2012-02-05T11:28:54Z</time>
      </trkpt>
      <trkpt lat="44.60241" lon="4.34343">
        <ele>368.900482</ele>
        <time>2012-02-05T11:29:02Z</time>
      </trkpt>
      <trkpt lat="44.60242" lon="4.34342">
        <ele>368.828033</ele>
        <time>2012-02-05T11:29:24Z</time>
      </trkpt>
      <trkpt lat="44.60241" lon="4.34343">
        <ele>368.898895</ele>
        <time>2012-02-05T11:29:46Z</time>
      </trkpt>
      <trkpt lat="44.60242" lon="4.34343">
        <ele>368.6875</ele>
        <time>2012-02-05T11:29:59Z</time>
      </trkpt>
      <trkpt lat="44.60244" lon="4.34344">
        <ele>368.426544</ele>
        <time>2012-02-05T11:30:06Z</time>
      </trkpt>
      <trkpt lat="44.60244" lon="4.34343">
        <ele>368.405975</ele>
        <time>2012-02-05T11:30:10Z</time>
      </trkpt>
      <trkpt lat="44.60243" lon="4.34345">
        <ele>368.562866</ele>
        <time>2012-02-05T11:30:16Z</time>
      </trkpt>
      <trkpt lat="44.60244" lon="4.3435">
        <ele>368.190918</ele>
        <time>2012-02-05T11:30:23Z</time>
      </trkpt>
      <trkpt lat="44.60246" lon="4.3436">
        <ele>367.458649</ele>
        <time>2012-02-05T11:30:28Z</time>
      </trkpt>
      <trkpt lat="44.60242" lon="4.34378">
        <ele>368.54129</ele>
        <time>2012-02-05T11:30:35Z</time>
      </trkpt>
      <trkpt lat="44.60237" lon="4.34393">
        <ele>370.477264</ele>
        <time>2012-02-05T11:30:40Z</time>
      </trkpt>
      <trkpt lat="44.6023" lon="4.3441">
        <ele>374.152222</ele>
        <time>2012-02-05T11:30:45Z</time>
      </trkpt>
      <trkpt lat="44.60219" lon="4.34433">
        <ele>379.170624</ele>
        <time>2012-02-05T11:30:52Z</time>
      </trkpt>
      <trkpt lat="44.60214" lon="4.34456">
        <ele>381.046967</ele>
        <time>2012-02-05T11:30:58Z</time>
      </trkpt>
      <trkpt lat="44.60207" lon="4.34479">
        <ele>382.234009</ele>
        <time>2012-02-05T11:31:05Z</time>
      </trkpt>
      <trkpt lat="44.60194" lon="4.34506">
        <ele>385.045105</ele>
        <time>2012-02-05T11:31:12Z</time>
      </trkpt>
      <trkpt lat="44.60188" lon="4.3453">
        <ele>384.842499</ele>
        <time>2012-02-05T11:31:17Z</time>
      </trkpt>
      <trkpt lat="44.60181" lon="4.34554">
        <ele>384.838898</ele>
        <time>2012-02-05T11:31:22Z</time>
      </trkpt>
      <trkpt lat="44.60175" lon="4.34588">
        <ele>383.321594</ele>
        <time>2012-02-05T11:31:29Z</time>
      </trkpt>
      <trkpt lat="44.60169" lon="4.34622">
        <ele>381.09787</ele>
        <time>2012-02-05T11:31:36Z</time>
      </trkpt>
      <trkpt lat="44.60164" lon="4.34651">
        <ele>378.595123</ele>
        <time>2012-02-05T11:31:43Z</time>
      </trkpt>
      <trkpt lat="44.60156" lon="4.34675">
        <ele>377.089905</ele>
        <time>2012-02-05T11:31:50Z</time>
      </trkpt>
      <trkpt lat="44.60142" lon="4.34691">
        <ele>377.348999</ele>
        <time>2012-02-05T11:31:57Z</time>
      </trkpt>
      <trkpt lat="44.60128" lon="4.34694">
        <ele>378.445587</ele>
        <time>2012-02-05T11:32:03Z</time>
      </trkpt>
      <trkpt lat="44.60109" lon="4.34688">
        <ele>381.053345</ele>
        <time>2012-02-05T11:32:10Z</time>
      </trkpt>
      <trkpt lat="44.60093" lon="4.34682">
        <ele>383.677765</ele>
        <time>2012-02-05T11:32:15Z</time>
      </trkpt>
      <trkpt lat="44.60077" lon="4.34671">
        <ele>387.551117</ele>
        <time>2012-02-05T11:32:20Z</time>
      </trkpt>
      <trkpt lat="44.6006" lon="4.34655">
        <ele>391.760071</ele>
        <time>2012-02-05T11:32:26Z</time>
      </trkpt>
      <trkpt lat="44.6005" lon="4.34651">
        <ele>393.089996</ele>
        <time>2012-02-05T11:32:29Z</time>
      </trkpt>
      <trkpt lat="44.60041" lon="4.34664">
        <ele>392.662231</ele>
        <time>2012-02-05T11:32:33Z</time>
      </trkpt>
      <trkpt lat="44.60041" lon="4.34673">
        <ele>391.599091</ele>
        <time>2012-02-05T11:32:35Z</time>
      </trkpt>
      <trkpt lat="44.60036" lon="4.34702">
        <ele>389.350769</ele>
        <time>2012-02-05T11:32:42Z</time>
      </trkpt>
      <trkpt lat="44.60032" lon="4.34729">
        <ele>385.466736</ele>
        <time>2012-02-05T11:32:49Z</time>
      </trkpt>
      <trkpt lat="44.60028" lon="4.34752">
        <ele>382.245392</ele>
        <time>2012-02-05T11:32:56Z</time>
      </trkpt>
      <trkpt lat="44.60024" lon="4.34771">
        <ele>379.94751</ele>
        <time>2012-02-05T11:33:03Z</time>
      </trkpt>
      <trkpt lat="44.60018" lon="4.34784">
        <ele>380.577484</ele>
        <time>2012-02-05T11:33:08Z</time>
      </trkpt>
      <trkpt lat="44.60007" lon="4.34802">
        <ele>381.487488</ele>
        <time>2012-02-05T11:33:12Z</time>
      </trkpt>
      <trkpt lat="44.60001" lon="4.34814">
        <ele>382.102509</ele>
        <time>2012-02-05T11:33:16Z</time>
      </trkpt>
      <trkpt lat="44.59999" lon="4.34815">
        <ele>382.213745</ele>
        <time>2012-02-05T11:33:17Z</time>
      </trkpt>
      <trkpt lat="44.59998" lon="4.34817">
        <ele>382.223755</ele>
        <time>2012-02-05T11:33:23Z</time>
      </trkpt>
      <trkpt lat="44.59985" lon="4.34823">
        <ele>383.743744</ele>
        <time>2012-02-05T11:33:29Z</time>
      </trkpt>
      <trkpt lat="44.59963" lon="4.34815">
        <ele>388.459991</ele>
        <time>2012-02-05T11:33:36Z</time>
      </trkpt>
      <trkpt lat="44.59949" lon="4.3481">
        <ele>390.380005</ele>
        <time>2012-02-05T11:33:41Z</time>
      </trkpt>
      <trkpt lat="44.59934" lon="4.34802">
        <ele>391.512512</ele>
        <time>2012-02-05T11:33:45Z</time>
      </trkpt>
      <trkpt lat="44.59915" lon="4.34785">
        <ele>393.704987</ele>
        <time>2012-02-05T11:33:51Z</time>
      </trkpt>
      <trkpt lat="44.59899" lon="4.34779">
        <ele>393.54126</ele>
        <time>2012-02-05T11:33:56Z</time>
      </trkpt>
      <trkpt lat="44.59891" lon="4.34776">
        <ele>393.345001</ele>
        <time>2012-02-05T11:34:00Z</time>
      </trkpt>
      <trkpt lat="44.59889" lon="4.34774">
        <ele>393.321259</ele>
        <time>2012-02-05T11:34:06Z</time>
      </trkpt>
      <trkpt lat="44.59875" lon="4.34767">
        <ele>393.184998</ele>
        <time>2012-02-05T11:34:12Z</time>
      </trkpt>
      <trkpt lat="44.59864" lon="4.34764">
        <ele>392.466248</ele>
        <time>2012-02-05T11:34:16Z</time>
      </trkpt>
      <trkpt lat="44.59846" lon="4.34756">
        <ele>390.499146</ele>
        <time>2012-02-05T11:34:22Z</time>
      </trkpt>
      <trkpt lat="44.59831" lon="4.34758">
        <ele>387.799316</ele>
        <time>2012-02-05T11:34:26Z</time>
      </trkpt>
      <trkpt lat="44.59818" lon="4.3476">
        <ele>385.474701</ele>
        <time>2012-02-05T11:34:30Z</time>
      </trkpt>
      <trkpt lat="44.59802" lon="4.34756">
        <ele>382.515778</ele>
        <time>2012-02-05T11:34:35Z</time>
      </trkpt>
      <trkpt lat="44.59785" lon="4.34754">
        <ele>379.534698</ele>
        <time>2012-02-05T11:34:39Z</time>
      </trkpt>
      <trkpt lat="44.59773" lon="4.34749">
        <ele>377.423126</ele>
        <time>2012-02-05T11:34:42Z</time>
      </trkpt>
      <trkpt lat="44.59765" lon="4.34741">
        <ele>376.415192</ele>
        <time>2012-02-05T11:34:44Z</time>
      </trkpt>
      <trkpt lat="44.59746" lon="4.34729">
        <ele>373.028473</ele>
        <time>2012-02-05T11:34:48Z</time>
      </trkpt>
      <trkpt lat="44.59739" lon="4.34722">
        <ele>371.863678</ele>
        <time>2012-02-05T11:34:50Z</time>
      </trkpt>
      <trkpt lat="44.59732" lon="4.34713">
        <ele>371.011017</ele>
        <time>2012-02-05T11:34:52Z</time>
      </trkpt>
      <trkpt lat="44.59723" lon="4.34703">
        <ele>369.575989</ele>
        <time>2012-02-05T11:34:55Z</time>
      </trkpt>
      <trkpt lat="44.59706" lon="4.34684">
        <ele>367.70874</ele>
        <time>2012-02-05T11:34:59Z</time>
      </trkpt>
      <trkpt lat="44.59694" lon="4.34663">
        <ele>368.827484</ele>
        <time>2012-02-05T11:35:03Z</time>
      </trkpt>
      <trkpt lat="44.59689" lon="4.34631">
        <ele>374.820313</ele>
        <time>2012-02-05T11:35:08Z</time>
      </trkpt>
      <trkpt lat="44.59683" lon="4.34614">
        <ele>378.480042</ele>
        <time>2012-02-05T11:35:11Z</time>
      </trkpt>
      <trkpt lat="44.59674" lon="4.346">
        <ele>380.792389</ele>
        <time>2012-02-05T11:35:15Z</time>
      </trkpt>
      <trkpt lat="44.59653" lon="4.34592">
        <ele>379.164886</ele>
        <time>2012-02-05T11:35:21Z</time>
      </trkpt>
      <trkpt lat="44.59633" lon="4.34597">
        <ele>377.591644</ele>
        <time>2012-02-05T11:35:26Z</time>
      </trkpt>
      <trkpt lat="44.59615" lon="4.3461">
        <ele>374.967468</ele>
        <time>2012-02-05T11:35:32Z</time>
      </trkpt>
      <trkpt lat="44.5961" lon="4.34626">
        <ele>370.729248</ele>
        <time>2012-02-05T11:35:36Z</time>
      </trkpt>
      <trkpt lat="44.59598" lon="4.34645">
        <ele>367.455322</ele>
        <time>2012-02-05T11:35:40Z</time>
      </trkpt>
      <trkpt lat="44.5958" lon="4.34657">
        <ele>368.351257</ele>
        <time>2012-02-05T11:35:45Z</time>
      </trkpt>
      <trkpt lat="44.59571" lon="4.34665">
        <ele>368.157837</ele>
        <time>2012-02-05T11:35:48Z</time>
      </trkpt>
      <trkpt lat="44.5956" lon="4.34685">
        <ele>365.171173</ele>
        <time>2012-02-05T11:35:52Z</time>
      </trkpt>
      <trkpt lat="44.59546" lon="4.3472">
        <ele>357.625793</ele>
        <time>2012-02-05T11:35:59Z</time>
      </trkpt>
      <trkpt lat="44.59539" lon="4.34733">
        <ele>354.954651</ele>
        <time>2012-02-05T11:36:02Z</time>
      </trkpt>
      <trkpt lat="44.59518" lon="4.34745">
        <ele>354.42749</ele>
        <time>2012-02-05T11:36:08Z</time>
      </trkpt>
      <trkpt lat="44.59494" lon="4.34745">
        <ele>357.162415</ele>
        <time>2012-02-05T11:36:15Z</time>
      </trkpt>
      <trkpt lat="44.59475" lon="4.34744">
        <ele>359.088654</ele>
        <time>2012-02-05T11:36:20Z</time>
      </trkpt>
      <trkpt lat="44.59452" lon="4.34747">
        <ele>358.680328</ele>
        <time>2012-02-05T11:36:27Z</time>
      </trkpt>
      <trkpt lat="44.59439" lon="4.34757">
        <ele>355.047485</ele>
        <time>2012-02-05T11:36:31Z</time>
      </trkpt>
      <trkpt lat="44.59423" lon="4.34766">
        <ele>351.162506</ele>
        <time>2012-02-05T11:36:35Z</time>
      </trkpt>
      <trkpt lat="44.59422" lon="4.34767">
        <ele>350.652496</ele>
        <time>2012-02-05T11:36:36Z</time>
      </trkpt>
      <trkpt lat="44.59421" lon="4.3477">
        <ele>349.8125</ele>
        <time>2012-02-05T11:36:44Z</time>
      </trkpt>
      <trkpt lat="44.5942" lon="4.34771">
        <ele>349.57251</ele>
        <time>2012-02-05T11:36:54Z</time>
      </trkpt>
      <trkpt lat="44.5942" lon="4.34772">
        <ele>349.242493</ele>
        <time>2012-02-05T11:36:59Z</time>
      </trkpt>
      <trkpt lat="44.5942" lon="4.34773">
        <ele>348.882507</ele>
        <time>2012-02-05T11:37:27Z</time>
      </trkpt>
      <trkpt lat="44.59422" lon="4.3478">
        <ele>347.142517</ele>
        <time>2012-02-05T11:37:34Z</time>
      </trkpt>
      <trkpt lat="44.59436" lon="4.34786">
        <ele>346.392487</ele>
        <time>2012-02-05T11:37:38Z</time>
      </trkpt>
      <trkpt lat="44.5946" lon="4.34795">
        <ele>345.619995</ele>
        <time>2012-02-05T11:37:42Z</time>
      </trkpt>
      <trkpt lat="44.59494" lon="4.34806">
        <ele>341.280212</ele>
        <time>2012-02-05T11:37:47Z</time>
      </trkpt>
      <trkpt lat="44.59517" lon="4.34816">
        <ele>337.523926</ele>
        <time>2012-02-05T11:37:51Z</time>
      </trkpt>
      <trkpt lat="44.59538" lon="4.34823">
        <ele>334.589478</ele>
        <time>2012-02-05T11:37:56Z</time>
      </trkpt>
      <trkpt lat="44.59553" lon="4.3482">
        <ele>333.924774</ele>
        <time>2012-02-05T11:38:00Z</time>
      </trkpt>
      <trkpt lat="44.59567" lon="4.34812">
        <ele>333.871613</ele>
        <time>2012-02-05T11:38:06Z</time>
      </trkpt>
      <trkpt lat="44.59569" lon="4.3482">
        <ele>331.873962</ele>
        <time>2012-02-05T11:38:09Z</time>
      </trkpt>
      <trkpt lat="44.59568" lon="4.34852">
        <ele>326.386108</ele>
        <time>2012-02-05T11:38:15Z</time>
      </trkpt>
      <trkpt lat="44.59558" lon="4.34873">
        <ele>323.429932</ele>
        <time>2012-02-05T11:38:19Z</time>
      </trkpt>
      <trkpt lat="44.59549" lon="4.34882">
        <ele>322.336731</ele>
        <time>2012-02-05T11:38:23Z</time>
      </trkpt>
      <trkpt lat="44.59528" lon="4.34899">
        <ele>318.955658</ele>
        <time>2012-02-05T11:38:28Z</time>
      </trkpt>
      <trkpt lat="44.59523" lon="4.34902">
        <ele>318.283569</ele>
        <time>2012-02-05T11:38:29Z</time>
      </trkpt>
      <trkpt lat="44.59514" lon="4.34909">
        <ele>316.832245</ele>
        <time>2012-02-05T11:38:31Z</time>
      </trkpt>
      <trkpt lat="44.59496" lon="4.3491">
        <ele>317.208252</ele>
        <time>2012-02-05T11:38:36Z</time>
      </trkpt>
      <trkpt lat="44.59491" lon="4.34906">
        <ele>318.383514</ele>
        <time>2012-02-05T11:38:38Z</time>
      </trkpt>
      <trkpt lat="44.59473" lon="4.34902">
        <ele>320.284363</ele>
        <time>2012-02-05T11:38:43Z</time>
      </trkpt>
      <trkpt lat="44.59465" lon="4.34901">
        <ele>320.931</ele>
        <time>2012-02-05T11:38:45Z</time>
      </trkpt>
      <trkpt lat="44.59439" lon="4.34897">
        <ele>320.828949</ele>
        <time>2012-02-05T11:38:52Z</time>
      </trkpt>
      <trkpt lat="44.59419" lon="4.34894">
        <ele>320.151398</ele>
        <time>2012-02-05T11:38:58Z</time>
      </trkpt>
      <trkpt lat="44.59401" lon="4.34885">
        <ele>319.627563</ele>
        <time>2012-02-05T11:39:03Z</time>
      </trkpt>
      <trkpt lat="44.59386" lon="4.34881">
        <ele>318.669128</ele>
        <time>2012-02-05T11:39:07Z</time>
      </trkpt>
      <trkpt lat="44.59375" lon="4.34881">
        <ele>318.016113</ele>
        <time>2012-02-05T11:39:11Z</time>
      </trkpt>
      <trkpt lat="44.59368" lon="4.34874">
        <ele>317.446381</ele>
        <time>2012-02-05T11:39:15Z</time>
      </trkpt>
      <trkpt lat="44.59356" lon="4.3486">
        <ele>320.429016</ele>
        <time>2012-02-05T11:39:20Z</time>
      </trkpt>
      <trkpt lat="44.59342" lon="4.34844">
        <ele>322.890808</ele>
        <time>2012-02-05T11:39:25Z</time>
      </trkpt>
      <trkpt lat="44.59327" lon="4.34841">
        <ele>322.891693</ele>
        <time>2012-02-05T11:39:29Z</time>
      </trkpt>
      <trkpt lat="44.59305" lon="4.34841">
        <ele>324.773987</ele>
        <time>2012-02-05T11:39:35Z</time>
      </trkpt>
      <trkpt lat="44.59303" lon="4.34844">
        <ele>324.9328</ele>
        <time>2012-02-05T11:39:38Z</time>
      </trkpt>
      <trkpt lat="44.59303" lon="4.34847">
        <ele>324.761719</ele>
        <time>2012-02-05T11:39:47Z</time>
      </trkpt>
      <trkpt lat="44.59304" lon="4.3485">
        <ele>324.569855</ele>
        <time>2012-02-05T11:39:52Z</time>
      </trkpt>
      <trkpt lat="44.59315" lon="4.34856">
        <ele>323.143433</ele>
        <time>2012-02-05T11:39:58Z</time>
      </trkpt>
      <trkpt lat="44.59318" lon="4.34858">
        <ele>322.668762</ele>
        <time>2012-02-05T11:40:00Z</time>
      </trkpt>
      <trkpt lat="44.59323" lon="4.34868">
        <ele>321.482819</ele>
        <time>2012-02-05T11:40:06Z</time>
      </trkpt>
      <trkpt lat="44.59324" lon="4.34876">
        <ele>321.54422</ele>
        <time>2012-02-05T11:40:09Z</time>
      </trkpt>
      <trkpt lat="44.59324" lon="4.34882">
        <ele>321.956696</ele>
        <time>2012-02-05T11:40:14Z</time>
      </trkpt>
      <trkpt lat="44.59325" lon="4.34885">
        <ele>321.990326</ele>
        <time>2012-02-05T11:40:19Z</time>
      </trkpt>
      <trkpt lat="44.59326" lon="4.34892">
        <ele>322.291809</ele>
        <time>2012-02-05T11:40:27Z</time>
      </trkpt>
      <trkpt lat="44.59327" lon="4.34896">
        <ele>322.55246</ele>
        <time>2012-02-05T11:40:31Z</time>
      </trkpt>
      <trkpt lat="44.59327" lon="4.34905">
        <ele>323.056366</ele>
        <time>2012-02-05T11:40:40Z</time>
      </trkpt>
      <trkpt lat="44.59331" lon="4.34914">
        <ele>323.390594</ele>
        <time>2012-02-05T11:40:48Z</time>
      </trkpt>
      <trkpt lat="44.59332" lon="4.34918">
        <ele>323.489777</ele>
        <time>2012-02-05T11:40:53Z</time>
      </trkpt>
      <trkpt lat="44.59332" lon="4.34919">
        <ele>323.605316</ele>
        <time>2012-02-05T11:40:59Z</time>
      </trkpt>
      <trkpt lat="44.59333" lon="4.34923">
        <ele>323.807159</ele>
        <time>2012-02-05T11:41:09Z</time>
      </trkpt>
      <trkpt lat="44.59334" lon="4.34924">
        <ele>323.788391</ele>
        <time>2012-02-05T11:41:10Z</time>
      </trkpt>
      <trkpt lat="44.59352" lon="4.34938">
        <ele>323.567749</ele>
        <time>2012-02-05T11:41:15Z</time>
      </trkpt>
      <trkpt lat="44.59357" lon="4.34945">
        <ele>323.925781</ele>
        <time>2012-02-05T11:41:17Z</time>
      </trkpt>
      <trkpt lat="44.59362" lon="4.34947">
        <ele>323.879944</ele>
        <time>2012-02-05T11:41:22Z</time>
      </trkpt>
      <trkpt lat="44.59361" lon="4.34948">
        <ele>324.037354</ele>
        <time>2012-02-05T11:41:27Z</time>
      </trkpt>
      <trkpt lat="44.59362" lon="4.34949">
        <ele>324.062439</ele>
        <time>2012-02-05T11:41:30Z</time>
      </trkpt>
      <trkpt lat="44.59364" lon="4.34951">
        <ele>324.126038</ele>
        <time>2012-02-05T11:41:33Z</time>
      </trkpt>
      <trkpt lat="44.59365" lon="4.34957">
        <ele>324.770691</ele>
        <time>2012-02-05T11:41:54Z</time>
      </trkpt>
      <trkpt lat="44.59367" lon="4.34953">
        <ele>324.186371</ele>
        <time>2012-02-05T11:42:08Z</time>
      </trkpt>
      <trkpt lat="44.59367" lon="4.34952">
        <ele>324.092194</ele>
        <time>2012-02-05T11:42:13Z</time>
      </trkpt>
      <trkpt lat="44.59362" lon="4.34948">
        <ele>323.941254</ele>
        <time>2012-02-05T11:42:29Z</time>
      </trkpt>
      <trkpt lat="44.59355" lon="4.3495">
        <ele>324.493103</ele>
        <time>2012-02-05T11:42:41Z</time>
      </trkpt>
      <trkpt lat="44.59357" lon="4.34947">
        <ele>324.177887</ele>
        <time>2012-02-05T11:43:01Z</time>
      </trkpt>
      <trkpt lat="44.59357" lon="4.34947">
        <ele>324.131134</ele>
        <time>2012-02-05T11:43:12Z</time>
      </trkpt>
      <trkpt lat="44.59358" lon="4.34948">
        <ele>324.233368</ele>
        <time>2012-02-05T11:43:20Z</time>
      </trkpt>
      <trkpt lat="44.59357" lon="4.3495">
        <ele>324.42868</ele>
        <time>2012-02-05T11:43:29Z</time>
      </trkpt>
      <trkpt lat="44.59357" lon="4.34952">
        <ele>324.665375</ele>
        <time>2012-02-05T11:43:37Z</time>
      </trkpt>
      <trkpt lat="44.59358" lon="4.34953">
        <ele>324.746582</ele>
        <time>2012-02-05T11:43:49Z</time>
      </trkpt>
      <trkpt lat="44.59359" lon="4.34953">
        <ele>324.660797</ele>
        <time>2012-02-05T11:44:03Z</time>
      </trkpt>
      <trkpt lat="44.59361" lon="4.34954">
        <ele>324.683685</ele>
        <time>2012-02-05T11:44:10Z</time>
      </trkpt>
      <trkpt lat="44.59361" lon="4.34955">
        <ele>324.711182</ele>
        <time>2012-02-05T11:44:11Z</time>
      </trkpt>
      <trkpt lat="44.59379" lon="4.34966">
        <ele>324.902435</ele>
        <time>2012-02-05T11:44:17Z</time>
      </trkpt>
      <trkpt lat="44.59406" lon="4.34977">
        <ele>324.948456</ele>
        <time>2012-02-05T11:44:24Z</time>
      </trkpt>
      <trkpt lat="44.59419" lon="4.3498">
        <ele>324.737488</ele>
        <time>2012-02-05T11:44:28Z</time>
      </trkpt>
      <trkpt lat="44.5944" lon="4.34986">
        <ele>324.522491</ele>
        <time>2012-02-05T11:44:33Z</time>
      </trkpt>
      <trkpt lat="44.59458" lon="4.34991">
        <ele>324.492493</ele>
        <time>2012-02-05T11:44:38Z</time>
      </trkpt>
      <trkpt lat="44.59475" lon="4.35001">
        <ele>324.00827</ele>
        <time>2012-02-05T11:44:43Z</time>
      </trkpt>
      <trkpt lat="44.59499" lon="4.35009">
        <ele>322.058533</ele>
        <time>2012-02-05T11:44:49Z</time>
      </trkpt>
      <trkpt lat="44.5952" lon="4.35015">
        <ele>319.542511</ele>
        <time>2012-02-05T11:44:54Z</time>
      </trkpt>
      <trkpt lat="44.59537" lon="4.35023">
        <ele>317.612488</ele>
        <time>2012-02-05T11:44:58Z</time>
      </trkpt>
      <trkpt lat="44.59556" lon="4.35038">
        <ele>315.369141</ele>
        <time>2012-02-05T11:45:03Z</time>
      </trkpt>
      <trkpt lat="44.59564" lon="4.3505">
        <ele>314.315369</ele>
        <time>2012-02-05T11:45:06Z</time>
      </trkpt>
      <trkpt lat="44.59569" lon="4.35079">
        <ele>314.672577</ele>
        <time>2012-02-05T11:45:11Z</time>
      </trkpt>
      <trkpt lat="44.59563" lon="4.35126">
        <ele>316.333099</ele>
        <time>2012-02-05T11:45:18Z</time>
      </trkpt>
      <trkpt lat="44.59558" lon="4.35145">
        <ele>316.313934</ele>
        <time>2012-02-05T11:45:21Z</time>
      </trkpt>
      <trkpt lat="44.59545" lon="4.35176">
        <ele>317.283234</ele>
        <time>2012-02-05T11:45:26Z</time>
      </trkpt>
      <trkpt lat="44.59527" lon="4.352">
        <ele>316.879425</ele>
        <time>2012-02-05T11:45:31Z</time>
      </trkpt>
      <trkpt lat="44.59519" lon="4.35208">
        <ele>316.699799</ele>
        <time>2012-02-05T11:45:33Z</time>
      </trkpt>
      <trkpt lat="44.59484" lon="4.35229">
        <ele>317.32785</ele>
        <time>2012-02-05T11:45:41Z</time>
      </trkpt>
      <trkpt lat="44.5948" lon="4.35231">
        <ele>317.150513</ele>
        <time>2012-02-05T11:45:42Z</time>
      </trkpt>
      <trkpt lat="44.59458" lon="4.35242">
        <ele>316.939117</ele>
        <time>2012-02-05T11:45:47Z</time>
      </trkpt>
      <trkpt lat="44.59449" lon="4.35244">
        <ele>316.794189</ele>
        <time>2012-02-05T11:45:49Z</time>
      </trkpt>
      <trkpt lat="44.59432" lon="4.35242">
        <ele>316.607544</ele>
        <time>2012-02-05T11:45:53Z</time>
      </trkpt>
      <trkpt lat="44.59397" lon="4.3523">
        <ele>316.850372</ele>
        <time>2012-02-05T11:46:00Z</time>
      </trkpt>
      <trkpt lat="44.59361" lon="4.35212">
        <ele>317.174133</ele>
        <time>2012-02-05T11:46:07Z</time>
      </trkpt>
      <trkpt lat="44.59356" lon="4.3521">
        <ele>317.102509</ele>
        <time>2012-02-05T11:46:08Z</time>
      </trkpt>
      <trkpt lat="44.59326" lon="4.35205">
        <ele>315.969635</ele>
        <time>2012-02-05T11:46:14Z</time>
      </trkpt>
      <trkpt lat="44.5932" lon="4.35204">
        <ele>315.55249</ele>
        <time>2012-02-05T11:46:16Z</time>
      </trkpt>
      <trkpt lat="44.59313" lon="4.35205">
        <ele>315.073761</ele>
        <time>2012-02-05T11:46:22Z</time>
      </trkpt>
      <trkpt lat="44.59307" lon="4.35204">
        <ele>314.970001</ele>
        <time>2012-02-05T11:46:47Z</time>
      </trkpt>
      <trkpt lat="44.59295" lon="4.35201">
        <ele>314.857513</ele>
        <time>2012-02-05T11:46:54Z</time>
      </trkpt>
      <trkpt lat="44.59281" lon="4.35198">
        <ele>314.688751</ele>
        <time>2012-02-05T11:47:00Z</time>
      </trkpt>
      <trkpt lat="44.59271" lon="4.35193">
        <ele>315.174286</ele>
        <time>2012-02-05T11:47:05Z</time>
      </trkpt>
      <trkpt lat="44.5926" lon="4.35188">
        <ele>315.719025</ele>
        <time>2012-02-05T11:47:12Z</time>
      </trkpt>
      <trkpt lat="44.59246" lon="4.35184">
        <ele>316.000519</ele>
        <time>2012-02-05T11:47:19Z</time>
      </trkpt>
      <trkpt lat="44.5923" lon="4.3518">
        <ele>316.244995</ele>
        <time>2012-02-05T11:47:26Z</time>
      </trkpt>
      <trkpt lat="44.59218" lon="4.35176">
        <ele>316.476257</ele>
        <time>2012-02-05T11:47:31Z</time>
      </trkpt>
      <trkpt lat="44.59206" lon="4.35169">
        <ele>317.059998</ele>
        <time>2012-02-05T11:47:37Z</time>
      </trkpt>
      <trkpt lat="44.59188" lon="4.35159">
        <ele>317.988739</ele>
        <time>2012-02-05T11:47:43Z</time>
      </trkpt>
      <trkpt lat="44.59174" lon="4.35154">
        <ele>318.265259</ele>
        <time>2012-02-05T11:47:47Z</time>
      </trkpt>
      <trkpt lat="44.59158" lon="4.35144">
        <ele>319.027008</ele>
        <time>2012-02-05T11:47:52Z</time>
      </trkpt>
      <trkpt lat="44.59142" lon="4.35137">
        <ele>319.244781</ele>
        <time>2012-02-05T11:47:57Z</time>
      </trkpt>
      <trkpt lat="44.59126" lon="4.35131">
        <ele>319.959991</ele>
        <time>2012-02-05T11:48:02Z</time>
      </trkpt>
      <trkpt lat="44.59105" lon="4.35127">
        <ele>320.299988</ele>
        <time>2012-02-05T11:48:08Z</time>
      </trkpt>
      <trkpt lat="44.59083" lon="4.35122">
        <ele>320.839996</ele>
        <time>2012-02-05T11:48:14Z</time>
      </trkpt>
      <trkpt lat="44.59056" lon="4.35109">
        <ele>322.179474</ele>
        <time>2012-02-05T11:48:22Z</time>
      </trkpt>
      <trkpt lat="44.59042" lon="4.35102">
        <ele>321.922485</ele>
        <time>2012-02-05T11:48:28Z</time>
      </trkpt>
      <trkpt lat="44.59034" lon="4.35099">
        <ele>321.609985</ele>
        <time>2012-02-05T11:48:34Z</time>
      </trkpt>
      <trkpt lat="44.59031" lon="4.35096">
        <ele>321.595001</ele>
        <time>2012-02-05T11:48:39Z</time>
      </trkpt>
      <trkpt lat="44.5903" lon="4.35095">
        <ele>321.5625</ele>
        <time>2012-02-05T11:48:47Z</time>
      </trkpt>
      <trkpt lat="44.59027" lon="4.35091">
        <ele>321.637512</ele>
        <time>2012-02-05T11:48:55Z</time>
      </trkpt>
      <trkpt lat="44.59024" lon="4.35088">
        <ele>321.622498</ele>
        <time>2012-02-05T11:48:58Z</time>
      </trkpt>
      <trkpt lat="44.59013" lon="4.35072">
        <ele>321.875</ele>
        <time>2012-02-05T11:49:06Z</time>
      </trkpt>
      <trkpt lat="44.59012" lon="4.35051">
        <ele>323.107483</ele>
        <time>2012-02-05T11:49:12Z</time>
      </trkpt>
      <trkpt lat="44.59014" lon="4.35022">
        <ele>323.871765</ele>
        <time>2012-02-05T11:49:19Z</time>
      </trkpt>
      <trkpt lat="44.5901" lon="4.35006">
        <ele>323.768372</ele>
        <time>2012-02-05T11:49:23Z</time>
      </trkpt>
      <trkpt lat="44.58999" lon="4.3498">
        <ele>323.42749</ele>
        <time>2012-02-05T11:49:30Z</time>
      </trkpt>
      <trkpt lat="44.58993" lon="4.34951">
        <ele>325.186249</ele>
        <time>2012-02-05T11:49:37Z</time>
      </trkpt>
      <trkpt lat="44.58985" lon="4.34933">
        <ele>325.790009</ele>
        <time>2012-02-05T11:49:42Z</time>
      </trkpt>
      <trkpt lat="44.58973" lon="4.34918">
        <ele>326.06427</ele>
        <time>2012-02-05T11:49:47Z</time>
      </trkpt>
      <trkpt lat="44.58959" lon="4.34903">
        <ele>326.654907</ele>
        <time>2012-02-05T11:49:53Z</time>
      </trkpt>
      <trkpt lat="44.58944" lon="4.34881">
        <ele>328.51474</ele>
        <time>2012-02-05T11:49:59Z</time>
      </trkpt>
      <trkpt lat="44.58928" lon="4.34871">
        <ele>329.020508</ele>
        <time>2012-02-05T11:50:04Z</time>
      </trkpt>
      <trkpt lat="44.58907" lon="4.34867">
        <ele>328.699371</ele>
        <time>2012-02-05T11:50:09Z</time>
      </trkpt>
      <trkpt lat="44.58884" lon="4.34855">
        <ele>330.072723</ele>
        <time>2012-02-05T11:50:15Z</time>
      </trkpt>
      <trkpt lat="44.58861" lon="4.34847">
        <ele>330.064484</ele>
        <time>2012-02-05T11:50:21Z</time>
      </trkpt>
      <trkpt lat="44.58835" lon="4.34851">
        <ele>327.50943</ele>
        <time>2012-02-05T11:50:28Z</time>
      </trkpt>
      <trkpt lat="44.58816" lon="4.34855">
        <ele>325.523132</ele>
        <time>2012-02-05T11:50:34Z</time>
      </trkpt>
      <trkpt lat="44.58795" lon="4.34852">
        <ele>324.478088</ele>
        <time>2012-02-05T11:50:40Z</time>
      </trkpt>
      <trkpt lat="44.58773" lon="4.34851">
        <ele>322.998047</ele>
        <time>2012-02-05T11:50:47Z</time>
      </trkpt>
      <trkpt lat="44.58757" lon="4.34844">
        <ele>322.660583</ele>
        <time>2012-02-05T11:50:53Z</time>
      </trkpt>
      <trkpt lat="44.58744" lon="4.34833">
        <ele>322.718842</ele>
        <time>2012-02-05T11:50:58Z</time>
      </trkpt>
      <trkpt lat="44.58725" lon="4.34805">
        <ele>322.991241</ele>
        <time>2012-02-05T11:51:06Z</time>
      </trkpt>
      <trkpt lat="44.58711" lon="4.34782">
        <ele>322.897156</ele>
        <time>2012-02-05T11:51:13Z</time>
      </trkpt>
      <trkpt lat="44.58703" lon="4.34763">
        <ele>322.437073</ele>
        <time>2012-02-05T11:51:17Z</time>
      </trkpt>
      <trkpt lat="44.58696" lon="4.34729">
        <ele>322.432495</ele>
        <time>2012-02-05T11:51:22Z</time>
      </trkpt>
      <trkpt lat="44.58688" lon="4.34684">
        <ele>323.047516</ele>
        <time>2012-02-05T11:51:28Z</time>
      </trkpt>
      <trkpt lat="44.58675" lon="4.34661">
        <ele>322.656555</ele>
        <time>2012-02-05T11:51:32Z</time>
      </trkpt>
      <trkpt lat="44.58659" lon="4.34659">
        <ele>321.265259</ele>
        <time>2012-02-05T11:51:35Z</time>
      </trkpt>
      <trkpt lat="44.58648" lon="4.34666">
        <ele>320.870636</ele>
        <time>2012-02-05T11:51:37Z</time>
      </trkpt>
      <trkpt lat="44.5864" lon="4.34674">
        <ele>320.696014</ele>
        <time>2012-02-05T11:51:39Z</time>
      </trkpt>
      <trkpt lat="44.5863" lon="4.3468">
        <ele>320.502197</ele>
        <time>2012-02-05T11:51:42Z</time>
      </trkpt>
      <trkpt lat="44.58619" lon="4.34681">
        <ele>320.608734</ele>
        <time>2012-02-05T11:51:49Z</time>
      </trkpt>
      <trkpt lat="44.5862" lon="4.34681">
        <ele>320.567505</ele>
        <time>2012-02-05T11:52:02Z</time>
      </trkpt>
      <trkpt lat="44.58617" lon="4.34683">
        <ele>320.435516</ele>
        <time>2012-02-05T11:52:10Z</time>
      </trkpt>
      <trkpt lat="44.58615" lon="4.34684">
        <ele>320.355652</ele>
        <time>2012-02-05T11:52:11Z</time>
      </trkpt>
      <trkpt lat="44.58601" lon="4.34692">
        <ele>319.307831</ele>
        <time>2012-02-05T11:52:16Z</time>
      </trkpt>
      <trkpt lat="44.58587" lon="4.34698">
        <ele>318.33963</ele>
        <time>2012-02-05T11:52:19Z</time>
      </trkpt>
      <trkpt lat="44.58575" lon="4.34706">
        <ele>316.948792</ele>
        <time>2012-02-05T11:52:23Z</time>
      </trkpt>
      <trkpt lat="44.5856" lon="4.34712">
        <ele>315.672424</ele>
        <time>2012-02-05T11:52:27Z</time>
      </trkpt>
      <trkpt lat="44.58542" lon="4.3472">
        <ele>314.003265</ele>
        <time>2012-02-05T11:52:32Z</time>
      </trkpt>
      <trkpt lat="44.58521" lon="4.34732">
        <ele>311.644684</ele>
        <time>2012-02-05T11:52:37Z</time>
      </trkpt>
      <trkpt lat="44.58514" lon="4.34736">
        <ele>311.004852</ele>
        <time>2012-02-05T11:52:41Z</time>
      </trkpt>
      <trkpt lat="44.58514" lon="4.34738">
        <ele>310.795105</ele>
        <time>2012-02-05T11:52:49Z</time>
      </trkpt>
      <trkpt lat="44.58513" lon="4.34737">
        <ele>310.845825</ele>
        <time>2012-02-05T11:52:59Z</time>
      </trkpt>
      <trkpt lat="44.5851" lon="4.34738">
        <ele>310.838501</ele>
        <time>2012-02-05T11:53:06Z</time>
      </trkpt>
      <trkpt lat="44.58496" lon="4.34742">
        <ele>310.255615</ele>
        <time>2012-02-05T11:53:11Z</time>
      </trkpt>
      <trkpt lat="44.58485" lon="4.34749">
        <ele>309.484497</ele>
        <time>2012-02-05T11:53:16Z</time>
      </trkpt>
      <trkpt lat="44.58481" lon="4.34753">
        <ele>308.907959</ele>
        <time>2012-02-05T11:53:23Z</time>
      </trkpt>
      <trkpt lat="44.58477" lon="4.34759">
        <ele>308.214478</ele>
        <time>2012-02-05T11:53:30Z</time>
      </trkpt>
      <trkpt lat="44.58467" lon="4.3477">
        <ele>306.877655</ele>
        <time>2012-02-05T11:53:34Z</time>
      </trkpt>
      <trkpt lat="44.5845" lon="4.3479">
        <ele>305.471161</ele>
        <time>2012-02-05T11:53:40Z</time>
      </trkpt>
      <trkpt lat="44.58434" lon="4.34805">
        <ele>304.928223</ele>
        <time>2012-02-05T11:53:46Z</time>
      </trkpt>
      <trkpt lat="44.58421" lon="4.34817">
        <ele>304.419952</ele>
        <time>2012-02-05T11:53:50Z</time>
      </trkpt>
      <trkpt lat="44.584" lon="4.3483">
        <ele>303.997284</ele>
        <time>2012-02-05T11:53:55Z</time>
      </trkpt>
      <trkpt lat="44.58396" lon="4.34832">
        <ele>303.963531</ele>
        <time>2012-02-05T11:53:56Z</time>
      </trkpt>
      <trkpt lat="44.58377" lon="4.3483">
        <ele>304.165436</ele>
        <time>2012-02-05T11:54:00Z</time>
      </trkpt>
      <trkpt lat="44.58362" lon="4.3484">
        <ele>303.377014</ele>
        <time>2012-02-05T11:54:04Z</time>
      </trkpt>
      <trkpt lat="44.58353" lon="4.34855">
        <ele>302.611145</ele>
        <time>2012-02-05T11:54:07Z</time>
      </trkpt>
      <trkpt lat="44.58339" lon="4.34859">
        <ele>302.254089</ele>
        <time>2012-02-05T11:54:11Z</time>
      </trkpt>
      <trkpt lat="44.58332" lon="4.34852">
        <ele>302.065247</ele>
        <time>2012-02-05T11:54:13Z</time>
      </trkpt>
      <trkpt lat="44.58321" lon="4.34827">
        <ele>301.806915</ele>
        <time>2012-02-05T11:54:19Z</time>
      </trkpt>
      <trkpt lat="44.58318" lon="4.348">
        <ele>302.609955</ele>
        <time>2012-02-05T11:54:24Z</time>
      </trkpt>
      <trkpt lat="44.58311" lon="4.34783">
        <ele>302.72818</ele>
        <time>2012-02-05T11:54:27Z</time>
      </trkpt>
      <trkpt lat="44.58299" lon="4.34766">
        <ele>302.786255</ele>
        <time>2012-02-05T11:54:31Z</time>
      </trkpt>
      <trkpt lat="44.58293" lon="4.34753">
        <ele>303.590363</ele>
        <time>2012-02-05T11:54:35Z</time>
      </trkpt>
      <trkpt lat="44.58281" lon="4.34737">
        <ele>304.998901</ele>
        <time>2012-02-05T11:54:41Z</time>
      </trkpt>
      <trkpt lat="44.58268" lon="4.34737">
        <ele>304.840393</ele>
        <time>2012-02-05T11:54:45Z</time>
      </trkpt>
      <trkpt lat="44.58242" lon="4.34738">
        <ele>304.651245</ele>
        <time>2012-02-05T11:54:52Z</time>
      </trkpt>
      <trkpt lat="44.582" lon="4.34744">
        <ele>305.526642</ele>
        <time>2012-02-05T11:55:04Z</time>
      </trkpt>
      <trkpt lat="44.58169" lon="4.34744">
        <ele>304.951111</ele>
        <time>2012-02-05T11:55:13Z</time>
      </trkpt>
      <trkpt lat="44.58145" lon="4.34734">
        <ele>305.369995</ele>
        <time>2012-02-05T11:55:20Z</time>
      </trkpt>
      <trkpt lat="44.58126" lon="4.34721">
        <ele>305.959991</ele>
        <time>2012-02-05T11:55:26Z</time>
      </trkpt>
      <trkpt lat="44.58097" lon="4.347">
        <ele>306.855011</ele>
        <time>2012-02-05T11:55:35Z</time>
      </trkpt>
      <trkpt lat="44.5808" lon="4.34686">
        <ele>307.462494</ele>
        <time>2012-02-05T11:55:41Z</time>
      </trkpt>
      <trkpt lat="44.58054" lon="4.34662">
        <ele>308.15564</ele>
        <time>2012-02-05T11:55:50Z</time>
      </trkpt>
      <trkpt lat="44.58035" lon="4.34633">
        <ele>310.242798</ele>
        <time>2012-02-05T11:55:58Z</time>
      </trkpt>
      <trkpt lat="44.58009" lon="4.34596">
        <ele>314.818878</ele>
        <time>2012-02-05T11:56:08Z</time>
      </trkpt>
      <trkpt lat="44.57993" lon="4.34597">
        <ele>314.192749</ele>
        <time>2012-02-05T11:56:12Z</time>
      </trkpt>
      <trkpt lat="44.57967" lon="4.34613">
        <ele>311.747498</ele>
        <time>2012-02-05T11:56:19Z</time>
      </trkpt>
      <trkpt lat="44.57959" lon="4.34617">
        <ele>311.350006</ele>
        <time>2012-02-05T11:56:21Z</time>
      </trkpt>
      <trkpt lat="44.57921" lon="4.34636">
        <ele>310.824799</ele>
        <time>2012-02-05T11:56:31Z</time>
      </trkpt>
      <trkpt lat="44.5789" lon="4.3464">
        <ele>313.358612</ele>
        <time>2012-02-05T11:56:39Z</time>
      </trkpt>
      <trkpt lat="44.57856" lon="4.34644">
        <ele>315.40921</ele>
        <time>2012-02-05T11:56:48Z</time>
      </trkpt>
      <trkpt lat="44.57823" lon="4.34669">
        <ele>315.338745</ele>
        <time>2012-02-05T11:56:58Z</time>
      </trkpt>
      <trkpt lat="44.57798" lon="4.34686">
        <ele>316.300323</ele>
        <time>2012-02-05T11:57:06Z</time>
      </trkpt>
      <trkpt lat="44.57778" lon="4.34688">
        <ele>317.021912</ele>
        <time>2012-02-05T11:57:12Z</time>
      </trkpt>
      <trkpt lat="44.57766" lon="4.34678">
        <ele>317.934357</ele>
        <time>2012-02-05T11:57:17Z</time>
      </trkpt>
      <trkpt lat="44.57744" lon="4.34653">
        <ele>319.092499</ele>
        <time>2012-02-05T11:57:27Z</time>
      </trkpt>
      <trkpt lat="44.57724" lon="4.34631">
        <ele>319.769989</ele>
        <time>2012-02-05T11:57:36Z</time>
      </trkpt>
      <trkpt lat="44.57701" lon="4.34616">
        <ele>320.957336</ele>
        <time>2012-02-05T11:57:44Z</time>
      </trkpt>
      <trkpt lat="44.57673" lon="4.34605">
        <ele>322.533142</ele>
        <time>2012-02-05T11:57:53Z</time>
      </trkpt>
      <trkpt lat="44.57647" lon="4.34597">
        <ele>324.368622</ele>
        <time>2012-02-05T11:58:01Z</time>
      </trkpt>
      <trkpt lat="44.57629" lon="4.34591">
        <ele>325.59549</ele>
        <time>2012-02-05T11:58:07Z</time>
      </trkpt>
      <trkpt lat="44.57613" lon="4.34574">
        <ele>325.003052</ele>
        <time>2012-02-05T11:58:13Z</time>
      </trkpt>
      <trkpt lat="44.5761" lon="4.34555">
        <ele>324.044373</ele>
        <time>2012-02-05T11:58:17Z</time>
      </trkpt>
      <trkpt lat="44.57619" lon="4.34521">
        <ele>321.9776</ele>
        <time>2012-02-05T11:58:23Z</time>
      </trkpt>
      <trkpt lat="44.5762" lon="4.34515">
        <ele>321.298828</ele>
        <time>2012-02-05T11:58:24Z</time>
      </trkpt>
      <trkpt lat="44.57614" lon="4.3449">
        <ele>318.721924</ele>
        <time>2012-02-05T11:58:28Z</time>
      </trkpt>
      <trkpt lat="44.5761" lon="4.34486">
        <ele>318.760406</ele>
        <time>2012-02-05T11:58:29Z</time>
      </trkpt>
      <trkpt lat="44.57593" lon="4.34475">
        <ele>319.332153</ele>
        <time>2012-02-05T11:58:33Z</time>
      </trkpt>
      <trkpt lat="44.57575" lon="4.34473">
        <ele>319.713715</ele>
        <time>2012-02-05T11:58:37Z</time>
      </trkpt>
      <trkpt lat="44.57557" lon="4.34481">
        <ele>319.132263</ele>
        <time>2012-02-05T11:58:41Z</time>
      </trkpt>
      <trkpt lat="44.57538" lon="4.34489">
        <ele>318.238739</ele>
        <time>2012-02-05T11:58:45Z</time>
      </trkpt>
      <trkpt lat="44.57494" lon="4.34508">
        <ele>316.895294</ele>
        <time>2012-02-05T11:58:54Z</time>
      </trkpt>
      <trkpt lat="44.57456" lon="4.34528">
        <ele>315.096191</ele>
        <time>2012-02-05T11:59:02Z</time>
      </trkpt>
      <trkpt lat="44.57435" lon="4.34538">
        <ele>313.983551</ele>
        <time>2012-02-05T11:59:06Z</time>
      </trkpt>
      <trkpt lat="44.57404" lon="4.34552">
        <ele>312.612579</ele>
        <time>2012-02-05T11:59:12Z</time>
      </trkpt>
      <trkpt lat="44.57376" lon="4.34559">
        <ele>313.047607</ele>
        <time>2012-02-05T11:59:17Z</time>
      </trkpt>
      <trkpt lat="44.57338" lon="4.34581">
        <ele>312.445404</ele>
        <time>2012-02-05T11:59:25Z</time>
      </trkpt>
      <trkpt lat="44.57309" lon="4.34604">
        <ele>312.319489</ele>
        <time>2012-02-05T11:59:32Z</time>
      </trkpt>
      <trkpt lat="44.57278" lon="4.3463">
        <ele>311.507568</ele>
        <time>2012-02-05T11:59:39Z</time>
      </trkpt>
      <trkpt lat="44.57239" lon="4.34652">
        <ele>310.860168</ele>
        <time>2012-02-05T11:59:46Z</time>
      </trkpt>
      <trkpt lat="44.57198" lon="4.34682">
        <ele>308.116394</ele>
        <time>2012-02-05T11:59:54Z</time>
      </trkpt>
      <trkpt lat="44.5716" lon="4.34695">
        <ele>306.980927</ele>
        <time>2012-02-05T12:00:01Z</time>
      </trkpt>
      <trkpt lat="44.57151" lon="4.34697">
        <ele>306.673615</ele>
        <time>2012-02-05T12:00:03Z</time>
      </trkpt>
      <trkpt lat="44.57136" lon="4.34698">
        <ele>306.462524</ele>
        <time>2012-02-05T12:00:09Z</time>
      </trkpt>
      <trkpt lat="44.57131" lon="4.34696">
        <ele>306.618286</ele>
        <time>2012-02-05T12:00:13Z</time>
      </trkpt>
      <trkpt lat="44.57131" lon="4.34696">
        <ele>306.681366</ele>
        <time>2012-02-05T12:00:14Z</time>
      </trkpt>
      <trkpt lat="44.5713" lon="4.34695">
        <ele>306.743317</ele>
        <time>2012-02-05T12:00:16Z</time>
      </trkpt>
      <trkpt lat="44.57126" lon="4.3469">
        <ele>307.302521</ele>
        <time>2012-02-05T12:00:22Z</time>
      </trkpt>
      <trkpt lat="44.57128" lon="4.34689">
        <ele>307.428192</ele>
        <time>2012-02-05T12:00:28Z</time>
      </trkpt>
      <trkpt lat="44.57128" lon="4.34688">
        <ele>307.505707</ele>
        <time>2012-02-05T12:00:34Z</time>
      </trkpt>
      <trkpt lat="44.5712" lon="4.34687">
        <ele>307.131653</ele>
        <time>2012-02-05T12:00:38Z</time>
      </trkpt>
      <trkpt lat="44.57098" lon="4.34705">
        <ele>303.330444</ele>
        <time>2012-02-05T12:00:44Z</time>
      </trkpt>
      <trkpt lat="44.57082" lon="4.34719">
        <ele>300.783966</ele>
        <time>2012-02-05T12:00:48Z</time>
      </trkpt>
      <trkpt lat="44.57065" lon="4.34727">
        <ele>298.583649</ele>
        <time>2012-02-05T12:00:51Z</time>
      </trkpt>
      <trkpt lat="44.5704" lon="4.34731">
        <ele>296.016479</ele>
        <time>2012-02-05T12:00:55Z</time>
      </trkpt>
      <trkpt lat="44.57027" lon="4.34729">
        <ele>295.047668</ele>
        <time>2012-02-05T12:00:57Z</time>
      </trkpt>
      <trkpt lat="44.57003" lon="4.34719">
        <ele>293.162018</ele>
        <time>2012-02-05T12:01:02Z</time>
      </trkpt>
      <trkpt lat="44.56983" lon="4.34717">
        <ele>291.324493</ele>
        <time>2012-02-05T12:01:07Z</time>
      </trkpt>
      <trkpt lat="44.56976" lon="4.34721">
        <ele>290.943848</ele>
        <time>2012-02-05T12:01:09Z</time>
      </trkpt>
      <trkpt lat="44.56957" lon="4.34732">
        <ele>289.357056</ele>
        <time>2012-02-05T12:01:13Z</time>
      </trkpt>
      <trkpt lat="44.56938" lon="4.34749">
        <ele>287.104706</ele>
        <time>2012-02-05T12:01:17Z</time>
      </trkpt>
      <trkpt lat="44.5692" lon="4.34766">
        <ele>285.169739</ele>
        <time>2012-02-05T12:01:22Z</time>
      </trkpt>
      <trkpt lat="44.5691" lon="4.34766">
        <ele>284.515625</ele>
        <time>2012-02-05T12:01:25Z</time>
      </trkpt>
      <trkpt lat="44.56907" lon="4.34766">
        <ele>284.314301</ele>
        <time>2012-02-05T12:01:26Z</time>
      </trkpt>
      <trkpt lat="44.56892" lon="4.34774">
        <ele>283.610016</ele>
        <time>2012-02-05T12:01:32Z</time>
      </trkpt>
      <trkpt lat="44.56869" lon="4.34781">
        <ele>283.269989</ele>
        <time>2012-02-05T12:01:39Z</time>
      </trkpt>
      <trkpt lat="44.56868" lon="4.3478">
        <ele>283.227875</ele>
        <time>2012-02-05T12:01:46Z</time>
      </trkpt>
      <trkpt lat="44.56867" lon="4.34779">
        <ele>283.150208</ele>
        <time>2012-02-05T12:01:55Z</time>
      </trkpt>
      <trkpt lat="44.56867" lon="4.3478">
        <ele>283.175629</ele>
        <time>2012-02-05T12:02:02Z</time>
      </trkpt>
      <trkpt lat="44.56863" lon="4.34781">
        <ele>283.18396</ele>
        <time>2012-02-05T12:02:08Z</time>
      </trkpt>
      <trkpt lat="44.56864" lon="4.34781">
        <ele>283.173737</ele>
        <time>2012-02-05T12:02:14Z</time>
      </trkpt>
      <trkpt lat="44.56862" lon="4.3478">
        <ele>283.067841</ele>
        <time>2012-02-05T12:02:38Z</time>
      </trkpt>
      <trkpt lat="44.56848" lon="4.34783">
        <ele>282.110138</ele>
        <time>2012-02-05T12:02:42Z</time>
      </trkpt>
      <trkpt lat="44.56831" lon="4.34789">
        <ele>278.893921</ele>
        <time>2012-02-05T12:02:46Z</time>
      </trkpt>
      <trkpt lat="44.56827" lon="4.34792">
        <ele>277.780487</ele>
        <time>2012-02-05T12:02:50Z</time>
      </trkpt>
      <trkpt lat="44.56826" lon="4.34794">
        <ele>277.427063</ele>
        <time>2012-02-05T12:02:57Z</time>
      </trkpt>
      <trkpt lat="44.56826" lon="4.34793">
        <ele>277.455139</ele>
        <time>2012-02-05T12:02:58Z</time>
      </trkpt>
      <trkpt lat="44.56812" lon="4.34793">
        <ele>276.103668</ele>
        <time>2012-02-05T12:03:04Z</time>
      </trkpt>
      <trkpt lat="44.56805" lon="4.34795">
        <ele>274.500946</ele>
        <time>2012-02-05T12:03:09Z</time>
      </trkpt>
      <trkpt lat="44.568" lon="4.34801">
        <ele>272.624786</ele>
        <time>2012-02-05T12:03:15Z</time>
      </trkpt>
      <trkpt lat="44.56794" lon="4.34805">
        <ele>270.784851</ele>
        <time>2012-02-05T12:03:20Z</time>
      </trkpt>
      <trkpt lat="44.56792" lon="4.34805">
        <ele>270.43924</ele>
        <time>2012-02-05T12:03:21Z</time>
      </trkpt>
      <trkpt lat="44.56786" lon="4.34806">
        <ele>269.148712</ele>
        <time>2012-02-05T12:03:26Z</time>
      </trkpt>
      <trkpt lat="44.56774" lon="4.34806">
        <ele>266.850006</ele>
        <time>2012-02-05T12:03:31Z</time>
      </trkpt>
      <trkpt lat="44.56764" lon="4.3481">
        <ele>264.715698</ele>
        <time>2012-02-05T12:03:35Z</time>
      </trkpt>
      <trkpt lat="44.56755" lon="4.34817">
        <ele>263.350739</ele>
        <time>2012-02-05T12:03:39Z</time>
      </trkpt>
      <trkpt lat="44.56746" lon="4.34826">
        <ele>262.062408</ele>
        <time>2012-02-05T12:03:44Z</time>
      </trkpt>
      <trkpt lat="44.56739" lon="4.34834">
        <ele>261.078003</ele>
        <time>2012-02-05T12:03:49Z</time>
      </trkpt>
      <trkpt lat="44.56735" lon="4.3484">
        <ele>260.569977</ele>
        <time>2012-02-05T12:03:51Z</time>
      </trkpt>
      <trkpt lat="44.56731" lon="4.34857">
        <ele>257.619995</ele>
        <time>2012-02-05T12:03:56Z</time>
      </trkpt>
      <trkpt lat="44.56731" lon="4.34885">
        <ele>253.150009</ele>
        <time>2012-02-05T12:04:03Z</time>
      </trkpt>
      <trkpt lat="44.56731" lon="4.34889">
        <ele>252.604996</ele>
        <time>2012-02-05T12:04:04Z</time>
      </trkpt>
      <trkpt lat="44.56732" lon="4.34889">
        <ele>252.617508</ele>
        <time>2012-02-05T12:04:11Z</time>
      </trkpt>
      <trkpt lat="44.5673" lon="4.34892">
        <ele>251.977509</ele>
        <time>2012-02-05T12:04:19Z</time>
      </trkpt>
      <trkpt lat="44.56733" lon="4.3489">
        <ele>252.580002</ele>
        <time>2012-02-05T12:04:24Z</time>
      </trkpt>
      <trkpt lat="44.56732" lon="4.34888">
        <ele>252.710007</ele>
        <time>2012-02-05T12:04:31Z</time>
      </trkpt>
      <trkpt lat="44.56732" lon="4.34888">
        <ele>252.712494</ele>
        <time>2012-02-05T12:04:42Z</time>
      </trkpt>
      <trkpt lat="44.5673" lon="4.34887">
        <ele>252.717499</ele>
        <time>2012-02-05T12:05:12Z</time>
      </trkpt>
      <trkpt lat="44.56732" lon="4.34886">
        <ele>253.037506</ele>
        <time>2012-02-05T12:05:25Z</time>
      </trkpt>
      <trkpt lat="44.56734" lon="4.34886">
        <ele>253.242493</ele>
        <time>2012-02-05T12:05:31Z</time>
      </trkpt>
      <trkpt lat="44.56733" lon="4.34886">
        <ele>253.274994</ele>
        <time>2012-02-05T12:05:37Z</time>
      </trkpt>
      <trkpt lat="44.56733" lon="4.34889">
        <ele>252.582504</ele>
        <time>2012-02-05T12:05:44Z</time>
      </trkpt>
      <trkpt lat="44.56734" lon="4.34889">
        <ele>252.782501</ele>
        <time>2012-02-05T12:05:45Z</time>
      </trkpt>
      <trkpt lat="44.56755" lon="4.34883">
        <ele>255.707504</ele>
        <time>2012-02-05T12:05:51Z</time>
      </trkpt>
      <trkpt lat="44.56786" lon="4.3488">
        <ele>257.822357</ele>
        <time>2012-02-05T12:05:58Z</time>
      </trkpt>
      <trkpt lat="44.56804" lon="4.34884">
        <ele>257.750641</ele>
        <time>2012-02-05T12:06:02Z</time>
      </trkpt>
      <trkpt lat="44.56821" lon="4.3489">
        <ele>257.677338</ele>
        <time>2012-02-05T12:06:06Z</time>
      </trkpt>
      <trkpt lat="44.56841" lon="4.34884">
        <ele>260.565613</ele>
        <time>2012-02-05T12:06:11Z</time>
      </trkpt>
      <trkpt lat="44.56851" lon="4.34876">
        <ele>262.9776</ele>
        <time>2012-02-05T12:06:14Z</time>
      </trkpt>
      <trkpt lat="44.56871" lon="4.34871">
        <ele>264.606903</ele>
        <time>2012-02-05T12:06:20Z</time>
      </trkpt>
      <trkpt lat="44.56896" lon="4.34879">
        <ele>264.255768</ele>
        <time>2012-02-05T12:06:26Z</time>
      </trkpt>
      <trkpt lat="44.56919" lon="4.34885">
        <ele>265.050995</ele>
        <time>2012-02-05T12:06:32Z</time>
      </trkpt>
      <trkpt lat="44.5694" lon="4.34886">
        <ele>266.593262</ele>
        <time>2012-02-05T12:06:37Z</time>
      </trkpt>
      <trkpt lat="44.56956" lon="4.3489">
        <ele>267.214996</ele>
        <time>2012-02-05T12:06:41Z</time>
      </trkpt>
      <trkpt lat="44.56968" lon="4.34897">
        <ele>267.11499</ele>
        <time>2012-02-05T12:06:44Z</time>
      </trkpt>
      <trkpt lat="44.56983" lon="4.34915">
        <ele>266.207458</ele>
        <time>2012-02-05T12:06:50Z</time>
      </trkpt>
      <trkpt lat="44.56974" lon="4.34928">
        <ele>267.7547</ele>
        <time>2012-02-05T12:06:54Z</time>
      </trkpt>
      <trkpt lat="44.5697" lon="4.34928">
        <ele>267.550598</ele>
        <time>2012-02-05T12:06:55Z</time>
      </trkpt>
      <trkpt lat="44.56955" lon="4.34925">
        <ele>266.313354</ele>
        <time>2012-02-05T12:06:59Z</time>
      </trkpt>
      <trkpt lat="44.56939" lon="4.34927">
        <ele>266.090027</ele>
        <time>2012-02-05T12:07:03Z</time>
      </trkpt>
      <trkpt lat="44.5692" lon="4.34927">
        <ele>265.139832</ele>
        <time>2012-02-05T12:07:08Z</time>
      </trkpt>
      <trkpt lat="44.56893" lon="4.34927">
        <ele>263.656616</ele>
        <time>2012-02-05T12:07:14Z</time>
      </trkpt>
      <trkpt lat="44.5688" lon="4.34926">
        <ele>262.648163</ele>
        <time>2012-02-05T12:07:17Z</time>
      </trkpt>
      <trkpt lat="44.56863" lon="4.34937">
        <ele>263.731049</ele>
        <time>2012-02-05T12:07:21Z</time>
      </trkpt>
      <trkpt lat="44.56848" lon="4.34957">
        <ele>265.978943</ele>
        <time>2012-02-05T12:07:25Z</time>
      </trkpt>
      <trkpt lat="44.56828" lon="4.34966">
        <ele>264.132324</ele>
        <time>2012-02-05T12:07:29Z</time>
      </trkpt>
      <trkpt lat="44.56812" lon="4.3497">
        <ele>261.503571</ele>
        <time>2012-02-05T12:07:32Z</time>
      </trkpt>
      <trkpt lat="44.56801" lon="4.34975">
        <ele>260.086945</ele>
        <time>2012-02-05T12:07:34Z</time>
      </trkpt>
      <trkpt lat="44.56772" lon="4.34994">
        <ele>255.644653</ele>
        <time>2012-02-05T12:07:40Z</time>
      </trkpt>
      <trkpt lat="44.56757" lon="4.35014">
        <ele>254.033981</ele>
        <time>2012-02-05T12:07:44Z</time>
      </trkpt>
      <trkpt lat="44.56755" lon="4.35021">
        <ele>254.326508</ele>
        <time>2012-02-05T12:07:45Z</time>
      </trkpt>
      <trkpt lat="44.56748" lon="4.35057">
        <ele>253.699997</ele>
        <time>2012-02-05T12:07:50Z</time>
      </trkpt>
      <trkpt lat="44.56747" lon="4.35072">
        <ele>253.449997</ele>
        <time>2012-02-05T12:07:52Z</time>
      </trkpt>
      <trkpt lat="44.56751" lon="4.35117">
        <ele>253.917984</ele>
        <time>2012-02-05T12:07:58Z</time>
      </trkpt>
      <trkpt lat="44.56756" lon="4.35149">
        <ele>253.995255</ele>
        <time>2012-02-05T12:08:03Z</time>
      </trkpt>
      <trkpt lat="44.56757" lon="4.35156">
        <ele>254.088684</ele>
        <time>2012-02-05T12:08:04Z</time>
      </trkpt>
      <trkpt lat="44.56767" lon="4.35183">
        <ele>254.870911</ele>
        <time>2012-02-05T12:08:09Z</time>
      </trkpt>
      <trkpt lat="44.56774" lon="4.35202">
        <ele>255.361435</ele>
        <time>2012-02-05T12:08:13Z</time>
      </trkpt>
      <trkpt lat="44.56793" lon="4.35224">
        <ele>257.378479</ele>
        <time>2012-02-05T12:08:20Z</time>
      </trkpt>
      <trkpt lat="44.56809" lon="4.35241">
        <ele>258.737</ele>
        <time>2012-02-05T12:08:27Z</time>
      </trkpt>
      <trkpt lat="44.56811" lon="4.3525">
        <ele>258.401886</ele>
        <time>2012-02-05T12:08:32Z</time>
      </trkpt>
      <trkpt lat="44.56811" lon="4.35251">
        <ele>258.383453</ele>
        <time>2012-02-05T12:08:38Z</time>
      </trkpt>
      <trkpt lat="44.56811" lon="4.35257">
        <ele>257.887329</ele>
        <time>2012-02-05T12:08:46Z</time>
      </trkpt>
      <trkpt lat="44.56809" lon="4.3528">
        <ele>256.124207</ele>
        <time>2012-02-05T12:08:53Z</time>
      </trkpt>
      <trkpt lat="44.56809" lon="4.3531">
        <ele>255.214935</ele>
        <time>2012-02-05T12:08:58Z</time>
      </trkpt>
      <trkpt lat="44.56809" lon="4.35372">
        <ele>253.534119</ele>
        <time>2012-02-05T12:09:06Z</time>
      </trkpt>
      <trkpt lat="44.56806" lon="4.35428">
        <ele>251.828415</ele>
        <time>2012-02-05T12:09:14Z</time>
      </trkpt>
      <trkpt lat="44.56802" lon="4.35451">
        <ele>251.208954</ele>
        <time>2012-02-05T12:09:20Z</time>
      </trkpt>
      <trkpt lat="44.56797" lon="4.35465">
        <ele>251.104019</ele>
        <time>2012-02-05T12:09:26Z</time>
      </trkpt>
      <trkpt lat="44.56795" lon="4.35467">
        <ele>251.217773</ele>
        <time>2012-02-05T12:09:28Z</time>
      </trkpt>
      <trkpt lat="44.56797" lon="4.35471">
        <ele>250.940674</ele>
        <time>2012-02-05T12:09:32Z</time>
      </trkpt>
      <trkpt lat="44.56795" lon="4.35468">
        <ele>251.248703</ele>
        <time>2012-02-05T12:09:37Z</time>
      </trkpt>
      <trkpt lat="44.56794" lon="4.35471">
        <ele>251.256744</ele>
        <time>2012-02-05T12:09:38Z</time>
      </trkpt>
      <trkpt lat="44.56783" lon="4.35502">
        <ele>248.967499</ele>
        <time>2012-02-05T12:09:45Z</time>
      </trkpt>
      <trkpt lat="44.56771" lon="4.35517">
        <ele>248.533752</ele>
        <time>2012-02-05T12:09:50Z</time>
      </trkpt>
      <trkpt lat="44.56752" lon="4.35533">
        <ele>248.809998</ele>
        <time>2012-02-05T12:09:56Z</time>
      </trkpt>
      <trkpt lat="44.56726" lon="4.35554">
        <ele>248.996597</ele>
        <time>2012-02-05T12:10:04Z</time>
      </trkpt>
      <trkpt lat="44.56705" lon="4.35568">
        <ele>249.372559</ele>
        <time>2012-02-05T12:10:11Z</time>
      </trkpt>
      <trkpt lat="44.5669" lon="4.35567">
        <ele>250.772964</ele>
        <time>2012-02-05T12:10:16Z</time>
      </trkpt>
      <trkpt lat="44.56667" lon="4.3556">
        <ele>253.590393</ele>
        <time>2012-02-05T12:10:22Z</time>
      </trkpt>
      <trkpt lat="44.56633" lon="4.35549">
        <ele>254.875</ele>
        <time>2012-02-05T12:10:30Z</time>
      </trkpt>
      <trkpt lat="44.56619" lon="4.35546">
        <ele>254.824997</ele>
        <time>2012-02-05T12:10:33Z</time>
      </trkpt>
      <trkpt lat="44.56599" lon="4.3555">
        <ele>253.267212</ele>
        <time>2012-02-05T12:10:37Z</time>
      </trkpt>
      <trkpt lat="44.56555" lon="4.35568">
        <ele>248.350006</ele>
        <time>2012-02-05T12:10:44Z</time>
      </trkpt>
      <trkpt lat="44.56537" lon="4.35595">
        <ele>243.755478</ele>
        <time>2012-02-05T12:10:48Z</time>
      </trkpt>
      <trkpt lat="44.56511" lon="4.35614">
        <ele>240.755005</ele>
        <time>2012-02-05T12:10:52Z</time>
      </trkpt>
      <trkpt lat="44.5649" lon="4.35624">
        <ele>239.072495</ele>
        <time>2012-02-05T12:10:55Z</time>
      </trkpt>
      <trkpt lat="44.56481" lon="4.35654">
        <ele>235.707504</ele>
        <time>2012-02-05T12:10:58Z</time>
      </trkpt>
      <trkpt lat="44.5648" lon="4.35665">
        <ele>234.791245</ele>
        <time>2012-02-05T12:10:59Z</time>
      </trkpt>
      <trkpt lat="44.56477" lon="4.35713">
        <ele>230.957504</ele>
        <time>2012-02-05T12:11:04Z</time>
      </trkpt>
      <trkpt lat="44.56476" lon="4.35724">
        <ele>230.398254</ele>
        <time>2012-02-05T12:11:07Z</time>
      </trkpt>
      <trkpt lat="44.56475" lon="4.35748">
        <ele>229.224625</ele>
        <time>2012-02-05T12:11:15Z</time>
      </trkpt>
      <trkpt lat="44.56466" lon="4.35777">
        <ele>227.261002</ele>
        <time>2012-02-05T12:11:22Z</time>
      </trkpt>
      <trkpt lat="44.56452" lon="4.35811">
        <ele>225.055832</ele>
        <time>2012-02-05T12:11:28Z</time>
      </trkpt>
      <trkpt lat="44.56455" lon="4.35841">
        <ele>223.952499</ele>
        <time>2012-02-05T12:11:32Z</time>
      </trkpt>
      <trkpt lat="44.56469" lon="4.35858">
        <ele>223.821243</ele>
        <time>2012-02-05T12:11:36Z</time>
      </trkpt>
      <trkpt lat="44.56511" lon="4.35885">
        <ele>223.647507</ele>
        <time>2012-02-05T12:11:44Z</time>
      </trkpt>
      <trkpt lat="44.56529" lon="4.35894">
        <ele>223.193634</ele>
        <time>2012-02-05T12:11:47Z</time>
      </trkpt>
      <trkpt lat="44.56577" lon="4.35931">
        <ele>220.146515</ele>
        <time>2012-02-05T12:11:55Z</time>
      </trkpt>
      <trkpt lat="44.5659" lon="4.35939">
        <ele>219.526627</ele>
        <time>2012-02-05T12:11:57Z</time>
      </trkpt>
      <trkpt lat="44.56627" lon="4.35949">
        <ele>218.820801</ele>
        <time>2012-02-05T12:12:02Z</time>
      </trkpt>
      <trkpt lat="44.56651" lon="4.35973">
        <ele>217.956543</ele>
        <time>2012-02-05T12:12:06Z</time>
      </trkpt>
      <trkpt lat="44.56655" lon="4.36002">
        <ele>217.699478</ele>
        <time>2012-02-05T12:12:09Z</time>
      </trkpt>
      <trkpt lat="44.56645" lon="4.36028">
        <ele>216.952347</ele>
        <time>2012-02-05T12:12:12Z</time>
      </trkpt>
      <trkpt lat="44.56636" lon="4.36057">
        <ele>215.895004</ele>
        <time>2012-02-05T12:12:15Z</time>
      </trkpt>
      <trkpt lat="44.56621" lon="4.36121">
        <ele>213.30658</ele>
        <time>2012-02-05T12:12:22Z</time>
      </trkpt>
      <trkpt lat="44.5662" lon="4.36128">
        <ele>212.942703</ele>
        <time>2012-02-05T12:12:23Z</time>
      </trkpt>
      <trkpt lat="44.56617" lon="4.36163">
        <ele>211.327515</ele>
        <time>2012-02-05T12:12:28Z</time>
      </trkpt>
      <trkpt lat="44.56626" lon="4.36201">
        <ele>209.6409</ele>
        <time>2012-02-05T12:12:35Z</time>
      </trkpt>
      <trkpt lat="44.5664" lon="4.36234">
        <ele>208.262497</ele>
        <time>2012-02-05T12:12:42Z</time>
      </trkpt>
      <trkpt lat="44.5666" lon="4.3626">
        <ele>207.608871</ele>
        <time>2012-02-05T12:12:49Z</time>
      </trkpt>
      <trkpt lat="44.56679" lon="4.36281">
        <ele>206.977783</ele>
        <time>2012-02-05T12:12:56Z</time>
      </trkpt>
      <trkpt lat="44.56699" lon="4.36303">
        <ele>206.517303</ele>
        <time>2012-02-05T12:13:02Z</time>
      </trkpt>
      <trkpt lat="44.56715" lon="4.36314">
        <ele>206.559662</ele>
        <time>2012-02-05T12:13:07Z</time>
      </trkpt>
      <trkpt lat="44.56721" lon="4.36312">
        <ele>206.884003</ele>
        <time>2012-02-05T12:13:09Z</time>
      </trkpt>
      <trkpt lat="44.56723" lon="4.36299">
        <ele>207.738083</ele>
        <time>2012-02-05T12:13:14Z</time>
      </trkpt>
      <trkpt lat="44.5672" lon="4.36298">
        <ele>207.633896</ele>
        <time>2012-02-05T12:13:17Z</time>
      </trkpt>
      <trkpt lat="44.56712" lon="4.36297">
        <ele>207.412155</ele>
        <time>2012-02-05T12:13:22Z</time>
      </trkpt>
      <trkpt lat="44.5671" lon="4.36296">
        <ele>207.363342</ele>
        <time>2012-02-05T12:13:29Z</time>
      </trkpt>
      <trkpt lat="44.56708" lon="4.36297">
        <ele>207.203705</ele>
        <time>2012-02-05T12:13:34Z</time>
      </trkpt>
      <trkpt lat="44.56707" lon="4.36299">
        <ele>207.060608</ele>
        <time>2012-02-05T12:13:41Z</time>
      </trkpt>
      <trkpt lat="44.56706" lon="4.36299">
        <ele>207.016174</ele>
        <time>2012-02-05T12:13:52Z</time>
      </trkpt>
      <trkpt lat="44.56706" lon="4.363">
        <ele>206.979187</ele>
        <time>2012-02-05T12:13:58Z</time>
      </trkpt>
      <trkpt lat="44.56706" lon="4.363">
        <ele>206.965485</ele>
        <time>2012-02-05T12:14:11Z</time>
      </trkpt>
      <trkpt lat="44.56706" lon="4.363">
        <ele>206.96608</ele>
        <time>2012-02-05T12:14:24Z</time>
      </trkpt>
      <trkpt lat="44.56705" lon="4.36297">
        <ele>207.083893</ele>
        <time>2012-02-05T12:14:33Z</time>
      </trkpt>
      <trkpt lat="44.56704" lon="4.36293">
        <ele>207.244019</ele>
        <time>2012-02-05T12:14:39Z</time>
      </trkpt>
      <trkpt lat="44.56704" lon="4.36291">
        <ele>207.325027</ele>
        <time>2012-02-05T12:14:47Z</time>
      </trkpt>
      <trkpt lat="44.56704" lon="4.3629">
        <ele>207.403915</ele>
        <time>2012-02-05T12:14:53Z</time>
      </trkpt>
      <trkpt lat="44.56704" lon="4.36284">
        <ele>207.729996</ele>
        <time>2012-02-05T12:15:23Z</time>
      </trkpt>
      <trkpt lat="44.56701" lon="4.36286">
        <ele>207.455963</ele>
        <time>2012-02-05T12:15:47Z</time>
      </trkpt>
      <trkpt lat="44.56702" lon="4.36285">
        <ele>207.555008</ele>
        <time>2012-02-05T12:15:59Z</time>
      </trkpt>
      <trkpt lat="44.56702" lon="4.36285">
        <ele>207.550003</ele>
        <time>2012-02-05T12:16:09Z</time>
      </trkpt>
      <trkpt lat="44.56703" lon="4.36282">
        <ele>207.794998</ele>
        <time>2012-02-05T12:16:14Z</time>
      </trkpt>
      <trkpt lat="44.56702" lon="4.3628">
        <ele>207.850006</ele>
        <time>2012-02-05T12:16:19Z</time>
      </trkpt>
      <trkpt lat="44.56702" lon="4.36266">
        <ele>208.790009</ele>
        <time>2012-02-05T12:16:25Z</time>
      </trkpt>
      <trkpt lat="44.56704" lon="4.36265">
        <ele>208.925003</ele>
        <time>2012-02-05T12:16:31Z</time>
      </trkpt>
      <trkpt lat="44.56708" lon="4.36267">
        <ele>209</ele>
        <time>2012-02-05T12:16:36Z</time>
      </trkpt>
      <trkpt lat="44.56701" lon="4.36289">
        <ele>207.333969</ele>
        <time>2012-02-05T12:17:02Z</time>
      </trkpt>
      <trkpt lat="44.56702" lon="4.36282">
        <ele>207.785004</ele>
        <time>2012-02-05T12:17:08Z</time>
      </trkpt>
      <trkpt lat="44.56697" lon="4.36279">
        <ele>207.709991</ele>
        <time>2012-02-05T12:17:14Z</time>
      </trkpt>
      <trkpt lat="44.56697" lon="4.36274">
        <ele>208.005005</ele>
        <time>2012-02-05T12:17:21Z</time>
      </trkpt>
      <trkpt lat="44.567" lon="4.36279">
        <ele>207.860001</ele>
        <time>2012-02-05T12:17:27Z</time>
      </trkpt>
      <trkpt lat="44.56697" lon="4.36285">
        <ele>207.334991</ele>
        <time>2012-02-05T12:17:34Z</time>
      </trkpt>
      <trkpt lat="44.56698" lon="4.3628">
        <ele>207.714996</ele>
        <time>2012-02-05T12:17:40Z</time>
      </trkpt>
      <trkpt lat="44.56698" lon="4.36283">
        <ele>207.555008</ele>
        <time>2012-02-05T12:17:47Z</time>
      </trkpt>
      <trkpt lat="44.567" lon="4.3628">
        <ele>207.789993</ele>
        <time>2012-02-05T12:17:52Z</time>
      </trkpt>
      <trkpt lat="44.567" lon="4.36275">
        <ele>208.125</ele>
        <time>2012-02-05T12:17:55Z</time>
      </trkpt>
      <trkpt lat="44.56702" lon="4.36274">
        <ele>208.240005</ele>
        <time>2012-02-05T12:18:02Z</time>
      </trkpt>
      <trkpt lat="44.56703" lon="4.36281">
        <ele>207.850006</ele>
        <time>2012-02-05T12:18:39Z</time>
      </trkpt>
      <trkpt lat="44.56705" lon="4.36278">
        <ele>208.175003</ele>
        <time>2012-02-05T12:19:40Z</time>
      </trkpt>
      <trkpt lat="44.56703" lon="4.3628">
        <ele>207.895004</ele>
        <time>2012-02-05T12:20:04Z</time>
      </trkpt>
      <trkpt lat="44.56702" lon="4.3628">
        <ele>207.880005</ele>
        <time>2012-02-05T12:20:13Z</time>
      </trkpt>
      <trkpt lat="44.56703" lon="4.36277">
        <ele>208.115005</ele>
        <time>2012-02-05T12:20:21Z</time>
      </trkpt>
      <trkpt lat="44.56701" lon="4.36283">
        <ele>207.669998</ele>
        <time>2012-02-05T12:20:32Z</time>
      </trkpt>
      <trkpt lat="44.567" lon="4.36284">
        <ele>207.520004</ele>
        <time>2012-02-05T12:20:47Z</time>
      </trkpt>
      <trkpt lat="44.56699" lon="4.36284">
        <ele>207.505005</ele>
        <time>2012-02-05T12:20:53Z</time>
      </trkpt>
      <trkpt lat="44.56702" lon="4.36278">
        <ele>208.009995</ele>
        <time>2012-02-05T12:21:30Z</time>
      </trkpt>
      <trkpt lat="44.56704" lon="4.36277">
        <ele>208.154999</ele>
        <time>2012-02-05T12:21:42Z</time>
      </trkpt>
      <trkpt lat="44.56701" lon="4.36282">
        <ele>207.714996</ele>
        <time>2012-02-05T12:21:57Z</time>
      </trkpt>
      <trkpt lat="44.56701" lon="4.36283">
        <ele>207.645004</ele>
        <time>2012-02-05T12:22:10Z</time>
      </trkpt>
      <trkpt lat="44.56701" lon="4.36283">
        <ele>207.684998</ele>
        <time>2012-02-05T12:22:21Z</time>
      </trkpt>
      <trkpt lat="44.56703" lon="4.36278">
        <ele>208.014999</ele>
        <time>2012-02-05T12:22:33Z</time>
      </trkpt>
      <trkpt lat="44.56703" lon="4.36277">
        <ele>208.104996</ele>
        <time>2012-02-05T12:22:46Z</time>
      </trkpt>
      <trkpt lat="44.567" lon="4.36286">
        <ele>207.440002</ele>
        <time>2012-02-05T12:23:10Z</time>
      </trkpt>
      <trkpt lat="44.56699" lon="4.3629">
        <ele>207.168671</ele>
        <time>2012-02-05T12:23:50Z</time>
      </trkpt>
      <trkpt lat="44.56699" lon="4.36291">
        <ele>207.16069</ele>
        <time>2012-02-05T12:23:58Z</time>
      </trkpt>
      <trkpt lat="44.567" lon="4.36289">
        <ele>207.280899</ele>
        <time>2012-02-05T12:24:07Z</time>
      </trkpt>
      <trkpt lat="44.56699" lon="4.3629">
        <ele>207.126892</ele>
        <time>2012-02-05T12:24:18Z</time>
      </trkpt>
      <trkpt lat="44.567" lon="4.36288">
        <ele>207.28923</ele>
        <time>2012-02-05T12:24:33Z</time>
      </trkpt>
      <trkpt lat="44.56702" lon="4.36285">
        <ele>207.604996</ele>
        <time>2012-02-05T12:24:48Z</time>
      </trkpt>
      <trkpt lat="44.56704" lon="4.36282">
        <ele>207.845001</ele>
        <time>2012-02-05T12:24:57Z</time>
      </trkpt>
      <trkpt lat="44.56705" lon="4.36281">
        <ele>207.960007</ele>
        <time>2012-02-05T12:25:09Z</time>
      </trkpt>
      <trkpt lat="44.56703" lon="4.36284">
        <ele>207.675003</ele>
        <time>2012-02-05T12:25:19Z</time>
      </trkpt>
      <trkpt lat="44.56704" lon="4.36285">
        <ele>207.639999</ele>
        <time>2012-02-05T12:25:32Z</time>
      </trkpt>
      <trkpt lat="44.56706" lon="4.36283">
        <ele>207.914993</ele>
        <time>2012-02-05T12:25:55Z</time>
      </trkpt>
      <trkpt lat="44.56706" lon="4.36282">
        <ele>207.940002</ele>
        <time>2012-02-05T12:26:11Z</time>
      </trkpt>
      <trkpt lat="44.56704" lon="4.36286">
        <ele>207.639999</ele>
        <time>2012-02-05T12:26:25Z</time>
      </trkpt>
      <trkpt lat="44.56705" lon="4.36287">
        <ele>207.623398</ele>
        <time>2012-02-05T12:26:37Z</time>
      </trkpt>
      <trkpt lat="44.56706" lon="4.3629">
        <ele>207.507416</ele>
        <time>2012-02-05T12:27:15Z</time>
      </trkpt>
      <trkpt lat="44.56709" lon="4.3629">
        <ele>207.667786</ele>
        <time>2012-02-05T12:27:28Z</time>
      </trkpt>
      <trkpt lat="44.56706" lon="4.36284">
        <ele>207.815002</ele>
        <time>2012-02-05T12:27:47Z</time>
      </trkpt>
      <trkpt lat="44.56704" lon="4.36281">
        <ele>207.889999</ele>
        <time>2012-02-05T12:28:03Z</time>
      </trkpt>
      <trkpt lat="44.56703" lon="4.36282">
        <ele>207.830002</ele>
        <time>2012-02-05T12:28:46Z</time>
      </trkpt>
      <trkpt lat="44.56702" lon="4.36282">
        <ele>207.755005</ele>
        <time>2012-02-05T12:29:01Z</time>
      </trkpt>
      <trkpt lat="44.56703" lon="4.36281">
        <ele>207.869995</ele>
        <time>2012-02-05T12:29:09Z</time>
      </trkpt>
      <trkpt lat="44.56704" lon="4.36278">
        <ele>208.100006</ele>
        <time>2012-02-05T12:29:11Z</time>
      </trkpt>
      <trkpt lat="44.56708" lon="4.36265">
        <ele>209.125</ele>
        <time>2012-02-05T12:29:17Z</time>
      </trkpt>
      <trkpt lat="44.56705" lon="4.36261">
        <ele>209.210007</ele>
        <time>2012-02-05T12:29:23Z</time>
      </trkpt>
      <trkpt lat="44.56705" lon="4.36256">
        <ele>209.544998</ele>
        <time>2012-02-05T12:29:29Z</time>
      </trkpt>
      <trkpt lat="44.56693" lon="4.36282">
        <ele>207.380005</ele>
        <time>2012-02-05T12:29:36Z</time>
      </trkpt>
      <trkpt lat="44.56697" lon="4.36278">
        <ele>207.815002</ele>
        <time>2012-02-05T12:29:40Z</time>
      </trkpt>
      <trkpt lat="44.56696" lon="4.36279">
        <ele>207.690002</ele>
        <time>2012-02-05T12:29:48Z</time>
      </trkpt>
      <trkpt lat="44.56682" lon="4.36279">
        <ele>207.225525</ele>
        <time>2012-02-05T12:29:55Z</time>
      </trkpt>
      <trkpt lat="44.5668" lon="4.36278">
        <ele>207.230911</ele>
        <time>2012-02-05T12:29:56Z</time>
      </trkpt>
      <trkpt lat="44.56683" lon="4.36281">
        <ele>207.129517</ele>
        <time>2012-02-05T12:30:02Z</time>
      </trkpt>
      <trkpt lat="44.567" lon="4.3628">
        <ele>207.830002</ele>
        <time>2012-02-05T12:30:09Z</time>
      </trkpt>
      <trkpt lat="44.56701" lon="4.3628">
        <ele>207.845001</ele>
        <time>2012-02-05T12:30:13Z</time>
      </trkpt>
      <trkpt lat="44.56701" lon="4.36282">
        <ele>207.720001</ele>
        <time>2012-02-05T12:30:28Z</time>
      </trkpt>
      <trkpt lat="44.567" lon="4.36281">
        <ele>207.744995</ele>
        <time>2012-02-05T12:30:36Z</time>
      </trkpt>
      <trkpt lat="44.56701" lon="4.36284">
        <ele>207.580002</ele>
        <time>2012-02-05T12:30:46Z</time>
      </trkpt>
      <trkpt lat="44.56704" lon="4.36283">
        <ele>207.774994</ele>
        <time>2012-02-05T12:31:07Z</time>
      </trkpt>
      <trkpt lat="44.56706" lon="4.36283">
        <ele>207.889999</ele>
        <time>2012-02-05T12:31:24Z</time>
      </trkpt>
      <trkpt lat="44.56705" lon="4.36284">
        <ele>207.755005</ele>
        <time>2012-02-05T12:31:39Z</time>
      </trkpt>
      <trkpt lat="44.56708" lon="4.36283">
        <ele>208.014999</ele>
        <time>2012-02-05T12:32:14Z</time>
      </trkpt>
      <trkpt lat="44.56709" lon="4.36284">
        <ele>207.955002</ele>
        <time>2012-02-05T12:32:43Z</time>
      </trkpt>
      <trkpt lat="44.56706" lon="4.36284">
        <ele>207.854996</ele>
        <time>2012-02-05T12:32:53Z</time>
      </trkpt>
      <trkpt lat="44.56704" lon="4.36286">
        <ele>207.615005</ele>
        <time>2012-02-05T12:32:59Z</time>
      </trkpt>
      <trkpt lat="44.56704" lon="4.36289">
        <ele>207.443253</ele>
        <time>2012-02-05T12:33:05Z</time>
      </trkpt>
      <trkpt lat="44.56709" lon="4.36291">
        <ele>207.548676</ele>
        <time>2012-02-05T12:33:10Z</time>
      </trkpt>
      <trkpt lat="44.5671" lon="4.36291">
        <ele>207.597931</ele>
        <time>2012-02-05T12:33:14Z</time>
      </trkpt>
      <trkpt lat="44.5671" lon="4.36294">
        <ele>207.449615</ele>
        <time>2012-02-05T12:33:21Z</time>
      </trkpt>
      <trkpt lat="44.56714" lon="4.36297">
        <ele>207.494812</ele>
        <time>2012-02-05T12:33:26Z</time>
      </trkpt>
      <trkpt lat="44.56721" lon="4.36297">
        <ele>207.798798</ele>
        <time>2012-02-05T12:33:31Z</time>
      </trkpt>
      <trkpt lat="44.5672" lon="4.36307">
        <ele>207.176254</ele>
        <time>2012-02-05T12:33:36Z</time>
      </trkpt>
      <trkpt lat="44.56715" lon="4.36311">
        <ele>206.739594</ele>
        <time>2012-02-05T12:33:39Z</time>
      </trkpt>
      <trkpt lat="44.56712" lon="4.36314">
        <ele>206.447067</ele>
        <time>2012-02-05T12:33:42Z</time>
      </trkpt>
      <trkpt lat="44.56716" lon="4.36327">
        <ele>205.870941</ele>
        <time>2012-02-05T12:33:47Z</time>
      </trkpt>
      <trkpt lat="44.56721" lon="4.36338">
        <ele>205.376923</ele>
        <time>2012-02-05T12:33:50Z</time>
      </trkpt>
      <trkpt lat="44.56714" lon="4.36351">
        <ele>204.496262</ele>
        <time>2012-02-05T12:33:54Z</time>
      </trkpt>
      <trkpt lat="44.56711" lon="4.36352">
        <ele>204.357224</ele>
        <time>2012-02-05T12:33:55Z</time>
      </trkpt>
      <trkpt lat="44.56683" lon="4.36363">
        <ele>203.202469</ele>
        <time>2012-02-05T12:34:03Z</time>
      </trkpt>
      <trkpt lat="44.56656" lon="4.36379">
        <ele>202.14949</ele>
        <time>2012-02-05T12:34:11Z</time>
      </trkpt>
      <trkpt lat="44.56631" lon="4.36383">
        <ele>201.547501</ele>
        <time>2012-02-05T12:34:17Z</time>
      </trkpt>
      <trkpt lat="44.56602" lon="4.36389">
        <ele>200.695007</ele>
        <time>2012-02-05T12:34:22Z</time>
      </trkpt>
      <trkpt lat="44.56574" lon="4.36393">
        <ele>200.464996</ele>
        <time>2012-02-05T12:34:26Z</time>
      </trkpt>
      <trkpt lat="44.5655" lon="4.36386">
        <ele>200.719589</ele>
        <time>2012-02-05T12:34:30Z</time>
      </trkpt>
      <trkpt lat="44.56531" lon="4.36387">
        <ele>200.951523</ele>
        <time>2012-02-05T12:34:34Z</time>
      </trkpt>
      <trkpt lat="44.56522" lon="4.36398">
        <ele>200.871826</ele>
        <time>2012-02-05T12:34:37Z</time>
      </trkpt>
      <trkpt lat="44.56514" lon="4.3641">
        <ele>200.884995</ele>
        <time>2012-02-05T12:34:40Z</time>
      </trkpt>
      <trkpt lat="44.56509" lon="4.36426">
        <ele>200.979996</ele>
        <time>2012-02-05T12:34:45Z</time>
      </trkpt>
      <trkpt lat="44.56514" lon="4.36436">
        <ele>200.869995</ele>
        <time>2012-02-05T12:34:49Z</time>
      </trkpt>
      <trkpt lat="44.56524" lon="4.36456">
        <ele>200.645004</ele>
        <time>2012-02-05T12:34:54Z</time>
      </trkpt>
      <trkpt lat="44.56542" lon="4.36482">
        <ele>200.384079</ele>
        <time>2012-02-05T12:34:59Z</time>
      </trkpt>
      <trkpt lat="44.56547" lon="4.36491">
        <ele>200.418686</ele>
        <time>2012-02-05T12:35:01Z</time>
      </trkpt>
      <trkpt lat="44.56558" lon="4.36501">
        <ele>200.367493</ele>
        <time>2012-02-05T12:35:03Z</time>
      </trkpt>
      <trkpt lat="44.56569" lon="4.36518">
        <ele>200.391251</ele>
        <time>2012-02-05T12:35:07Z</time>
      </trkpt>
      <trkpt lat="44.56578" lon="4.36532">
        <ele>200.389999</ele>
        <time>2012-02-05T12:35:10Z</time>
      </trkpt>
      <trkpt lat="44.56586" lon="4.36545">
        <ele>200.232498</ele>
        <time>2012-02-05T12:35:13Z</time>
      </trkpt>
      <trkpt lat="44.56612" lon="4.36579">
        <ele>199.25</ele>
        <time>2012-02-05T12:35:21Z</time>
      </trkpt>
      <trkpt lat="44.56639" lon="4.3661">
        <ele>197.864212</ele>
        <time>2012-02-05T12:35:28Z</time>
      </trkpt>
      <trkpt lat="44.56664" lon="4.36642">
        <ele>197.144806</ele>
        <time>2012-02-05T12:35:34Z</time>
      </trkpt>
      <trkpt lat="44.56681" lon="4.36664">
        <ele>196.999344</ele>
        <time>2012-02-05T12:35:38Z</time>
      </trkpt>
      <trkpt lat="44.56685" lon="4.36682">
        <ele>197.029999</ele>
        <time>2012-02-05T12:35:42Z</time>
      </trkpt>
      <trkpt lat="44.56684" lon="4.36685">
        <ele>197.002502</ele>
        <time>2012-02-05T12:35:43Z</time>
      </trkpt>
      <trkpt lat="44.56682" lon="4.36688">
        <ele>196.991226</ele>
        <time>2012-02-05T12:35:48Z</time>
      </trkpt>
      <trkpt lat="44.56682" lon="4.36686">
        <ele>196.984329</ele>
        <time>2012-02-05T12:35:53Z</time>
      </trkpt>
      <trkpt lat="44.56682" lon="4.36686">
        <ele>196.988052</ele>
        <time>2012-02-05T12:35:59Z</time>
      </trkpt>
      <trkpt lat="44.56683" lon="4.36688">
        <ele>196.995056</ele>
        <time>2012-02-05T12:36:06Z</time>
      </trkpt>
      <trkpt lat="44.56683" lon="4.36686">
        <ele>196.997253</ele>
        <time>2012-02-05T12:36:13Z</time>
      </trkpt>
      <trkpt lat="44.56683" lon="4.36687">
        <ele>196.99617</ele>
        <time>2012-02-05T12:36:18Z</time>
      </trkpt>
      <trkpt lat="44.56682" lon="4.36687">
        <ele>196.990631</ele>
        <time>2012-02-05T12:36:24Z</time>
      </trkpt>
      <trkpt lat="44.56682" lon="4.36687">
        <ele>196.990463</ele>
        <time>2012-02-05T12:36:34Z</time>
      </trkpt>
      <trkpt lat="44.56682" lon="4.36687">
        <ele>196.989761</ele>
        <time>2012-02-05T12:36:42Z</time>
      </trkpt>
      <trkpt lat="44.56682" lon="4.36687">
        <ele>196.985886</ele>
        <time>2012-02-05T12:36:51Z</time>
      </trkpt>
      <trkpt lat="44.56683" lon="4.36688">
        <ele>196.993958</ele>
        <time>2012-02-05T12:37:12Z</time>
      </trkpt>
      <trkpt lat="44.56683" lon="4.36689">
        <ele>196.991806</ele>
        <time>2012-02-05T12:37:18Z</time>
      </trkpt>
      <trkpt lat="44.56683" lon="4.36688">
        <ele>196.996078</ele>
        <time>2012-02-05T12:37:33Z</time>
      </trkpt>
      <trkpt lat="44.56685" lon="4.36688">
        <ele>197.037506</ele>
        <time>2012-02-05T12:37:38Z</time>
      </trkpt>
      <trkpt lat="44.56684" lon="4.36685">
        <ele>197.002502</ele>
        <time>2012-02-05T12:37:43Z</time>
      </trkpt>
      <trkpt lat="44.56684" lon="4.36687">
        <ele>197.002502</ele>
        <time>2012-02-05T12:37:52Z</time>
      </trkpt>
      <trkpt lat="44.56683" lon="4.36687">
        <ele>196.9944</ele>
        <time>2012-02-05T12:37:59Z</time>
      </trkpt>
      <trkpt lat="44.56683" lon="4.36687">
        <ele>196.994247</ele>
        <time>2012-02-05T12:38:04Z</time>
      </trkpt>
      <trkpt lat="44.56683" lon="4.36688">
        <ele>196.992218</ele>
        <time>2012-02-05T12:38:11Z</time>
      </trkpt>
      <trkpt lat="44.56682" lon="4.36687">
        <ele>196.990494</ele>
        <time>2012-02-05T12:38:17Z</time>
      </trkpt>
      <trkpt lat="44.56682" lon="4.36688">
        <ele>196.991135</ele>
        <time>2012-02-05T12:38:40Z</time>
      </trkpt>
      <trkpt lat="44.56683" lon="4.36686">
        <ele>196.99353</ele>
        <time>2012-02-05T12:38:51Z</time>
      </trkpt>
      <trkpt lat="44.56682" lon="4.36687">
        <ele>196.986877</ele>
        <time>2012-02-05T12:38:55Z</time>
      </trkpt>
      <trkpt lat="44.56682" lon="4.36687">
        <ele>196.988449</ele>
        <time>2012-02-05T12:39:08Z</time>
      </trkpt>
      <trkpt lat="44.56683" lon="4.36688">
        <ele>196.994019</ele>
        <time>2012-02-05T12:39:21Z</time>
      </trkpt>
      <trkpt lat="44.56683" lon="4.36689">
        <ele>196.996948</ele>
        <time>2012-02-05T12:39:26Z</time>
      </trkpt>
      <trkpt lat="44.56683" lon="4.36689">
        <ele>196.995956</ele>
        <time>2012-02-05T12:39:32Z</time>
      </trkpt>
      <trkpt lat="44.56684" lon="4.36688">
        <ele>197.002502</ele>
        <time>2012-02-05T12:40:06Z</time>
      </trkpt>
      <trkpt lat="44.56684" lon="4.36689">
        <ele>197</ele>
        <time>2012-02-05T12:40:19Z</time>
      </trkpt>
      <trkpt lat="44.56683" lon="4.3669">
        <ele>196.997894</ele>
        <time>2012-02-05T12:40:43Z</time>
      </trkpt>
      <trkpt lat="44.56684" lon="4.36689">
        <ele>197.005005</ele>
        <time>2012-02-05T12:40:52Z</time>
      </trkpt>
      <trkpt lat="44.56683" lon="4.36688">
        <ele>196.997025</ele>
        <time>2012-02-05T12:40:57Z</time>
      </trkpt>
      <trkpt lat="44.56683" lon="4.36689">
        <ele>196.991806</ele>
        <time>2012-02-05T12:41:09Z</time>
      </trkpt>
      <trkpt lat="44.56683" lon="4.36689">
        <ele>196.994873</ele>
        <time>2012-02-05T12:41:16Z</time>
      </trkpt>
      <trkpt lat="44.56683" lon="4.36688">
        <ele>196.992004</ele>
        <time>2012-02-05T12:41:27Z</time>
      </trkpt>
      <trkpt lat="44.56682" lon="4.36688">
        <ele>196.990128</ele>
        <time>2012-02-05T12:41:38Z</time>
      </trkpt>
      <trkpt lat="44.56683" lon="4.36688">
        <ele>196.992996</ele>
        <time>2012-02-05T12:41:46Z</time>
      </trkpt>
      <trkpt lat="44.56682" lon="4.36688">
        <ele>196.989029</ele>
        <time>2012-02-05T12:41:53Z</time>
      </trkpt>
      <trkpt lat="44.56684" lon="4.36689">
        <ele>197.012497</ele>
        <time>2012-02-05T12:42:26Z</time>
      </trkpt>
      <trkpt lat="44.56684" lon="4.3669">
        <ele>197.009995</ele>
        <time>2012-02-05T12:42:31Z</time>
      </trkpt>
      <trkpt lat="44.56683" lon="4.36687">
        <ele>196.995285</ele>
        <time>2012-02-05T12:42:37Z</time>
      </trkpt>
      <trkpt lat="44.56682" lon="4.36687">
        <ele>196.98938</ele>
        <time>2012-02-05T12:42:44Z</time>
      </trkpt>
      <trkpt lat="44.56682" lon="4.36687">
        <ele>196.989624</ele>
        <time>2012-02-05T12:42:55Z</time>
      </trkpt>
      <trkpt lat="44.56683" lon="4.36686">
        <ele>197</ele>
        <time>2012-02-05T12:43:05Z</time>
      </trkpt>
      <trkpt lat="44.56688" lon="4.3669">
        <ele>197.110001</ele>
        <time>2012-02-05T12:43:14Z</time>
      </trkpt>
      <trkpt lat="44.56689" lon="4.36687">
        <ele>197.119995</ele>
        <time>2012-02-05T12:43:19Z</time>
      </trkpt>
      <trkpt lat="44.56697" lon="4.36676">
        <ele>197.297501</ele>
        <time>2012-02-05T12:43:25Z</time>
      </trkpt>
      <trkpt lat="44.56706" lon="4.3668">
        <ele>197.487503</ele>
        <time>2012-02-05T12:43:28Z</time>
      </trkpt>
      <trkpt lat="44.56736" lon="4.36704">
        <ele>198.251846</ele>
        <time>2012-02-05T12:43:33Z</time>
      </trkpt>
      <trkpt lat="44.56745" lon="4.36709">
        <ele>198.494995</ele>
        <time>2012-02-05T12:43:34Z</time>
      </trkpt>
    </trkseg>
  </trk>
</gpx>